[[[{"header":{"parameterUnit":"kt","parameterCategory":2,"dx":1,"dy":1,"la1":29.285339999999998,"la2":30.599998999999997,"lo1":-89.70041500000002,"lo2":-87.6738589999976,"nx":112,"ny":82,"refTime":"2022-10-29T12:00:00:Z","depth":0,"parameterNumber":1,"parameterNumberName":"U-component_of_WINDS"},"data":[-1.431,-1.4704,-1.5174,-1.387,-1.3037,-1.2052,-1.0571,-0.9952,-0.968,-0.9208,-0.944,-0.9646,-0.9658,-0.9337,-0.8986,0.0,0.0,0.0,0.0,-0.791,0.0,0.0,0.0,0.0,0.0,0.0,0.0,0.0,0.0,0.0,0.0,-1.7212,-1.7504,-1.789,-1.8084,-1.838,-1.8677,-1.8954,-1.9389,-1.9982,-1.9982,-2.0286,-2.0839,-2.0839,-2.0839,-2.0839,-2.0839,-2.0839,-2.0839,-2.0839,-2.0839,-2.0839,-2.0839,-2.071,-2.0324,-1.9297,-1.7981,-1.6987,-1.716,-1.7701,-1.8086,-1.8086,-1.8086,-1.8086,-1.8086,-1.6672,-1.4962,-1.3769,-0.9859,-0.5793,-0.4642,-0.2118,0.0,0.0,0.0,0.0,0.0,0.0,0.0,0.0,0.0,0.0,0.0,0.0,0.0,0.0,0.0,0.0,0.0,0.0,0.0,0.0,0.0,0.0,0.0,0.0,0.0,0.0,0.0,0.0,0.0,0.0,0.0,0.0,0.0,0.0,0.0,0.0,0.0,0.0,0.0,0.0284,-1.1954,-1.2081,-1.2599,-1.1336,-1.0463,-0.9568,-0.8176,-0.7796,-0.7584,-0.7122,-0.7889,-0.8646,-0.8338,-0.8732,-0.8972,0.0,0.0,0.0,0.0,0.0,0.0,0.0,0.0,0.0,0.0,0.0,0.0,0.0,-1.6295,-1.6956,-1.7245,-1.7464,-1.7642,-1.8043,-1.8235,-1.8525,-1.8815,-1.9099,-1.9495,-1.9982,-2.0081,-2.0371,-2.0839,-2.0839,-2.0839,-2.0839,-2.0839,-2.0839,-2.0839,-2.0839,-2.0839,-2.0839,-2.0839,-2.0582,-1.9936,-1.8903,-1.7862,-1.701,-1.7146,-1.7584,-1.7986,-1.806,-1.8086,-1.8086,-1.8086,-1.5964,-1.3424,-1.2438,-0.8482,-0.4245,-0.3256,-0.1417,0.0,0.0,0.0,0.0,0.0,0.0,0.0,0.0,0.0,0.0,0.0,0.0,0.0,0.0,0.0,0.0,0.0,0.0,0.0,0.0,0.0,0.0,0.0,0.0,0.0,0.0,0.0,0.0,0.0,0.0,0.0,0.0,0.0,0.0,0.0,0.0,0.0142,0.0426,0.0709,0.0851,-0.9691,-0.8825,-0.8383,-0.7374,-0.7097,-0.6977,-0.672,-0.6017,-0.5659,-0.6489,-0.6736,-0.7022,-0.7716,-0.8565,-0.9039,-0.8803,-0.9197,0.0,0.0,0.0,0.0,0.0,0.0,0.0,0.0,-1.385,-1.4613,0.0,-1.6154,-1.6772,-1.7251,-1.7649,-1.8043,-1.8242,-1.8532,-1.8815,-1.9086,-1.9263,-1.9686,-1.9989,-2.0266,-2.0549,-2.0839,-2.0839,-2.0839,-2.0839,-2.0839,-2.0839,-2.0839,-2.0839,-2.0839,-2.071,-2.071,-1.9936,-1.878,-1.7986,-1.7722,-1.7631,-1.723,-1.7352,-1.7785,-1.8012,-1.8086,-1.8086,-1.8086,-1.5964,-1.286,-0.9899,-0.6789,-0.368,-0.0709,0.0,0.0,0.0,0.0,0.0,0.0,0.0,0.0,0.0,0.0,0.0,0.0,0.0,0.0,0.0,0.0,0.0,0.0,0.0,0.0,0.0,0.0,0.0,0.0,0.0,0.0,0.0,0.0,0.0,0.0,0.0,0.0,0.0,0.0,0.0,0.0,0.0,0.0426,0.1135,0.1986,0.1561,-0.9692,-0.9857,-1.0531,-0.9412,-0.8551,-0.779,-0.7039,-0.6262,-0.5967,-0.6722,-0.7209,0.0,0.0,0.0,-0.9414,-0.9335,0.0,-1.0054,-0.9671,-1.0424,-1.1372,0.0,0.0,-1.3698,-1.4765,-1.5672,-1.6232,-1.657,-1.6865,-1.7293,-1.7655,-1.7857,-1.8136,-1.8545,-1.8637,-1.8815,-1.9086,-1.9263,-1.9686,-1.9989,-2.0266,-2.0549,-2.0839,-2.0839,-2.0839,-2.0839,-2.0839,-2.0839,-2.0839,-2.0839,-2.0582,-2.0065,-2.0065,-1.9285,-1.7986,-1.7722,-1.7334,-1.6983,-1.7098,-1.7246,-1.7427,-1.7954,-1.8086,-1.8086,-1.8086,-1.4413,-1.0181,-0.9334,-0.5379,-0.0992,-0.0284,0.0,0.0,0.0,0.0,0.0,0.0,0.0,0.0,0.0,0.0,0.0,0.0,0.0,0.0,0.0,0.0,0.0,0.0,0.0,0.0,0.0,0.0,0.0,0.0,0.0,0.0,0.0,0.0,0.0,0.0,0.0,0.0,0.0,0.0,0.0,0.0,0.0567,0.0709,0.0426,0.2268,0.2977,-0.8399,-0.831,-0.8878,-0.8232,-0.7605,-0.6977,-0.6442,-0.6036,-0.5888,-0.6422,0.0,0.0,0.0,0.0,0.0,0.0,-1.068,-1.1031,-1.0423,-1.1458,-1.2526,-1.3313,-1.4194,-1.5018,-1.5476,-1.6304,-1.6851,-1.7101,-1.7161,-1.7365,-1.7884,-1.8023,-1.8196,-1.8664,-1.8789,-1.8928,-1.9092,-1.9514,-1.9811,-1.9989,-2.0391,-2.0668,-2.0839,-2.0839,-2.0839,-2.0839,-2.0839,-2.0839,-2.0839,-2.0839,-2.0453,-1.9807,-1.9155,-1.8245,-1.7334,-1.7334,-1.708,-1.6713,-1.685,-1.7119,-1.7306,-1.7711,-1.7928,-1.8086,-1.8086,-1.385,-0.9193,-0.9193,-0.4672,0.0,0.0,0.0,0.0,0.0,0.0,0.0,0.0,0.0,0.0,0.0,0.0,0.0,0.0,0.0,0.0,0.0,0.0,0.0,0.0,0.0,0.0,0.0,0.0,0.0,0.0,0.0,0.0,0.0,0.0,0.0,0.0,0.0,0.0142,0.0426,0.0426,0.0284,0.0,0.1135,0.1418,0.0993,0.2977,0.3543,-0.6907,-0.6068,-0.5844,-0.5866,-0.5884,-0.5833,-0.5671,0.0,-0.5681,-0.5765,0.0,-0.7911,-0.864,0.0,0.0,-1.0733,-1.1695,-1.2159,-1.1273,-1.246,-1.3693,-1.4527,-1.5595,-1.6066,-1.5705,-1.6271,-1.6811,-1.7225,-1.7161,-1.7266,-1.7924,-1.8123,-1.842,-1.8717,-1.896,-1.9092,-1.9092,-1.9686,-1.9982,-1.9989,-2.0563,-2.0839,-2.0839,-2.0839,-2.0839,-2.0839,-2.0839,-2.0839,-2.0839,-2.071,-2.0324,-1.9549,-1.8245,-1.7334,-1.6692,-1.6692,-1.6692,-1.6692,-1.6692,-1.7003,-1.7264,-1.7264,-1.7711,-1.8086,-1.8086,-1.385,-0.9052,-0.877,-0.439,0.0,0.0,0.0,0.0,0.0,0.0,0.0,0.0,0.0,0.0,0.0,0.0,0.0,0.0,0.0,0.0,0.0,0.0,0.0,0.0,0.0,0.0,0.0,0.0,0.0,0.0,0.0142,0.0142,0.0,0.0142,0.0142,0.0142,0.0142,0.0426,0.1135,0.1277,0.0851,0.0142,0.1702,0.2411,0.2553,0.3827,0.3685,-0.9165,-0.8617,-0.8402,-0.8411,-0.8399,-0.8166,0.0,0.0,0.0,-0.5672,-0.6515,-0.7649,-0.872,-1.0734,-1.2239,-1.2239,-1.2948,-1.3333,-1.294,-1.4616,-1.5803,-1.5847,-1.6343,-1.6745,-1.6686,-1.6996,-1.7146,-1.7258,-1.753,-1.789,-1.813,-1.8433,-1.8723,-1.9,-1.9059,-1.9092,-1.9092,-1.9686,-1.9982,-1.9989,-2.0563,-2.0839,-2.0839,-2.0839,-2.0839,-2.0839,-2.0839,-2.0839,-2.071,-2.0194,-1.9684,-1.8909,-1.7986,-1.7334,-1.6692,-1.6692,-1.6692,-1.6692,-1.6692,-1.7003,-1.7264,-1.7264,-1.7711,-1.8086,-1.8086,-1.385,-0.8628,-0.6083,-0.2832,0.0,0.0,0.0,0.0,0.0,0.0,0.0,0.0,0.0,0.0,0.0,0.0,0.0,0.0,0.0,0.0,0.0,0.0,0.0,0.0,0.0,0.0,0.0,0.0,0.0,0.0,0.0567,0.0709,0.0,0.0567,0.0993,0.0993,0.0993,0.0993,0.1135,0.1844,0.1703,0.0993,0.2552,0.3259,0.3259,0.4109,0.4109,-0.95,-0.9124,-0.8988,-0.9078,-0.9118,0.0,0.0,-0.8346,-0.834,-0.8252,-0.9159,-1.0132,-1.0871,-1.2094,-1.3073,-1.3212,-1.3963,-1.4636,-1.4939,-1.5981,-1.666,-1.6521,-1.689,-1.7154,-1.7154,-1.7179,-1.7271,-1.7271,-1.7635,-1.8096,-1.8433,-1.8598,-1.8809,-1.9079,-1.9092,-1.9165,-1.919,-1.9758,-2.0055,-2.0193,-2.0628,-2.0839,-2.0839,-2.0839,-2.0839,-2.0839,-2.0839,-2.0839,-2.071,-2.0065,-1.9426,-1.878,-1.7603,-1.6951,-1.6692,-1.6692,-1.6692,-1.6692,-1.6692,-1.6929,-1.7241,-1.7228,-1.75,-1.766,-1.6217,-1.3705,-1.0461,-0.5798,-0.2267,0.0,0.0,0.0,0.0,0.0,0.0,0.0,0.0,0.0,0.0,0.0,0.0,0.0,0.0,0.0,0.0,0.0,0.0,0.0,0.0,0.0,0.0,0.0,0.0,0.0,0.0,0.0709,0.0993,0.0567,0.1277,0.1561,0.1135,0.1985,0.1985,0.1135,0.2269,0.2552,0.1703,0.326,0.3968,0.3968,0.4251,0.4251,-0.9111,-0.8909,-0.8803,-0.9101,-0.9164,0.0,-0.9366,-1.0001,-1.0552,-1.0481,-1.1472,-1.2518,-1.2804,-1.3393,-1.3877,-1.41,-1.4906,-1.5704,-1.6468,-1.6831,-1.7016,-1.7016,-1.712,-1.7271,-1.7271,-1.7317,-1.7457,-1.7457,-1.7721,-1.811,-1.8651,-1.873,-1.8862,-1.9086,-1.9092,-1.9231,-1.9407,-1.9831,-2.0121,-2.0398,-2.0694,-2.0839,-2.0839,-2.0839,-2.0839,-2.0839,-2.0839,-2.0839,-2.071,-1.9943,-1.9297,-1.8515,-1.721,-1.6692,-1.6692,-1.6692,-1.6692,-1.6692,-1.6692,-1.685,-1.7088,-1.7326,-1.7427,-1.7243,-1.4503,-1.3142,-1.1589,-0.6081,-0.2267,0.0,0.0,0.0,0.0,0.0,0.0,0.0,0.0,0.0,0.0,0.0,0.0,0.0,0.0,0.0,0.0,0.0,0.0,0.0,0.0,0.0,0.0,0.0,0.0142,0.0284,0.0284,0.1135,0.156,0.1418,0.2128,0.2269,0.1702,0.2835,0.2977,0.1844,0.2977,0.326,0.2553,0.3827,0.4534,0.4534,0.4534,0.4392,-0.8856,-0.875,-0.8803,-0.9101,-0.9315,0.0,-0.9096,-0.9257,-0.938,-0.9093,-1.0392,-1.1724,-1.2059,-1.389,-1.5305,-1.5331,-1.5941,-1.6468,-1.6831,-1.7141,-1.7218,-1.7218,-1.7245,-1.7271,-1.7271,-1.7602,-1.7857,-1.7857,-1.8018,-1.8334,-1.8664,-1.8914,-1.9059,-1.9092,-1.9092,-1.9231,-1.9407,-1.9831,-2.0121,-2.0398,-2.0694,-2.0839,-2.0839,-2.0839,-2.0839,-2.0839,-2.0839,-2.0839,-2.071,-1.9426,-1.8515,-1.7722,-1.6951,-1.6692,-1.6692,-1.6692,-1.6692,-1.6692,-1.6692,-1.685,-1.7088,-1.7326,-1.7427,-1.7243,-1.4503,-1.1733,-0.8908,-0.5376,-0.2267,0.0,0.0,0.0,0.0,0.0,0.0,0.0,0.0,0.0,0.0,0.0,0.0,0.0,0.0,0.0,0.0,0.0,0.0,0.0,0.0,0.0,0.0,0.0,0.0567,0.0993,0.0993,0.241,0.2977,0.227,0.2977,0.3259,0.3259,0.34,0.3684,0.4109,0.3684,0.34,0.3401,0.4109,0.4534,0.4534,0.4534,0.4109,-0.8763,-0.8856,-0.9061,-0.9302,0.0,0.0,-0.8988,-1.0245,-1.1343,-1.0154,-1.1856,-1.37,-1.4067,-1.5116,-1.5941,-1.6099,-1.662,-1.7049,-1.7174,-1.7192,-1.7271,-1.7271,-1.7271,-1.7438,-1.7602,-1.7831,-1.7977,-1.8149,-1.8328,-1.8552,-1.867,-1.8941,-1.9092,-1.9092,-1.9092,-1.9316,-1.9791,-1.9923,-2.0207,-2.0655,-2.078,-2.0839,-2.0839,-2.0839,-2.0839,-2.0839,-2.0839,-2.0582,-2.0065,-1.8768,-1.7986,-1.7592,-1.6951,-1.6692,-1.6692,-1.6692,-1.6692,-1.6692,-1.6692,-1.676,-1.6903,-1.7144,-1.6232,-1.444,-1.1801,-0.8908,-0.58,-0.2691,-0.0992,0.0,0.0,0.0,0.0,0.0,0.0,0.0,0.0,0.0,0.0,0.0,0.0,0.0,0.0,0.0,0.0,0.0,0.0,0.0,0.0,0.0,0.0142,0.0567,0.0993,0.1418,0.1844,0.2835,0.3401,0.2977,0.3685,0.3826,0.3541,0.3826,0.3968,0.3968,0.3968,0.4109,0.4109,0.4392,0.4534,0.4534,0.4534,0.4392,-0.8829,0.0,0.0,0.0,0.0,0.0,-1.005,-1.1754,-1.3154,-1.2227,-1.3804,-1.542,-1.5796,-1.6112,-1.6403,-1.6686,-1.7095,-1.7271,-1.7271,-1.7271,-1.7271,-1.7271,-1.7444,-1.7569,-1.7884,-1.805,-1.8123,-1.8341,-1.8631,-1.8789,-1.8789,-1.898,-1.9092,-1.9092,-1.9092,-1.9376,-1.9976,-1.9982,-2.0272,-2.0839,-2.0839,-2.0839,-2.0839,-2.0839,-2.0839,-2.0839,-2.0582,-2.0065,-1.9155,-1.811,-1.7592,-1.7334,-1.6951,-1.6692,-1.6692,-1.6692,-1.6692,-1.6692,-1.6692,-1.6692,-1.663,-1.6234,-1.4628,-1.2273,-0.8799,-0.6206,-0.3821,-0.0851,0.0,0.0,0.0,0.0,0.0,0.0,0.0,0.0,0.0,0.0,0.0,0.0,0.0,0.0,0.0,0.0,0.0,0.0,0.0,0.0,0.0,0.0,0.0284,0.1135,0.1418,0.1844,0.2552,0.3402,0.3826,0.3826,0.4251,0.4251,0.3826,0.4251,0.4251,0.3826,0.4251,0.4534,0.4534,0.4534,0.4534,0.4534,0.4534,0.4534,0.0,0.0,0.0,-1.0542,-1.0845,-1.1313,-1.2933,-1.3353,-1.3779,-1.5181,-1.5489,-1.5692,-1.6356,-1.6706,-1.7002,-1.7192,-1.7258,-1.7271,-1.7271,-1.7271,-1.7271,-1.7271,-1.7616,-1.789,-1.7904,-1.8314,-1.8657,-1.8664,-1.8921,-1.9079,-1.9079,-1.9086,-1.9092,-1.9092,-1.9092,-1.9376,-1.9976,-1.9982,-2.0272,-2.0839,-2.0839,-2.0839,-2.0839,-2.0839,-2.0839,-2.071,-2.0194,-1.9026,-1.7722,-1.7722,-1.7334,-1.6692,-1.6692,-1.6692,-1.6692,-1.6692,-1.6692,-1.6692,-1.6692,-1.6692,-1.6339,-1.3796,-1.2906,-1.1843,-0.6216,-0.4482,-0.3821,-0.0851,0.0,0.0,0.0,0.0,0.0,0.0,0.0,0.0,0.0,0.0,0.0,0.0,0.0,0.0,0.0,0.0,0.0,0.0,0.0,0.0,0.0,0.0,0.0284,0.1135,0.1844,0.2552,0.3401,0.4109,0.4392,0.4392,0.4392,0.4392,0.4392,0.4392,0.4392,0.4392,0.4392,0.4534,0.4534,0.4534,0.4534,0.4534,0.4534,0.4534,-0.9276,-0.9546,-0.9915,-1.0898,-1.1722,-1.219,-1.1703,-1.3315,-1.4659,-1.3867,-1.5034,-1.6317,-1.6712,-1.7029,-1.7153,-1.7251,-1.7271,-1.7271,-1.7271,-1.7271,-1.7444,-1.7629,-1.7844,-1.8056,-1.8341,-1.8565,-1.8756,-1.8941,-1.904,-1.9092,-1.9092,-1.9092,-1.9092,-1.9092,-1.9092,-1.9376,-1.9976,-1.9982,-2.0272,-2.0839,-2.0839,-2.0839,-2.0839,-2.0324,-2.0194,-2.0065,-1.9426,-1.8638,-1.7722,-1.721,-1.6951,-1.6692,-1.6692,-1.6692,-1.6692,-1.6692,-1.6692,-1.6432,-1.4477,-1.3824,-1.3464,-1.087,-0.8739,-0.6679,-0.4974,-0.3083,-0.1275,-0.0284,0.0,0.0,0.0,0.0,0.0,0.0,0.0,0.0,0.0,0.0,0.0,0.0,0.0,0.0,0.0,0.0,0.0,0.0,0.0,0.0142,0.0709,0.0709,0.1276,0.2552,0.2977,0.3401,0.4109,0.4392,0.4534,0.4534,0.4534,0.4534,0.4534,0.4534,0.4534,0.4534,0.4534,0.4517,0.448,0.448,0.45,0.4534,0.4534,0.4534,-0.9546,-0.9933,-1.0327,-1.0643,-1.1926,-1.2816,-1.1477,-1.3419,-1.5289,-1.4394,-1.5496,-1.6739,-1.7035,-1.714,-1.7271,-1.7271,-1.7271,-1.7271,-1.7271,-1.7464,-1.7589,-1.7884,-1.8089,-1.8262,-1.8644,-1.8769,-1.8901,-1.9079,-1.9092,-1.9092,-1.9092,-1.9092,-1.9092,-1.9092,-1.9092,-1.9277,-1.9659,-1.9877,-2.0272,-2.0839,-2.0839,-2.071,-2.0453,-2.0065,-1.9678,-1.9426,-1.8515,-1.7862,-1.7334,-1.6951,-1.6692,-1.6692,-1.6692,-1.6038,-1.526,-1.6303,-1.5385,-1.356,-1.278,-1.1741,-1.058,-0.7911,-0.5745,-0.393,-0.3158,-0.1532,0.0,0.0,0.0,0.0,0.0,0.0,0.0,0.0,0.0,0.0,0.0,0.0,0.0,0.0,0.0,0.0,0.0,0.0,0.0,0.0,0.0284,0.0567,0.1135,0.1418,0.2127,0.3401,0.3528,0.3661,0.4364,0.4485,0.4333,0.4333,0.4333,0.4333,0.4333,0.4333,0.4333,0.4333,0.4333,0.4456,0.4421,0.4421,0.4439,0.4333,0.4333,0.4485,-0.9788,-1.0456,-1.0772,-1.0127,-1.1702,-1.3222,-1.2413,-1.4015,-1.5731,-1.6396,-1.6745,-1.7042,-1.7218,-1.7271,-1.7271,-1.7271,-1.7271,-1.7271,-1.7271,-1.7616,-1.791,-1.7924,-1.8328,-1.8684,-1.8697,-1.8934,-1.9092,-1.9092,-1.9092,-1.9092,-1.9092,-1.9092,-1.9092,-1.9092,-1.9092,-1.9092,-1.9092,-1.9686,-2.0272,-2.0839,-2.071,-2.0453,-1.9814,-1.9807,-1.9426,-1.865,-1.7345,-1.6692,-1.6692,-1.6562,-1.6432,-1.6432,-1.6298,-1.4607,-1.2521,-1.5256,-1.2906,-0.8738,-1.1217,-1.0303,-0.7696,-0.4832,-0.3826,-0.3345,-0.0815,0.0,0.0,0.0,0.0,0.0,0.0,0.0,0.0,0.0,0.0,0.0,0.0,0.0,0.0,0.0,0.0,0.0,0.0,0.0,0.0,0.0,0.0709,0.1133,0.1274,0.1982,0.2689,0.3394,0.3359,0.3614,0.4448,0.4398,0.4228,0.4228,0.4228,0.4228,0.4228,0.4228,0.4228,0.4228,0.4222,0.422,0.4224,0.4224,0.4226,0.4228,0.4228,0.4395,-1.0043,-1.1062,-1.1681,-1.2551,-1.3489,-1.425,-1.4544,-1.5456,-1.6376,-1.6745,-1.7055,-1.7179,-1.7251,-1.7271,-1.7271,-1.7271,-1.7271,-1.7271,-1.7271,-1.7616,-1.7983,-1.8097,-1.8453,-1.8763,-1.8967,-1.9046,-1.9092,-1.9092,-1.9092,-1.9092,-1.9092,-1.9092,-1.9092,-1.9092,-1.9092,-1.9092,-1.9092,-1.9686,-2.0272,-2.0839,-2.0324,-1.9936,-1.9807,-1.8762,-1.7857,-1.7215,-1.6821,-1.6692,-1.6562,-1.4347,-1.3564,-1.3304,-1.1343,-1.004,-0.9519,-1.017,-0.9519,-0.8217,-0.6656,-0.5745,-0.4701,-0.1961,-0.1056,-0.0937,-0.0272,0.0,0.0,0.0,0.0,0.0,0.0,0.0,0.0,0.0,0.0,0.0,0.0,0.0,0.0,0.0,0.0,0.0,0.0,0.0,0.0141,0.07,0.0839,0.1393,0.2621,0.2893,0.3306,0.3995,0.3983,0.4113,0.425,0.4237,0.4228,0.4228,0.4228,0.4228,0.4228,0.4228,0.4228,0.4228,0.4278,0.4255,0.4298,0.4298,0.4321,0.4228,0.4228,0.4236,-0.977,-1.1267,-1.1889,-1.1248,-1.2791,-1.4253,-1.3233,-1.4866,-1.6574,-1.6871,-1.7167,-1.7271,-1.7271,-1.7271,-1.7271,-1.7271,-1.7271,-1.7271,-1.7271,-1.7728,-1.8162,-1.8216,-1.8604,-1.8921,-1.9079,-1.9092,-1.9092,-1.9092,-1.9092,-1.9092,-1.9092,-1.9092,-1.9092,-1.9092,-1.9092,-1.8856,-1.862,-1.9186,-1.9629,-2.0071,-1.9951,-1.9549,-1.8897,-1.811,-1.7334,-1.6692,-1.6692,-1.6038,-1.4737,-1.3044,-1.1741,-1.0433,-0.8999,-0.7566,-0.6656,-0.7957,-0.6784,-0.4569,-0.418,-0.3267,-0.2092,-0.0523,0.0,0.0,0.0,0.0,0.0,0.0,0.0,0.0,0.0,0.0,0.0,0.0,0.0,0.0,0.0,0.0,0.0,0.0,0.0,0.0,0.0,0.0279,0.0556,0.0966,0.1517,0.2338,0.3139,0.3545,0.3819,0.4228,0.4342,0.4326,0.4326,0.4302,0.4288,0.4288,0.4288,0.4288,0.4288,0.4288,0.4288,0.4288,0.4223,0.4335,0.4237,0.4237,0.4255,0.4288,0.4288,0.4301,-0.9048,-1.1114,-1.1862,-0.9244,-1.1454,-1.3631,-1.0822,-1.3203,-1.617,-1.6393,-1.6662,-1.6834,-1.6834,-1.7049,-1.7271,-1.7271,-1.7271,-1.7271,-1.7271,-1.7873,-1.8235,-1.8235,-1.8743,-1.9092,-1.9092,-1.9092,-1.9092,-1.9092,-1.9092,-1.9092,-1.9092,-1.9092,-1.9092,-1.9092,-1.9092,-1.8738,-1.8028,-1.8564,-1.8838,-1.8974,-1.941,-1.9026,-1.7722,-1.7592,-1.7075,-1.6173,-1.6173,-1.4477,-1.1871,-1.1481,-0.9913,-0.7696,-0.7436,-0.5743,-0.379,-0.6263,-0.4178,-0.0392,-0.2745,-0.1961,0.0,0.0,0.0,0.0,0.0,0.0,0.0,0.0,0.0,0.0,0.0,0.0,0.0,0.0,0.0,0.0,0.0,0.0,0.0,0.0,0.0,0.0,0.0,0.0545,0.109,0.1224,0.2448,0.3262,0.3392,0.3934,0.4341,0.4341,0.4296,0.4265,0.4265,0.4217,0.4319,0.4319,0.4319,0.4319,0.4319,0.4319,0.4319,0.4319,0.4319,0.4319,0.4319,0.4319,0.4319,0.4319,0.4319,0.4216,-0.8348,-1.036,-1.2074,-1.3216,-1.2816,-1.2213,-1.2377,-1.3237,-1.4049,-1.4287,-1.4414,-1.4446,-1.4446,-1.5961,-1.7271,-1.7271,-1.7271,-1.7271,-1.7271,-1.7873,-1.8235,-1.8235,-1.8743,-1.9092,-1.9092,-1.9092,-1.9092,-1.9092,-1.9092,-1.9092,-1.9092,-1.9092,-1.9092,-1.9092,-1.9092,-1.8738,-1.8028,-1.8564,-1.8597,-1.8231,-1.8779,-1.8515,-1.7722,-1.708,-1.5515,-1.3174,-1.3174,-1.1607,-0.8868,-0.6526,-0.5225,-0.4572,-0.2352,-0.1177,-0.0785,-0.1307,-0.0785,-0.0131,-0.0523,-0.0392,0.0,0.0,0.0,0.0,0.0,0.0,0.0,0.0,0.0,0.0,0.0,0.0,0.0,0.0,0.0,0.0,0.0,0.0,0.0,0.0,0.0,0.0,0.0,0.0545,0.1358,0.2552,0.295,0.3339,0.396,0.4219,0.4219,0.4219,0.4341,0.4334,0.4334,0.4326,0.4319,0.4319,0.4319,0.4319,0.4319,0.4319,0.4319,0.4319,0.4319,0.4319,0.4319,0.4319,0.4319,0.4319,0.4319,0.4325,-0.8773,-1.0602,-1.2223,-1.335,-1.2687,-1.1574,-1.1464,-1.1553,-1.1669,-1.1969,-1.2051,-1.2051,-1.2051,-1.3896,-1.553,-1.553,-1.6511,-1.7271,-1.7271,-1.7873,-1.8235,-1.8235,-1.8743,-1.9092,-1.9092,-1.9092,-1.9092,-1.9092,-1.9092,-1.9092,-1.9092,-1.9092,-1.8856,-1.8502,-1.8502,-1.8147,-1.7212,-1.76,-1.773,-1.7618,-1.7625,-1.7727,-1.7722,-1.708,-1.5126,-1.2391,-1.0957,-0.8741,-0.6004,-0.4703,-0.3267,-0.183,-0.0523,0.0,0.0,0.0,0.0,0.0,0.0,0.0,0.0,0.0,0.0,0.0,0.0,0.0,0.0,0.0,0.0,0.0,0.0,0.0,0.0,0.0,0.0,0.0,0.0,0.0,0.0,0.0,0.0,0.0,0.0,0.0534,0.1465,0.2911,0.3437,0.3825,0.4192,0.4319,0.4319,0.4319,0.4319,0.4319,0.4319,0.4319,0.4319,0.4319,0.4319,0.4319,0.4319,0.4319,0.4319,0.4319,0.4319,0.4319,0.4319,0.4319,0.4319,0.4319,0.4319,0.4319,-0.9117,-1.0935,-1.2325,-1.267,-1.2475,-1.1984,-1.085,-0.9806,-0.9166,-0.9018,-0.9746,-1.0313,-0.988,-1.1943,-1.3686,-1.3141,-1.4657,-1.5961,-1.6505,-1.6643,-1.7094,-1.8122,-1.8273,-1.8495,-1.8968,-1.9092,-1.9092,-1.9092,-1.9092,-1.9092,-1.9092,-1.9092,-1.8738,-1.8147,-1.8028,-1.7561,-1.6387,-1.6751,-1.6874,-1.6879,-1.6725,-1.6951,-1.7463,-1.6951,-1.552,-1.3174,-0.9779,-0.6393,-0.3267,-0.3267,-0.1961,0.0,0.0,0.0,0.0,0.0,0.0,0.0,0.0,0.0,0.0,0.0,0.0,0.0,0.0,0.0,0.0,0.0,0.0,0.0,0.0,0.0,0.0,0.0,0.0,0.0,0.0,0.0,0.0,0.0,0.0,0.0,0.0131,0.0785,0.1701,0.2879,0.3796,0.4319,0.4319,0.4319,0.4319,0.4319,0.4319,0.4319,0.4319,0.4319,0.4319,0.4319,0.4319,0.4319,0.4319,0.4319,0.4319,0.4319,0.4319,0.4319,0.4319,0.4319,0.4319,0.4319,0.4319,0.4319,-0.8441,-1.0529,-1.2378,-1.2849,-1.3595,-1.3907,-1.2935,-0.9601,-0.624,-0.4453,-0.7527,-0.988,-0.7717,-1.0862,-1.3141,-1.1074,-1.0962,-1.1831,-1.3794,-1.2627,-1.3224,-1.7777,-1.6751,-1.6584,-1.885,-1.9092,-1.9092,-1.9092,-1.9092,-1.9092,-1.9092,-1.9092,-1.8738,-1.8147,-1.8028,-1.7561,-1.6387,-1.6751,-1.6625,-1.601,-1.6475,-1.6692,-1.6821,-1.6692,-1.6562,-1.6038,-1.069,-0.535,-0.0392,-0.0392,-0.0262,0.0,0.0,0.0,0.0,0.0,0.0,0.0,0.0,0.0,0.0,0.0,0.0,0.0,0.0,0.0,0.0,0.0,0.0,0.0,0.0,0.0,0.0,0.0,0.0,0.0,0.0,0.0,0.0,0.0,0.0,0.0131,0.0785,0.157,0.2225,0.301,0.3796,0.4319,0.4319,0.4319,0.4319,0.4319,0.4319,0.4319,0.4319,0.4319,0.4319,0.4319,0.4319,0.4319,0.4319,0.4319,0.4319,0.4319,0.4319,0.4319,0.4319,0.4319,0.4319,0.4319,0.4319,0.4319,-0.7824,-1.0007,-1.1952,-1.2183,-1.3152,-1.3636,-1.2295,-1.1991,-1.1011,-0.7995,-0.6825,-0.6001,-0.5041,-0.7559,-0.9422,-0.8467,-0.949,-1.0854,-1.1723,-1.1298,-1.2182,-1.5709,-1.5561,-1.6295,-1.883,-1.9092,-1.9092,-1.9092,-1.8738,-1.8502,-1.8502,-1.8153,-1.7679,-1.7093,-1.6974,-1.6619,-1.5782,-1.6139,-1.6253,-1.5891,-1.6475,-1.6692,-1.6692,-1.6692,-1.5779,-1.3953,-1.1737,-0.7699,-0.2353,-0.0654,0.0,0.0,0.0,0.0,0.0,0.0,0.0,0.0,0.0,0.0,0.0,0.0,0.0,0.0,0.0,0.0,0.0,0.0,0.0,0.0,0.0,0.0,0.0,0.0,0.0,0.0,0.0,0.0,0.0,0.0,0.0262,0.0654,0.0916,0.1962,0.2748,0.301,0.3796,0.4319,0.4319,0.4319,0.4319,0.4319,0.4319,0.4319,0.4319,0.4319,0.4319,0.4319,0.4319,0.4319,0.4319,0.4319,0.4319,0.4319,0.4319,0.4319,0.4319,0.4319,0.4319,0.4319,0.4319,0.4319,-0.7005,-0.9104,-1.0953,-1.1125,-1.2428,-1.332,-1.2446,-1.2434,-1.1944,-0.9372,-0.6507,-0.433,-0.3609,-0.5358,-0.6666,-0.595,-0.731,-0.8689,-0.9339,-0.9038,-1.0196,-1.4336,-1.3636,-1.455,-1.8706,-1.8252,-1.8016,-1.8738,-1.8147,-1.7798,-1.7798,-1.7443,-1.6613,-1.5188,-1.5906,-1.5669,-1.4227,-1.54,-1.5886,-1.5891,-1.6475,-1.5909,-1.4209,-1.5126,-1.3953,-1.1217,-1.0306,-0.7701,-0.392,-0.1177,0.0,0.0,0.0,0.0,0.0,0.0,0.0,0.0,0.0,0.0,0.0,0.0,0.0,0.0,0.0,0.0,0.0,0.0,0.0,0.0,0.0,0.0,0.0,0.0,0.0,0.0,0.0,0.0131,0.0262,0.0262,0.0785,0.1439,0.157,0.2486,0.314,0.3402,0.3927,0.4319,0.4319,0.4319,0.4319,0.4319,0.4319,0.4319,0.4319,0.4319,0.4319,0.4319,0.4319,0.4319,0.4319,0.4319,0.4319,0.4319,0.4319,0.4319,0.4319,0.4319,0.4319,0.4319,0.4319,0.4319,-0.5875,-0.768,-0.9279,-0.9929,-1.1578,-1.3258,-1.4128,-0.9883,-0.5834,-0.6327,-0.6641,-0.6139,-0.3919,-0.5307,-0.6044,-0.3931,-0.3558,-0.4359,-0.6743,-0.5082,-0.6398,-1.3879,-1.0531,-1.0697,-1.8345,-1.6235,-1.5405,-1.791,-1.7561,-1.733,-1.733,-1.733,-1.5771,-1.2544,-1.4945,-1.4832,-1.1481,-1.442,-1.5886,-1.5891,-1.6475,-1.3815,-0.8475,-1.1217,-1.0957,-0.8217,-0.5354,-0.4182,-0.392,-0.1177,0.0,0.0,0.0,0.0,0.0,0.0,0.0,0.0,0.0,0.0,0.0,0.0,0.0,0.0,0.0,0.0,0.0,0.0,0.0,0.0,0.0,0.0,0.0,0.0,0.0,0.0,0.0,0.0523,0.0916,0.0916,0.157,0.2355,0.301,0.314,0.3402,0.4188,0.4319,0.4319,0.4319,0.4319,0.4319,0.4319,0.4319,0.4319,0.4319,0.4319,0.4319,0.4319,0.4319,0.4319,0.4319,0.4319,0.4319,0.4319,0.4319,0.4319,0.4319,0.4319,0.4319,0.4319,0.4319,0.4319,-0.466,-0.6035,-0.7476,-0.7805,-0.8552,-0.945,-1.008,-0.9,-0.7469,-0.6401,-0.627,-0.5706,-0.3615,-0.398,-0.4307,-0.3619,-0.345,-0.3707,-0.4466,-0.3941,-0.488,-0.8759,-0.7799,-0.9063,-1.4642,-1.2654,-1.2179,-1.4682,-1.2654,-1.1342,-1.1342,-1.087,-1.0155,-0.9205,-0.992,-0.9805,-0.8847,-1.1822,-1.2374,-1.0505,-1.0827,-1.0073,-0.8345,-0.9259,-0.9129,-0.8345,-0.7436,-0.5876,-0.4051,-0.3137,-0.17,0.0,0.0,0.0,0.0,0.0,0.0,0.0,0.0,0.0,0.0,0.0,0.0,0.0,0.0,0.0,0.0,0.0,0.0,0.0,0.0,0.0,0.0,0.0,0.0,0.0,0.0,0.0131,0.0392,0.0916,0.157,0.2355,0.301,0.3533,0.4057,0.4188,0.4319,0.4319,0.4319,0.4319,0.4319,0.4319,0.4319,0.4319,0.4319,0.4319,0.4319,0.4319,0.4319,0.4319,0.4319,0.4319,0.4319,0.4319,0.4319,0.4319,0.4319,0.4319,0.4319,0.4319,0.4319,0.4319,-0.3287,-0.4434,-0.5751,-0.6028,-0.583,-0.5681,-0.6095,-0.6317,-0.6098,-0.5069,-0.4866,-0.4564,-0.3379,-0.3263,-0.3387,-0.3476,-0.3417,-0.3464,-0.3486,-0.3489,-0.4303,-0.6601,-0.5829,-0.7053,-1.1789,-0.9556,-0.8841,-1.1338,-0.9434,-0.8245,-0.8245,-0.777,-0.7176,-0.6223,-0.7057,-0.7176,-0.6223,-0.9187,-0.8706,-0.501,-0.7231,-0.7206,-0.522,-0.6265,-0.6133,-0.522,-0.522,-0.4179,-0.2484,-0.2484,-0.1569,0.0,0.0,0.0,0.0,0.0,0.0,0.0,0.0,0.0,0.0,0.0,0.0,0.0,0.0,0.0,0.0,0.0,0.0,0.0,0.0,0.0,0.0,0.0,0.0,0.0,0.0,0.0392,0.0916,0.1308,0.2225,0.301,0.3533,0.3927,0.4319,0.4319,0.4319,0.4319,0.4319,0.4319,0.4319,0.4319,0.4319,0.4319,0.4319,0.4319,0.4319,0.4319,0.4319,0.4319,0.4319,0.4319,0.4319,0.4319,0.4319,0.4319,0.4319,0.4319,0.4319,0.4319,0.4319,0.4319,-0.1907,-0.294,-0.4054,-0.4523,-0.3455,-0.2386,-0.2491,-0.249,-0.2606,-0.2797,-0.2813,-0.2742,-0.3004,-0.323,-0.3237,-0.3314,-0.3364,-0.3523,-0.3474,-0.3479,-0.4397,-0.6806,-0.4452,-0.4625,-0.9638,-0.6694,-0.5621,-0.8004,-0.7529,-0.7057,-0.7057,-0.7057,-0.5983,-0.3715,-0.5864,-0.5983,-0.3596,-0.6317,-0.5058,0.0,-0.5326,-0.5017,-0.0131,-0.2615,-0.2353,0.0,0.0,0.0,0.0,0.0,0.0,0.0,0.0,0.0,0.0,0.0,0.0,0.0,0.0,0.0,0.0,0.0,0.0,0.0,0.0,0.0,0.0,0.0,0.0,0.0,0.0,0.0,0.0,0.0,0.0,0.0,0.0,0.1177,0.2094,0.2225,0.3271,0.4188,0.4319,0.4319,0.4319,0.4319,0.4319,0.4319,0.4319,0.4319,0.4319,0.4319,0.4319,0.4319,0.4319,0.4319,0.4319,0.4319,0.4319,0.4319,0.4319,0.4319,0.4319,0.4319,0.4319,0.4319,0.4319,0.4319,0.4319,0.4319,0.4319,0.4319,-0.1917,-0.2254,-0.2638,-0.2747,-0.2523,-0.2386,-0.2491,-0.2521,-0.2531,-0.26,-0.2556,-0.2615,-0.2739,-0.2948,-0.312,-0.3403,-0.3383,-0.3354,-0.352,-0.3383,-0.3397,-0.3624,-0.3011,-0.3527,-0.5748,-0.357,-0.2757,-0.4791,-0.2995,-0.1798,-0.1798,-0.1798,-0.1559,-0.096,-0.1439,-0.1439,-0.096,-0.3647,-0.3333,0.0,-0.1384,-0.1277,0.0,-0.0654,-0.0654,0.0,0.0,0.0,0.0,0.0,0.0,0.0,0.0,0.0,0.0,0.0,0.0,0.0,0.0,0.0,0.0,0.0,0.0,0.0,0.0,0.0,0.0,0.0,0.0,0.0,0.0,0.0,0.0,0.0,0.0,0.0131,0.0654,0.1047,0.157,0.2617,0.314,0.3533,0.4188,0.4319,0.4319,0.4319,0.4319,0.4319,0.4319,0.4319,0.4319,0.4319,0.4319,0.4319,0.4319,0.4319,0.4319,0.4319,0.4319,0.4319,0.4319,0.4319,0.4319,0.4319,0.4319,0.4319,0.4319,0.4319,0.4319,0.4319,0.4319,0.4319,-0.1921,-0.2025,-0.2132,-0.2137,-0.2184,-0.2259,-0.2382,-0.241,-0.2434,-0.2515,-0.2515,-0.247,-0.2719,-0.2801,-0.2924,-0.3168,-0.3043,-0.2892,-0.3072,-0.2972,-0.2891,-0.2639,-0.2574,-0.2967,-0.3742,-0.2021,-0.144,-0.2518,-0.096,0.0,0.0,0.0,0.0,0.0,0.0,0.0,0.0,-0.1451,-0.1468,0.0,0.0,0.0,0.0,0.0,0.0,0.0,0.0,0.0,0.0,0.0,0.0,0.0,0.0,0.0,0.0,0.0,0.0,0.0,0.0,0.0,0.0,0.0,0.0,0.0,0.0,0.0,0.0,0.0,0.0,0.0,0.0,0.0,0.0,0.0,0.0262,0.0523,0.0916,0.1439,0.2225,0.301,0.3402,0.3796,0.4188,0.4319,0.4319,0.4319,0.4319,0.4319,0.4319,0.4319,0.4319,0.4319,0.4319,0.4319,0.4319,0.4319,0.4319,0.4319,0.4319,0.4319,0.4319,0.4319,0.4319,0.4319,0.4319,0.4319,0.4319,0.4319,0.4319,0.4319,0.4319,0.4319,-0.1921,-0.204,-0.215,-0.2092,-0.2121,-0.211,-0.216,-0.2247,-0.2294,-0.2361,-0.2331,-0.2413,-0.2601,-0.2671,-0.2732,-0.2824,-0.267,-0.2443,-0.2527,-0.2465,-0.2395,-0.2546,-0.2594,-0.2526,-0.2451,-0.1544,-0.096,-0.084,-0.036,0.0,0.0,0.0,0.0,0.0,0.0,0.0,0.0,0.0,0.0,0.0,0.0,0.0,0.0,0.0,0.0,0.0,0.0,0.0,0.0,0.0,0.0,0.0,0.0,0.0,0.0,0.0,0.0,0.0,0.0,0.0,0.0,0.0,0.0,0.0,0.0,0.0,0.0,0.0,0.0,0.0,0.0,0.0131,0.0131,0.0131,0.0654,0.1177,0.1308,0.2225,0.314,0.3271,0.3796,0.4319,0.4319,0.4319,0.4319,0.4319,0.4319,0.4319,0.4319,0.4319,0.4319,0.4319,0.4319,0.4319,0.4319,0.4319,0.4319,0.4319,0.4319,0.4319,0.4319,0.4319,0.4319,0.4319,0.4319,0.4319,0.4319,0.4319,0.4319,0.4319,0.4319,0.4319,-0.1921,-0.201,-0.2091,-0.1717,-0.187,-0.1976,-0.1458,-0.1754,-0.2119,-0.1897,-0.2124,-0.2351,-0.2409,-0.2536,-0.2692,-0.2581,-0.2847,-0.2896,-0.2585,-0.2085,-0.1787,-0.1924,-0.1872,-0.1693,-0.1148,-0.1062,-0.072,-0.024,0.0,0.0,0.0,0.0,0.0,0.0,0.0,0.0,0.0,0.0,0.0,0.0,0.0,0.0,0.0,0.0,0.0,0.0,0.0,0.0,0.0,0.0,0.0,0.0,0.0,0.0,0.0,0.0,0.0,0.0,0.0,0.0,0.0,0.0,0.0,0.0,0.0,0.0,0.0,0.0,0.0,0.0,0.0,0.0392,0.0785,0.0785,0.1439,0.2094,0.2617,0.301,0.3271,0.3927,0.4188,0.4319,0.4319,0.4319,0.4319,0.4319,0.4319,0.4319,0.4319,0.4319,0.4319,0.4319,0.4319,0.4319,0.4319,0.4319,0.4319,0.4319,0.4319,0.4319,0.4319,0.4319,0.4319,0.4319,0.4319,0.4319,0.4319,0.4319,0.4319,0.4319,0.4319,0.4319,-0.1961,-0.2075,-0.2105,-0.1652,-0.177,-0.1833,-0.1572,-0.1569,-0.1566,-0.1441,-0.1552,-0.167,-0.1695,-0.1802,-0.1902,-0.1874,-0.2125,-0.2185,-0.2071,-0.1846,-0.1586,-0.129,-0.1554,-0.159,-0.1373,-0.1061,-0.084,-0.06,-0.024,0.0,0.0,0.0,0.0,0.0,0.0,0.0,0.0,0.0,0.0,0.0,0.0,0.0,0.0,0.0,0.0,0.0,0.0,0.0,0.0,0.0,0.0,0.0,0.0,0.0,0.0,0.0,0.0,0.0,0.0,0.0,0.0,0.0,0.0,0.0,0.0,0.0,0.0,0.0,0.0,0.0,0.0,0.0523,0.0916,0.0916,0.1832,0.2748,0.301,0.3402,0.3796,0.4188,0.4319,0.4319,0.4319,0.4319,0.4319,0.4319,0.4319,0.4319,0.4319,0.4319,0.4319,0.4319,0.4319,0.4319,0.4319,0.4319,0.4319,0.4319,0.4319,0.4319,0.4319,0.4319,0.4319,0.4319,0.4319,0.4319,0.4319,0.4319,0.4319,0.4319,0.4319,0.4319,-0.1938,0.0,-0.2082,-0.1618,-0.1505,-0.1531,0.0,-0.1282,-0.1132,-0.1016,-0.1098,-0.1128,-0.1105,-0.1148,-0.1202,-0.1277,-0.1447,-0.1442,-0.1319,-0.1505,-0.1475,-0.0865,-0.1116,-0.1368,-0.1374,-0.0943,-0.072,-0.072,-0.024,0.0,0.0,0.0,0.0,0.0,0.0,0.0,0.0,0.0,0.0,0.0,0.0,0.0,0.0,0.0,0.0,0.0,0.0,0.0,0.0,0.0,0.0,0.0,0.0,0.0,0.0,0.0,0.0,0.0,0.0,0.0,0.0,0.0,0.0,0.0,0.0,0.0,0.0,0.0131,0.0131,0.0131,0.0392,0.0916,0.1308,0.1439,0.2486,0.3402,0.3402,0.3796,0.4319,0.4319,0.4319,0.4319,0.4319,0.4319,0.4319,0.4319,0.4319,0.4319,0.4319,0.4319,0.4319,0.4319,0.4319,0.4319,0.4319,0.4319,0.4319,0.4319,0.4319,0.4319,0.4319,0.4319,0.4319,0.4319,0.4319,0.4319,0.4319,0.4319,0.4319,0.4319,0.4319,0.4319,0.0,-0.1785,-0.1671,-0.1288,-0.1096,-0.0974,-0.0861,-0.0897,0.0,-0.0702,-0.0929,-0.1115,-0.0988,-0.1052,-0.1189,-0.1145,-0.1302,-0.1216,-0.0737,-0.1155,-0.141,-0.0848,-0.0439,-0.0113,-0.0114,-0.0118,-0.012,-0.012,0.0,0.0,0.0,0.0,0.0,0.0,0.0,0.0,0.0,0.0,0.0,0.0,0.0,0.0,0.0,0.0,0.0,0.0,0.0,0.0,0.0,0.0,0.0,0.0,0.0,0.0,0.0,0.0,0.0,0.0,0.0,0.0,0.0,0.0,0.0,0.0,0.0,0.0,0.0131,0.0785,0.0523,0.0262,0.1701,0.1962,0.2225,0.2879,0.3533,0.4188,0.4188,0.4188,0.4319,0.4319,0.4319,0.4319,0.4319,0.4319,0.4319,0.4319,0.4319,0.4319,0.4319,0.4319,0.4319,0.4319,0.4319,0.4319,0.4319,0.4319,0.4319,0.4319,0.4319,0.4319,0.4319,0.4319,0.4319,0.4319,0.4319,0.4319,0.4319,0.4319,0.4319,0.4319,0.4319,0.4319,-0.1629,-0.1664,-0.167,-0.1019,-0.0753,-0.0716,-0.068,-0.0512,-0.0364,-0.0237,-0.0364,-0.0442,-0.04,-0.0419,-0.0442,-0.0473,-0.0495,-0.0519,-0.0643,-0.0678,-0.0607,-0.0731,-0.0327,0.0,0.0,0.0,0.0,0.0,0.0,0.0,0.0,0.0,0.0,0.0,0.0,0.0,0.0,0.0,0.0,0.0,0.0,0.0,0.0,0.0,0.0,0.0,0.0,0.0,0.0,0.0,0.0,0.0,0.0,0.0,0.0,0.0,0.0,0.0,0.0,0.0,0.0,0.0,0.0,0.0,0.0,0.0,0.0131,0.0785,0.0785,0.0785,0.1832,0.2486,0.2748,0.301,0.3665,0.4319,0.4319,0.4319,0.4319,0.4319,0.4319,0.4319,0.4319,0.4319,0.4319,0.4319,0.4319,0.4319,0.4319,0.4319,0.4319,0.4319,0.4319,0.4319,0.4319,0.4319,0.4319,0.4319,0.4319,0.4319,0.4319,0.4319,0.4319,0.4319,0.4319,0.4319,0.4319,0.4319,0.4319,0.4319,0.4319,0.4319,-0.1299,-0.1317,-0.1399,-0.0804,-0.0543,-0.0446,-0.0636,-0.0333,0.0,0.0,0.0,0.0,0.0,0.0,0.0,0.0,0.0,-0.0086,-0.0463,-0.0387,-0.0301,-0.0517,-0.0322,-0.0222,0.0,0.0,0.0,0.0,0.0,0.0,0.0,0.0,0.0,0.0,0.0,0.0,0.0,0.0,0.0,0.0,0.0,0.0,0.0,0.0,0.0,0.0,0.0,0.0,0.0,0.0,0.0,0.0,0.0,0.0,0.0,0.0,0.0,0.0,0.0,0.0,0.0,0.0,0.0,0.0,0.0,0.0,0.0131,0.0523,0.0785,0.1308,0.2486,0.301,0.314,0.3402,0.3927,0.4319,0.4319,0.4319,0.4319,0.4319,0.4319,0.4319,0.4319,0.4319,0.4319,0.4319,0.4319,0.4319,0.4319,0.4319,0.4319,0.4319,0.4319,0.4319,0.4319,0.4319,0.4319,0.4319,0.4319,0.4319,0.4319,0.4319,0.4319,0.4319,0.4319,0.4319,0.4319,0.4319,0.4319,0.4319,0.4319,0.4319,-0.0737,-0.0666,-0.0757,-0.0741,-0.0402,-0.0156,-0.067,-0.0361,0.0,0.0,0.0,0.0,0.0,0.0,0.0,0.0,0.0,0.0,0.0,-0.0477,-0.0585,-0.0103,-0.0421,-0.0536,0.0,0.0,0.0,0.0,0.0,0.0,0.0,0.0,0.0,0.0,0.0,0.0,0.0,0.0,0.0,0.0,0.0,0.0,0.0,0.0,0.0,0.0,0.0,0.0,0.0,0.0,0.0,0.0,0.0,0.0,0.0,0.0,0.0,0.0,0.0,0.0,0.0,0.0,0.0,0.0,0.0,0.0,0.0,0.0,0.0523,0.1439,0.3665,0.3665,0.3271,0.4057,0.4319,0.4319,0.4319,0.4319,0.4319,0.4319,0.4319,0.4319,0.4319,0.4319,0.4319,0.4319,0.4319,0.4319,0.4319,0.4319,0.4319,0.4319,0.4319,0.4319,0.4319,0.4319,0.4319,0.4319,0.4319,0.4319,0.4319,0.4319,0.4319,0.4319,0.4319,0.4319,0.4319,0.4319,0.4319,0.4319,0.4319,0.4319,-0.0918,-0.0749,-0.066,-0.0328,-0.008,-0.0078,-0.0228,-0.0146,0.0,0.0,0.0,0.0,0.0,0.0,0.0,0.0,0.0,0.0,0.0,-0.0098,-0.0205,0.0,-0.0107,-0.0217,0.0,0.0,0.0,0.0,0.0,0.0,0.0,0.0,0.0,0.0,0.0,0.0,0.0,0.0,0.0,0.0,0.0,0.0,0.0,0.0,0.0,0.0,0.0,0.0,0.0,0.0,0.0,0.0,0.0,0.0,0.0,0.0,0.0,0.0,0.0,0.0,0.0,0.0,0.0,0.0,0.0,0.0262,0.0654,0.0654,0.157,0.2617,0.3271,0.3665,0.3927,0.4188,0.4319,0.4319,0.4319,0.4319,0.4319,0.4319,0.4319,0.4319,0.4319,0.4319,0.4319,0.4319,0.4319,0.4319,0.4319,0.4319,0.4319,0.4319,0.4319,0.4319,0.4319,0.4319,0.4319,0.4319,0.4319,0.4319,0.4319,0.4319,0.4319,0.4319,0.4319,0.4319,0.4319,0.4319,0.4319,0.4319,0.4319,0.4319,-0.0584,-0.0499,-0.0414,-0.0082,0.0,0.0,0.0,0.0,0.0,0.0,0.0,0.0,0.0,0.0,0.0,0.0,0.0,0.0,0.0,0.0,0.0,0.0,0.0,0.0,0.0,0.0,0.0,0.0,0.0,0.0,0.0,0.0,0.0,0.0,0.0,0.0,0.0,0.0,0.0,0.0,0.0,0.0,0.0,0.0,0.0,0.0,0.0,0.0,0.0,0.0,0.0,0.0,0.0,0.0,0.0,0.0,0.0,0.0,0.0,0.0,0.0,0.0,0.0,0.0,0.0262,0.0654,0.1047,0.1308,0.2225,0.314,0.314,0.3665,0.4319,0.4319,0.4319,0.4319,0.4319,0.4319,0.4319,0.4319,0.4319,0.4319,0.4319,0.4319,0.4319,0.4319,0.4319,0.4319,0.4319,0.4319,0.4319,0.4319,0.4319,0.4319,0.4319,0.4319,0.4319,0.4319,0.4319,0.4319,0.4319,0.4319,0.4319,0.4319,0.4319,0.4319,0.4319,0.4319,0.4319,0.4319,0.4319,0.4319,0.0,0.0,0.0,0.0,0.0,0.0,0.0,0.0,0.0,0.0,0.0,0.0,0.0,0.0,0.0,0.0,0.0,0.0,0.0,0.0,0.0,0.0,0.0,0.0,0.0,0.0,0.0,0.0,0.0,0.0,0.0,0.0,0.0,0.0,0.0,0.0,0.0,0.0,0.0,0.0,0.0,0.0,0.0,0.0,0.0,0.0,0.0,0.0,0.0,0.0,0.0,0.0,0.0,0.0,0.0,0.0,0.0,0.0,0.0,0.0,0.0,0.0,0.0,0.0261,0.0912,0.1043,0.1304,0.2088,0.2743,0.3266,0.327,0.3796,0.4319,0.4319,0.4319,0.4319,0.4319,0.4319,0.4319,0.4319,0.4319,0.4319,0.4319,0.4319,0.4319,0.4319,0.4319,0.4319,0.4319,0.4319,0.4319,0.4319,0.4319,0.4319,0.4319,0.4319,0.4319,0.4319,0.4319,0.4319,0.4319,0.4319,0.4319,0.4319,0.4319,0.4319,0.4319,0.4319,0.4319,0.4319,0.4319,0.4319,-0.0082,0.0,0.0,0.0,0.0,0.0,0.0,0.0,0.0,0.0,0.0,0.0,0.0,0.0,0.0,0.0,0.0,0.0,0.0,0.0,0.0,0.0,0.0,0.0,0.0,0.0,0.0,0.0,0.0,0.0,0.0,0.0,0.0,0.0,0.0,0.0,0.0,0.0,0.0,0.0,0.0,0.0,0.0,0.0,0.0,0.0,0.0,0.0,0.0,0.0,0.0,0.0,0.0,0.0,0.0,0.0,0.0,0.0,0.0,0.0,0.0,0.0,0.0387,0.0887,0.1518,0.2151,0.2537,0.2822,0.3346,0.3872,0.4046,0.4188,0.4319,0.4319,0.4319,0.4319,0.4319,0.4319,0.4319,0.4319,0.4319,0.4319,0.4319,0.4319,0.4319,0.4319,0.4319,0.4319,0.4319,0.4319,0.4319,0.4319,0.4319,0.4319,0.4319,0.4319,0.4319,0.4319,0.4319,0.4319,0.4319,0.4319,0.4319,0.4319,0.4319,0.4319,0.4319,0.4319,0.4319,0.4319,0.4319,0.4319,-0.0083,0.0,0.0,0.0,0.0,0.0,0.0,0.0,0.0,0.0,0.0,0.0,0.0,0.0,0.0,0.0,0.0,0.0,0.0,0.0,0.0,0.0,0.0,0.0,0.0,0.0,0.0,0.0,0.0,0.0,0.0,0.0,0.0,0.0,0.0,0.0,0.0,0.0,0.0,0.0,0.0,0.0,0.0,0.0,0.0,0.0,0.0,0.0,0.0,0.0,0.0,0.0,0.0,0.0,0.0,0.0,0.0,0.0,0.0,0.0,0.0127,0.0767,0.1142,0.1505,0.2256,0.2632,0.3013,0.3416,0.3804,0.4065,0.4223,0.4232,0.4232,0.4232,0.4232,0.4232,0.4232,0.4232,0.4241,0.4141,0.4146,0.4155,0.4314,0.4319,0.4319,0.4319,0.4319,0.4319,0.4319,0.4269,0.4232,0.4232,0.4232,0.4232,0.4232,0.4232,0.4232,0.4232,0.4232,0.4232,0.4232,0.4232,0.4232,0.4232,0.4232,0.4232,0.4232,0.4232,0.4232,0.4232,0.4232,0.4232,0.0,0.0,0.0,0.0,0.0,0.0,0.0,0.0,0.0,0.0,0.0,0.0,0.0,0.0,0.0,0.0,0.0,0.0,0.0,0.0,0.0,0.0,0.0,0.0,0.0,0.0,0.0,0.0,0.0,0.0,0.0,0.0,0.0,0.0,0.0,0.0,0.0,0.0,0.0,0.0,0.0,0.0,0.0,0.0,0.0,0.0,0.0,0.0,0.0,0.0,0.0,0.0,0.0,0.0,0.0,0.0,0.0,0.0,0.0125,0.0125,0.0375,0.1743,0.2115,0.2239,0.2862,0.3111,0.3237,0.3869,0.3996,0.3999,0.4135,0.4137,0.4137,0.4137,0.4137,0.4137,0.4137,0.4137,0.4027,0.4074,0.4085,0.4099,0.4278,0.4288,0.4288,0.4288,0.4288,0.4288,0.4288,0.4199,0.4137,0.4137,0.4137,0.4137,0.4137,0.4137,0.4137,0.4137,0.4137,0.4137,0.4137,0.4137,0.4137,0.4137,0.4137,0.4137,0.4137,0.4137,0.4137,0.4137,0.4137,0.4137,0.0,0.0,0.0,0.0,0.0,0.0,0.0,0.0,0.0,0.0,0.0,0.0,0.0,0.0,0.0,0.0,0.0,0.0,0.0,0.0,0.0,0.0,0.0,0.0,0.0,0.0,0.0,0.0,0.0,0.0,0.0,0.0,0.0,0.0,0.0,0.0,0.0,0.0,0.0,0.0,0.0,0.0,0.0,0.0,0.0,0.0,0.0,0.0,0.0,0.0,0.0,0.0,0.0,0.0,0.0,0.0,0.0,0.0121,0.0613,0.0862,0.1106,0.2304,0.2777,0.2898,0.3502,0.3743,0.3753,0.3922,0.3935,0.3947,0.3999,0.4137,0.4137,0.4137,0.4137,0.4137,0.4137,0.4137,0.4139,0.4023,0.4024,0.4027,0.4161,0.4162,0.4162,0.4162,0.4162,0.4162,0.4162,0.4147,0.4137,0.4137,0.4137,0.4137,0.4137,0.4137,0.4137,0.4137,0.4137,0.4137,0.4137,0.4137,0.4137,0.4137,0.4137,0.4137,0.4137,0.4137,0.4137,0.4137,0.4137,0.4137,0.0,0.0,0.0,0.0,0.0,0.0,0.0,0.0,0.0,0.0,0.0,0.0,0.0,0.0,0.0,0.0,0.0,0.0,0.0,0.0,0.0,0.0,0.0,0.0,0.0,0.0,0.0,0.0,0.0,0.0,0.0,0.0,0.0,0.0,0.0,0.0,0.0,0.0,0.0,0.0,0.0,0.0,0.0,0.0,0.024,0.06,0.06,0.072,0.108,0.108,0.108,0.108,0.108,0.084,0.06,0.096,0.084,0.0601,0.1331,0.1697,0.218,0.3128,0.3481,0.3481,0.3842,0.3842,0.3846,0.3872,0.3878,0.3884,0.391,0.3917,0.3917,0.3917,0.3917,0.3917,0.3917,0.3917,0.3917,0.3917,0.3942,0.3974,0.4132,0.4137,0.4137,0.4137,0.4137,0.4113,0.3925,0.3917,0.3917,0.3917,0.3917,0.3917,0.3917,0.3917,0.3917,0.3917,0.3917,0.3917,0.3917,0.3917,0.3917,0.3917,0.3917,0.3917,0.3917,0.3917,0.3917,0.3917,0.3917,0.3917,0.0,0.0,0.0,0.0,0.0,0.0,0.0,0.0,0.0,0.0,0.0,0.0,0.0,0.0,0.0,0.0,0.0,0.0,0.0,0.0,0.0,0.0,0.0,0.0,0.0,0.0,0.0,0.0,0.0,0.0,0.0,0.0,0.0,0.0,0.0,0.0,0.0,0.0,0.0,0.0,0.0,0.012,0.024,0.024,0.06,0.12,0.12,0.144,0.192,0.192,0.192,0.192,0.192,0.168,0.132,0.18,0.168,0.132,0.216,0.2761,0.3241,0.3722,0.3842,0.3842,0.3842,0.3842,0.3842,0.3842,0.3842,0.3842,0.3842,0.3842,0.3842,0.3842,0.3842,0.3842,0.3842,0.3842,0.3842,0.3842,0.3874,0.3917,0.396,0.4092,0.4092,0.4092,0.4092,0.3938,0.3853,0.3842,0.3842,0.3842,0.3842,0.3842,0.3842,0.3842,0.3842,0.3842,0.3842,0.3842,0.3842,0.3842,0.3842,0.3842,0.3842,0.3842,0.3842,0.3842,0.3842,0.3842,0.3842,0.3842,0.0,0.0,0.0,0.0,0.0,0.0,0.0,0.0,0.0,0.0,0.0,0.0,0.0,0.0,0.0,0.0,0.0,0.0,0.0,0.0,0.0,0.0,0.0,0.0,0.0,0.0,0.0,0.0,0.0,0.0,0.0,0.0,0.0,0.0,0.0,0.0,0.0,0.0,0.0,0.0,0.0,0.036,0.096,0.096,0.132,0.192,0.192,0.192,0.192,0.192,0.192,0.192,0.192,0.192,0.192,0.192,0.192,0.204,0.3361,0.3842,0.3842,0.3842,0.3842,0.3842,0.3842,0.3842,0.3842,0.3842,0.3842,0.3842,0.3842,0.3842,0.3842,0.3842,0.3842,0.3842,0.3842,0.3842,0.3842,0.3842,0.3844,0.3848,0.385,0.385,0.385,0.385,0.385,0.3849,0.3842,0.3842,0.3842,0.3842,0.3842,0.3842,0.3842,0.3842,0.3842,0.3842,0.3842,0.3842,0.3842,0.3842,0.3842,0.3842,0.3842,0.3842,0.3842,0.3842,0.3842,0.3842,0.3842,0.3842,0.0,0.0,0.0,0.0,0.0,0.0,0.0,0.0,0.0,0.0,0.0,0.0,0.0,0.0,0.0,0.0,0.0,0.0,0.0,0.0,0.0,0.0,0.0,0.0,0.0,0.0,0.0,0.0,0.0,0.0,0.0,0.0,0.0,0.0,0.0,0.0,0.0,0.0,0.0,0.0,0.0469,0.0946,0.1419,0.1553,0.192,0.2521,0.2521,0.2761,0.3241,0.3241,0.3241,0.3241,0.3241,0.2881,0.2641,0.3001,0.2881,0.2641,0.3601,0.3842,0.3842,0.3842,0.3842,0.3842,0.3842,0.3842,0.3842,0.3842,0.3842,0.3842,0.3842,0.3842,0.3842,0.3842,0.3842,0.3842,0.3842,0.3842,0.3842,0.3842,0.3842,0.3842,0.3842,0.3842,0.3842,0.3842,0.3842,0.3842,0.3842,0.3842,0.3842,0.3842,0.3842,0.3842,0.3842,0.3842,0.3842,0.3842,0.3842,0.3842,0.3842,0.3842,0.3842,0.3842,0.3842,0.3842,0.3842,0.3842,0.3842,0.3842,0.432,0.4558,0.0,0.0,0.0,0.0,0.0,0.0,0.0,0.0,0.0,0.0,0.0,0.0,0.0,0.0,0.0,0.0,0.0,0.0,0.0,0.0,0.0,0.0,0.0,0.0,0.0,0.0,0.0,0.0,0.0,0.0,0.0,0.0,0.0,0.0,0.0,0.011,0.0222,0.0222,0.0335,0.0568,0.1034,0.1389,0.1746,0.2117,0.2607,0.3217,0.3217,0.3466,0.3842,0.3842,0.3842,0.3842,0.3842,0.3601,0.3241,0.3722,0.3601,0.3361,0.3722,0.3842,0.3842,0.3842,0.3842,0.3842,0.3842,0.3842,0.3842,0.3842,0.3842,0.3842,0.3842,0.3842,0.3842,0.3842,0.3842,0.3842,0.3842,0.3842,0.3842,0.3842,0.3842,0.3842,0.3842,0.3842,0.3842,0.3842,0.3842,0.3842,0.3842,0.4558,0.5513,0.6351,0.6468,0.6468,0.6468,0.5633,0.5513,0.6349,0.5633,0.5513,0.6349,0.6705,0.6825,0.6825,0.6825,0.6825,0.7066,0.6825,0.6825,0.7066,0.754,0.7776,0.0,0.0,0.0,0.0,0.0,0.0,0.0,0.0,0.0,0.0,0.0,0.0,0.0,0.0,0.0,0.0,0.0,0.0,0.0,0.0,0.0,0.0,0.0,0.0,0.0109,0.0109,0.0109,0.0109,0.0109,0.0109,0.0,0.0,0.0,0.0,0.0,0.0327,0.0763,0.0763,0.1099,0.1787,0.1787,0.1802,0.1831,0.2404,0.3118,0.3751,0.3751,0.3784,0.3837,0.3837,0.3837,0.3837,0.3838,0.384,0.384,0.3837,0.3837,0.3837,0.3837,0.3837,0.3837,0.3838,0.384,0.384,0.3841,0.3842,0.3842,0.3842,0.3842,0.3842,0.3842,0.3842,0.3842,0.3842,0.3842,0.3842,0.3842,0.3842,0.3842,0.3842,0.3842,0.3842,0.3842,0.3842,0.3842,0.3842,0.3961,0.4081,0.4081,0.6227,0.8725,1.1223,1.1461,1.1461,1.1461,0.9202,0.8725,1.1342,0.9079,0.8841,1.1342,1.2166,1.2522,1.2522,1.2514,1.2755,1.3358,1.2746,1.2746,1.3348,1.3348,1.3472,0.0,0.0,0.0,0.0,0.0,0.0,0.0,0.0,0.0,0.0,0.0,0.0,0.0,0.0,0.0,0.0,0.0,0.0,0.0,0.0,0.0,0.0,0.0,0.0651,0.2354,0.2916,0.2937,0.2612,0.2937,0.2393,0.0654,0.0545,0.0763,0.1199,0.1308,0.1308,0.1526,0.1526,0.1529,0.1757,0.2086,0.2325,0.2475,0.3039,0.3406,0.369,0.369,0.3699,0.3714,0.3714,0.3714,0.3718,0.3762,0.3779,0.3772,0.373,0.3714,0.3714,0.3714,0.3714,0.3722,0.3764,0.3779,0.3787,0.3829,0.3842,0.3842,0.3842,0.3842,0.3842,0.3842,0.3842,0.3842,0.3842,0.3842,0.3842,0.3842,0.3842,0.3842,0.3842,0.3842,0.3842,0.3842,0.3842,0.3842,0.3842,0.7064,0.9324,0.9324,0.9917,1.0628,1.1342,1.1461,1.1461,1.1461,1.0866,1.0747,1.1461,1.1219,1.1457,1.217,1.2764,1.3125,1.3125,1.2862,1.2785,1.3023,1.2521,1.2335,1.2569,1.3033,1.3468,0.0,0.0,0.0,0.0,0.0,0.0,0.0,0.0,0.0224,0.0928,0.0478,0.0246,0.0925,0.0519,0.0,0.0,0.0,0.0,0.0,0.0,0.0,0.0,0.1466,0.3169,0.4981,0.5311,0.5566,0.5648,0.5107,0.413,0.2721,0.1743,0.1308,0.1744,0.1744,0.1853,0.2071,0.2071,0.218,0.2507,0.2835,0.2959,0.3098,0.3319,0.3559,0.3593,0.3619,0.3642,0.3666,0.3666,0.3666,0.3669,0.3703,0.3717,0.3713,0.3678,0.3666,0.3666,0.3666,0.3666,0.3672,0.3706,0.3717,0.3723,0.3758,0.4473,0.5059,0.4121,0.4473,0.5066,0.4036,0.3805,0.3812,0.3836,0.3842,0.3842,0.3842,0.3842,0.3842,0.3842,0.4678,0.5393,0.5393,0.6349,0.7064,0.7064,1.0516,1.2654,1.158,1.3367,1.4198,1.3248,1.3961,1.4791,1.5028,1.4074,1.3956,1.5378,1.4694,1.4642,1.5703,1.6193,1.6484,1.6484,1.6332,1.6251,1.6594,1.61,1.5911,1.625,1.6594,1.6856,0.0,0.0,0.0,0.0,0.0,0.0,0.0,0.0,0.0424,0.1929,0.1053,0.0462,0.1974,0.1152,0.0248,0.026,0.0269,0.037,0.0567,0.0483,0.0396,0.0614,0.3741,0.6289,0.7563,0.7687,0.8033,0.8946,0.7128,0.5946,0.5743,0.3479,0.2288,0.2288,0.2288,0.2507,0.3052,0.3268,0.3704,0.425,0.425,0.425,0.425,0.425,0.425,0.4253,0.4316,0.4381,0.444,0.4214,0.41,0.3987,0.3767,0.3994,0.444,0.4214,0.4214,0.444,0.41,0.4214,0.4442,0.445,0.4453,0.4455,0.4463,0.5719,0.6742,0.4692,0.5604,0.6766,0.466,0.4326,0.4459,0.4641,0.4655,0.4658,0.4666,0.4786,0.4789,0.4798,0.6705,0.8248,0.8128,1.0033,1.1801,1.2356,1.436,1.5073,1.2702,1.6403,1.8326,1.6184,1.7873,1.9433,1.9988,1.7923,1.778,2.0746,1.8491,1.8125,2.0343,2.0741,2.0914,2.0914,2.0883,2.1204,2.1762,2.1157,2.1142,2.1699,2.1699,2.1502,0.0,0.0,0.0,0.0,0.0,0.0,0.0,0.0,0.0063,0.0401,0.0206,0.0071,0.045,0.1322,0.211,0.2159,0.2077,0.2614,0.4334,0.3372,0.3074,0.4545,0.5304,0.6832,0.9618,1.0013,1.0383,1.0714,1.0826,1.0161,0.8507,0.6366,0.5437,0.5982,0.5982,0.5982,0.6091,0.8039,0.9014,0.9123,0.9123,0.9123,0.9123,0.9123,0.9123,0.9126,0.9157,0.9185,0.8994,0.7138,0.6371,0.6161,0.4245,0.5895,0.8994,0.7029,0.7574,0.8885,0.7029,0.7574,0.9124,0.9137,0.9174,0.9198,0.932,0.8335,0.7084,0.663,0.6856,0.7089,0.6654,0.7917,0.9293,0.9324,0.933,0.9479,0.9601,1.0093,1.0477,1.0721,1.158,1.2056,1.1572,1.1928,1.36,1.7748,1.8835,1.8949,1.8374,1.9396,2.0024,1.9438,2.0118,2.0519,2.0393,1.9663,1.9523,2.0211,2.0026,2.0215,2.0674,2.1288,2.1586,2.1586,2.1328,2.1305,2.1415,2.1015,2.0873,2.0989,2.0989,2.0649,0.0,0.0,0.0,0.0,0.0,0.0,0.0,0.0,0.0,0.0,0.0,0.0266,0.1122,0.0,0.2726,0.2436,0.3393,0.4453,0.5135,0.466,0.5343,0.8474,0.8905,0.9884,1.2432,1.2673,1.3091,1.3877,1.3086,1.2164,1.0937,0.8992,0.8017,0.8266,0.8616,0.8798,0.8798,0.988,1.0529,1.0529,1.0529,1.0529,1.0529,1.0529,1.0529,1.0529,1.0529,1.0529,1.0421,0.9231,0.8798,0.8591,0.7462,0.8428,1.0313,0.9231,0.9447,1.0313,0.9123,0.9556,1.0541,1.0524,1.0443,1.0458,1.0549,1.0576,1.0247,0.9133,0.9692,1.0266,0.9116,0.9916,1.0946,1.1035,1.1278,1.153,1.1626,1.1872,1.2242,1.233,1.3632,1.4679,1.4327,1.5599,1.7372,1.9616,2.0023,2.0023,2.0023,2.0168,2.0098,1.9947,2.0062,2.0098,1.9947,2.0116,2.0309,2.0457,2.0881,2.1122,2.1122,2.1172,2.1297,2.1297,2.0973,2.0799,2.0799,2.0444,2.0271,2.0367,1.9907,1.9655,0.0,0.0,0.0,0.0,0.0,0.0,0.0,0.0,0.0,0.0,0.0,0.0,0.0,0.0,0.0,0.327,0.4951,0.627,0.6052,0.6164,0.771,1.1554,1.2093,1.2744,1.4422,1.44,1.4809,1.6093,1.4439,1.3287,1.32,1.1478,1.0365,1.0218,1.0703,1.0981,1.1019,1.1553,1.179,1.1831,1.1831,0.0,1.1831,1.1831,1.1831,1.1831,1.1831,1.1831,1.1831,1.1831,1.1507,1.1182,1.1615,1.1804,1.1656,1.1192,1.1286,1.1607,1.1179,1.1307,1.1772,1.1772,1.1795,1.1831,1.1831,1.2807,0.0,1.1723,1.2483,1.3511,1.1589,1.1845,1.2653,1.2711,1.3192,1.3533,1.3578,1.3701,1.3823,1.3864,1.5692,1.7169,1.7057,1.9111,2.0591,2.0095,2.0139,2.0154,2.0095,2.0198,2.0176,1.9815,1.9837,1.9852,1.9793,2.0274,2.0561,2.082,2.1086,2.1123,2.1123,2.0776,2.0586,2.0586,2.0247,1.9978,1.9978,1.9789,1.9716,1.9529,1.8423,1.8202,0.0,0.0,0.0,0.0,0.0,0.0,0.0,0.0,0.0,0.0,0.0,0.0,0.0,0.0,0.0,0.0,0.7476,0.8484,1.0115,1.0125,1.054,1.2195,1.1955,1.2349,1.392,1.3559,1.3674,1.4919,1.4688,1.4794,1.516,1.3592,0.0,0.0,0.0,1.2854,1.3052,1.5176,1.6254,1.6505,1.6505,1.6505,1.6505,1.6505,1.6505,1.6505,1.6505,1.6505,1.6505,1.6505,1.5309,1.3686,1.5745,1.6348,1.5888,1.3559,1.4097,1.5548,1.3474,0.0,0.0,1.6234,1.6298,1.6505,1.6505,1.5632,1.4543,1.3681,1.4004,1.4441,1.3604,1.5457,1.7526,1.7559,1.7882,1.839,1.855,1.9052,1.9572,1.9839,2.057,2.0906,2.0345,2.0531,2.0693,2.0289,2.05,2.0578,2.0281,2.0781,2.125,2.1219,2.1359,0.0,2.1234,2.092,2.0755,2.0795,2.0481,2.0397,2.0397,2.0057,1.997,1.997,1.9513,1.9331,1.9331,1.9292,1.9126,1.8771,1.6205,1.5708,0.0,0.0,0.0,0.0,0.0,0.0,0.0,0.0,0.0,0.0,0.0,0.0,0.0,0.0,0.0,0.0,0.7997,0.9886,1.0499,1.085,1.1284,1.1851,1.1918,1.2462,1.3512,1.3585,1.3795,1.4484,1.4675,1.4801,1.4866,1.4453,1.4256,1.4256,1.4661,1.495,1.5209,1.615,1.6739,1.6857,1.6857,1.6857,1.6864,1.7035,1.7115,1.7128,1.7192,1.7271,1.7271,1.7271,1.672,1.593,0.0,0.0,0.0,0.0,1.5665,1.6386,1.5353,1.5741,1.6673,1.6673,1.6759,1.6864,1.7184,1.676,1.6231,1.6225,1.6434,1.6681,1.6521,1.7729,1.9054,1.9251,1.9723,2.0074,2.0219,2.0473,2.062,2.0751,2.1,0.0,2.0527,2.0476,2.0515,2.057,2.0689,2.0736,2.0594,2.0831,2.0934,2.0744,2.0839,2.087,2.0736,2.0578,0.0,0.0,0.0,2.0182,2.0182,1.9939,0.0,0.0,0.0,1.8123,1.7812,1.7303,0.0,0.0,1.4421,1.4248,0.0,0.0,0.0,0.0,0.0,0.0,0.0,0.0,0.0,0.0,0.0,0.0,0.0,0.0,0.0,0.0,0.8429,1.0544,1.0252,1.0608,1.105,1.1359,1.1756,1.233,1.3097,1.3337,1.3568,1.3943,1.4168,1.4267,1.4207,1.4675,1.4985,1.5064,1.5493,1.5849,1.6126,1.6211,1.629,1.6376,1.6449,1.6488,1.6495,1.6712,1.6811,1.6824,1.7035,1.7134,1.7134,1.7134,1.7134,1.7068,1.6482,1.6205,1.6132,1.6332,1.6278,1.6212,1.6212,1.6265,1.6338,1.6338,1.6338,1.6452,1.7048,1.7276,1.7491,1.7872,1.806,1.8285,1.8297,1.8769,1.9354,1.9604,2.0078,2.0499,2.0499,2.0499,2.0499,2.0499,2.0499,2.042,2.0176,2.0136,2.0184,2.0326,2.0436,2.0499,2.0499,2.0586,2.0586,2.0436,2.042,2.042,2.042,2.0237,2.0284,2.0626,2.0326,2.0136,2.0136,1.9702,1.93,1.8936,1.7824,1.6916,0.0,0.0,0.0,0.0,0.0,0.0,0.0,0.0,0.0,0.0,0.0,0.0,0.0,0.0,0.0,0.0,0.0,0.0,0.0,0.0,0.0,0.0,0.0,0.0,0.9979,0.9736,0.9992,1.1175,1.132,1.1669,1.2604,1.2451,1.2537,1.3021,1.3073,1.3317,1.3779,1.4187,1.4491,1.4774,1.4801,1.4946,1.5222,1.5417,1.5803,1.6192,1.6363,1.6488,1.6488,1.6495,1.6501,1.6501,1.6515,1.6515,1.6515,1.6515,1.6515,1.6455,1.5875,1.5384,1.5229,1.5808,1.5709,1.5363,1.5363,1.5654,1.6003,1.6003,1.5902,1.5957,1.6734,1.7405,1.7851,1.7567,1.818,1.8742,1.8249,1.8452,1.8851,1.8867,1.9383,1.9891,1.9891,1.9891,1.9891,1.9891,1.9891,1.9883,1.9875,1.9875,1.9756,1.9315,1.966,0.0,1.9891,2.0089,2.042,2.0736,2.0768,2.0768,2.0768,2.0468,2.0182,2.0198,1.9963,1.9875,1.9875,1.911,1.8581,1.832,1.6947,1.5819,1.5209,0.0,0.0,0.0,0.0,0.0,0.0,0.0,0.0,0.0,0.0,0.0,0.0,0.0,0.0,0.0,0.0,0.0,0.0,0.0,0.0,0.0,0.0,0.0,0.0,0.9758,1.0199,1.0326,1.0759,1.1043,1.1211,1.1476,1.1656,1.1854,1.2401,1.2816,1.3007,1.3304,1.3601,1.3897,1.4001,1.4319,1.4616,1.4913,1.511,1.5216,1.5308,1.5354,1.5361,1.5539,1.5625,1.5631,1.5829,1.5915,1.5915,1.5915,1.5697,1.5335,1.5137,1.5057,1.5061,1.5248,1.5234,1.5204,1.4919,1.4919,1.5046,1.5331,1.5395,1.5583,1.6556,1.7087,1.7295,1.751,1.782,1.8053,1.8181,1.8331,1.8482,1.8715,1.9138,1.9394,1.9394,1.9684,1.9851,1.9851,1.8818,1.81,1.8344,1.8763,1.9023,1.8905,1.9379,1.9851,1.9851,1.986,1.9971,2.0089,2.02,2.02,2.02,1.9994,1.9931,1.9931,1.9386,1.9063,1.9063,1.84,1.765,1.6829,1.6669,1.5749,1.4115,0.0,0.0,0.0,0.0,0.0,0.0,0.0,0.0,0.0,0.0,0.0,0.0,0.0,0.0,0.0,0.0,0.0,0.0,0.0,0.0,0.0,0.0,0.0,0.0,0.0,0.0,0.9775,1.0252,0.0,1.0494,1.0654,1.0852,1.0964,1.1562,1.1973,1.2104,1.2295,1.2632,1.3139,1.3324,1.3561,1.3864,1.4161,1.4306,1.4306,1.4517,1.4616,1.4623,1.4906,1.5038,1.5044,1.5242,1.5227,1.5288,1.4781,1.4418,1.4169,1.4076,1.4061,1.4141,1.442,1.4588,1.4742,1.4894,1.4872,1.4723,1.481,1.4768,1.4769,1.5935,1.622,1.6151,1.6633,1.6845,1.7042,1.7606,1.7725,1.7852,1.8234,1.851,1.8668,1.8668,1.8755,1.8755,1.8597,1.765,1.7042,1.7279,1.7784,1.8062,1.8062,1.8644,1.9102,1.9347,1.9489,1.9716,1.9843,1.9851,1.9851,1.9851,1.9851,1.9748,1.9402,1.896,1.8494,1.8005,1.7555,1.6758,1.5582,1.5669,1.4871,0.0,0.0,0.0,0.0,0.0,0.0,0.0,0.0,0.0,0.0,0.0,0.0,0.0,0.0,0.0,0.0,0.0,0.0,0.0,0.0,0.0,0.0,0.0,0.0,0.0,0.0,0.0,0.9382,0.9657,0.0,0.0,0.0,0.0,1.0395,1.0448,1.07,1.1181,1.1227,1.1623,1.2544,1.2584,1.2658,1.2955,1.3251,1.3327,1.3346,1.3976,1.4335,1.4361,1.4557,1.4682,1.4682,1.4682,1.4682,1.4596,1.3436,1.2955,1.2934,1.2681,1.264,1.2717,1.3466,1.372,1.3904,1.4991,1.5186,1.4745,1.4427,1.3897,1.3583,1.4677,1.4813,0.0,0.0,1.5234,1.5637,1.6447,1.663,1.6812,1.7413,1.7595,1.7602,1.7579,1.7326,1.6876,1.615,1.63,1.6622,1.6582,0.0,1.7042,1.7042,1.7381,1.7871,1.8455,1.8929,1.9276,1.974,1.9779,1.9779,1.9779,1.9779,1.9386,1.8708,1.8613,1.8005,1.6796,1.6653,1.5963,1.4524,1.4145,0.0,0.0,0.0,0.0,0.0,0.0,0.0,0.0,0.0,0.0,0.0,0.0,0.0,0.0,0.0,0.0,0.0,0.0,0.0,0.0,0.0,0.0,0.0,0.0,0.0,0.0,0.7786,0.8124,0.8203,0.8465,0.8583,0.0,0.0,0.0,0.0,0.0,0.0,1.0234,1.0522,1.0912,1.1293,1.1504,1.1755,1.1977,1.2355,1.2605,1.281,1.3035,1.322,1.3363,1.3436,1.3469,1.3469,1.3469,1.3469,1.3396,1.2762,1.2471,1.2449,1.2274,1.2279,1.2362,1.2581,1.2738,1.2813,1.3101,1.3201,1.301,1.2734,1.2844,1.3094,1.3166,0.0,0.0,0.0,0.0,1.4273,1.4979,1.5162,1.5258,1.5953,1.6324,1.6442,1.6174,1.6253,1.6024,1.4808,1.4848,1.4995,1.448,1.5114,0.0,1.5693,1.6439,1.7066,1.7492,1.7855,1.8202,1.8645,1.8677,1.8677,1.8677,1.8677,1.8494,1.7973,1.7216,1.6742,1.6741,1.54,1.4421,1.3861,0.0,0.0,0.0,0.0,0.0,0.0,0.0,0.0,0.0,0.0,0.0,0.0,0.0,0.0,0.0,0.0,0.0,0.0,0.0,0.0,0.0,0.0,0.0,0.0,0.0,0.0,0.0,0.6759,0.7291,0.7423,0.7646,0.7803,0.0,0.0,0.0,0.0,0.0,0.0,0.0,0.0,0.0,1.0278,1.0561,1.0845,1.1148,1.1451,1.1748,1.1907,1.2084,1.2365,1.2678,1.2819,1.2873,1.2873,1.2873,1.2735,1.2485,1.1979,1.1817,1.1762,0.0,0.0,0.0,0.0,1.197,1.2062,1.218,1.2243,1.2164,1.1711,0.0,0.0,0.0,0.0,0.0,0.0,0.0,1.3059,1.3695,1.4059,1.4345,1.4958,1.5282,1.5369,1.5171,1.4682,1.413,1.3277,1.3403,1.3514,1.3127,1.3877,0.0,0.0,0.0,1.6308,1.6647,1.7271,1.7752,1.8042,1.8058,1.8058,1.8058,1.8058,1.7752,1.7263,1.6679,1.6114,1.5384,1.4485,1.3451,0.0,0.0,0.0,0.0,0.0,0.0,0.0,0.0,0.0,0.0,0.0,0.0,0.0,0.0,0.0,0.0,0.0,0.0,0.0,0.0,0.0,0.0,0.0,0.0,0.0,0.0,0.0,0.0,0.0,0.6474,0.6733,0.0,0.0,0.0,0.0,0.0,0.0,0.0,0.0,0.0,0.0,0.0,0.0,0.0,0.9869,1.0196,1.0469,1.0674,1.0753,1.1184,1.1647,1.2043,1.2245,1.2382,1.2483,1.2398,0.0,1.1604,1.1142,0.0,0.0,0.0,0.0,0.0,0.0,0.0,0.0,0.0,0.0,0.0,0.0,0.0,0.0,0.0,0.0,0.0,0.0,0.0,0.0,0.0,0.0,1.3535,1.4121,1.4311,1.4303,1.4169,1.3012,1.1917,1.1822,1.2069,1.2251,0.0,0.0,0.0,0.0,0.0,0.0,1.5795,1.6797,1.7492,1.7547,1.7587,1.761,1.761,1.7571,1.7271,1.6709,1.6455,1.5519,1.3726,1.3656,0.0,0.0,0.0,0.0,0.0,0.0,0.0,0.0,0.0,0.0,0.0,0.0,0.0,0.0,0.0,0.0,0.0,0.0,0.0,0.0,0.0,0.0,0.0,0.0,0.0,0.0,0.0,0.0,0.0,0.0,0.0,0.0,0.0,0.0,0.0,0.0,0.0,0.0,0.0,0.0,0.0,0.0,0.0,0.0,0.0,0.0,0.0,0.0,0.0,0.0,1.0169,1.0403,1.0779,1.0832,1.112,1.15,1.1062,1.0723,1.0378,0.9666,0.0,0.0,0.0,0.0,0.0,0.0,0.0,0.0,0.0,0.0,0.0,0.0,0.0,0.0,0.0,0.0,0.0,0.0,0.0,0.0,0.0,0.0,1.2259,1.274,1.3064,1.3048,1.2172,0.0,0.0,0.0,0.0,0.0,0.0,0.0,0.0,0.0,0.0,0.0,1.4358,1.5566,1.6505,1.6891,1.7074,1.7239,1.7239,1.6987,1.6741,1.6237,1.4932,1.4099,0.0,0.0,0.0,0.0,0.0,0.0,0.0,0.0,0.0,0.0,0.0,0.0,0.0,0.0,0.0,0.0,0.0,0.0,0.0,0.0,0.0,0.0,0.0,0.0,0.0,0.0,0.0,0.0,0.0,0.0,0.0,0.0,0.0,0.0,0.0,0.0,0.0,0.0,0.0,0.0,0.0,0.0,0.0,0.0,0.0,0.0,0.0,0.0,0.0,0.0,0.0,0.0,0.0,0.0,0.0,0.0,0.0,0.0,1.0224,0.9674,0.0,0.0,0.0,0.0,0.0,0.0,0.0,0.0,0.0,0.0,0.0,0.0,0.0,0.0,0.0,0.0,0.0,0.0,0.0,0.0,0.0,0.0,0.0,0.0,0.0,0.0,0.0,0.0,0.0,0.0,0.0,0.0,0.0,0.0,0.0,0.0,0.0,0.0,0.0,0.0,1.375,1.4982,1.5905,1.6071,1.6237,1.6332,1.6332,1.6182,1.5795,1.5084,1.4256,0.0,0.0,0.0,0.0,0.0,0.0,0.0,0.0,0.0,0.0,0.0,0.0,0.0,0.0,0.0,0.0,0.0,0.0,0.0,0.0,0.0,0.0,0.0,0.0,0.0,0.0,0.0,0.0,0.0,0.0,0.0,0.0,0.0,0.0,0.0,0.0,0.0,0.0,0.0,0.0,0.0,0.0,0.0,0.0,0.0,0.0,0.0,0.0,0.0,0.0,0.0,0.0,0.0,0.0,0.0,0.0,0.0,0.0,0.0,0.9324,0.8675,0.0,0.0,0.0,0.0,0.0,0.0,0.0,0.0,0.0,0.0,0.0,0.0,0.0,0.0,0.0,0.0,0.0,0.0,0.0,0.0,0.0,0.0,0.0,0.0,0.0,0.0,0.0,0.0,0.0,0.0,0.0,0.0,0.0,0.0,0.0,0.0,0.0,0.0,0.0,0.0,1.3353,1.45,1.5384,1.5463,1.5534,1.5574,1.5574,1.544,1.4982,1.4025,1.3766,0.0,0.0,0.0,0.0,0.0,0.0,0.0,0.0,0.0,0.0,0.0,0.0,0.0,0.0,0.0,0.0,0.0,0.0,0.0,0.0,0.0,0.0,0.0,0.0,0.0,0.0,0.0,0.0,0.0,0.0,0.0,0.0,0.0,0.0,0.0,0.0,0.0,0.0,0.0,0.0,0.0,0.0,0.0,0.0,0.0,0.0,0.0,0.0,0.0,0.0,0.0,0.0,0.0,0.0,0.0,0.0,0.0,0.0,0.0,0.0,0.0,0.0,0.0,0.0,0.0,0.0,0.0,0.0,0.0,0.0,0.0,0.0,0.0,0.0,0.0,0.0,0.0,0.0,0.0,0.0,0.0,0.0,0.0,0.0,0.0,0.0,0.0,0.0,0.0,0.0,0.0,0.0,0.0,0.0,0.0,0.0,0.0,0.0,0.0,0.0,0.0,1.2535,1.3782,1.4837,1.517,1.5392,1.5574,1.5574,1.5006,1.4469,1.4002,0.0,0.0,0.0,0.0,0.0,0.0,0.0,0.0,0.0,0.0,0.0,0.0,0.0,0.0,0.0,0.0,0.0,0.0,0.0,0.0,0.0,0.0,0.0,0.0,0.0,0.0,0.0,0.0,0.0,0.0,0.0,0.0,0.0,0.0,0.0,0.0,0.0,0.0,0.0,0.0,0.0,0.0,0.0,0.0,0.0,0.0,0.0,0.0,0.0,0.0,0.0,0.0,0.0,0.0,0.0,0.0,0.0,0.0,0.0,0.0,0.0,0.0,0.0,0.0,0.0,0.0,0.0,0.0,0.0,0.0,0.0,0.0,0.0,0.0,0.0,0.0,0.0,0.0,0.0,0.0,0.0,0.0,0.0,0.0,0.0,0.0,0.0,0.0,0.0,0.0,0.0,0.0,0.0,0.0,0.0,0.0,0.0,0.0,0.0,0.0,0.0,0.0,1.2373,1.3723,1.4654,1.4807,1.4904,1.4871,1.4599,1.4406,1.3822,1.2909,0.0,0.0,0.0,0.0,0.0,0.0,0.0,0.0,0.0,0.0,0.0,0.0,0.0,0.0,0.0,0.0,0.0,0.0,0.0,0.0,0.0,0.0,0.0,0.0,0.0,0.0,0.0,0.0,0.0,0.0,0.0,0.0,0.0,0.0,0.0,0.0,0.0,0.0,0.0,0.0,0.0,0.0,0.0,0.0,0.0,0.0,0.0,0.0,0.0,0.0,0.0,0.0,0.0,0.0,0.0,0.0,0.0,0.0,0.0,0.0,0.0,0.0,0.0,0.0,0.0,0.0,0.0,0.0,0.0,0.0,0.0,0.0,0.0,0.0,0.0,0.0,0.0,0.0,0.0,0.0,0.0,0.0,0.0,0.0,0.0,0.0,0.0,0.0,0.0,0.0,0.0,0.0,0.0,0.0,0.0,0.0,0.0,0.0,0.0,0.0,0.0,0.0,1.2392,1.3459,1.4252,1.4359,1.4379,1.4282,1.3908,1.3798,1.323,1.2145,0.0,0.0,0.0,0.0,0.0,0.0,0.0,0.0,0.0,0.0,0.0,0.0,0.0,0.0,0.0,0.0,0.0,0.0,0.0,0.0,0.0,0.0,0.0,0.0,0.0,0.0,0.0,0.0,0.0,0.0,0.0,0.0,0.0,0.0,0.0,0.0,0.0,0.0,0.0,0.0,0.0,0.0,0.0,0.0,0.0,0.0,0.0,0.0,0.0,0.0,0.0,0.0,0.0,0.0,0.0,0.0,0.0,0.0,0.0,0.0,0.0,0.0,0.0,0.0,0.0,0.0,0.0,0.0,0.0,0.0,0.0,0.0,0.0,0.0,0.0,0.0,0.0,0.0,0.0,0.0,0.0,0.0,0.0,0.0,0.0,0.0,0.0,0.0,0.0,0.0,0.0,0.0,0.0,0.0,0.0,0.0,0.0,0.0,0.0,0.0,0.0,0.0,1.2298,1.3026,1.3598,1.395,1.3982,1.3921,1.366,1.3289,1.2782,0.0,0.0,0.0,0.0,0.0,0.0,0.0,0.0,0.0,0.0,0.0,0.0,0.0,0.0,0.0,0.0,0.0,0.0,0.0,0.0,0.0,0.0,0.0,0.0,0.0,0.0,0.0,0.0,0.0,0.0,0.0,0.0,0.0,0.0,0.0,0.0,0.0,0.0,0.0,0.0,0.0,0.0,0.0,0.0,0.0,0.0,0.0,0.0,0.0,0.0,0.0,0.0,0.0,0.0,0.0,0.0,0.0,0.0,0.0,0.0,0.0,0.0,0.0,0.0,0.0,0.0,0.0,0.0,0.0,0.0,0.0,0.0,0.0,0.0,0.0,0.0,0.0,0.0,0.0,0.0,0.0,0.0,0.0,0.0,0.0,0.0,0.0,0.0,0.0,0.0,0.0,0.0,0.0,0.0,0.0,0.0,0.0,0.0,0.0,0.0,0.0,0.0,0.0,1.2259,1.3033,1.3557,1.3984,1.3964,1.3747,1.3258,1.308,1.2614,1.1726,0.0,0.0,0.0,0.0,0.0,0.0,0.0,0.0,0.0,0.0,0.0,0.0,0.0,0.0,0.0,0.0,0.0,0.0,0.0,0.0,0.0,0.0,0.0,0.0,0.0,0.0,0.0,0.0,0.0,0.0,0.0,0.0,0.0,0.0,0.0,0.0,0.0,0.0,0.0,0.0,0.0,0.0,0.0,0.0,0.0,0.0,0.0,0.0,0.0,0.0,0.0,0.0,0.0,0.0,0.0,0.0,0.0,0.0,0.0,0.0,0.0,0.0,0.0,0.0,0.0,0.0,0.0,0.0,0.0,0.0,0.0,0.0,0.0,0.0,0.0,0.0,0.0,0.0,0.0,0.0,0.0,0.0,0.0,0.0,0.0,0.0,0.0,0.0,0.0,0.0,0.0,0.0,0.0,0.0,0.0,0.0,0.0,0.0,0.0,0.0,0.0,0.0,0.0,1.3217,1.3708,1.394,1.385,1.3633,1.3222,1.2943,1.248,1.167,0.0,0.0,0.0,0.0,0.0,0.0,0.0,0.0,0.0,0.0,0.0,0.0,0.0,0.0,0.0,0.0,0.0,0.0,0.0,0.0,0.0,0.0,0.0,0.0,0.0,0.0,0.0,0.0,0.0,0.0,0.0,0.0,0.0,0.0,0.0,0.0,0.0,0.0,0.0,0.0,0.0,0.0,0.0,0.0,0.0,0.0,0.0,0.0,0.0,0.0,0.0,0.0,0.0,0.0,0.0,0.0,0.0,0.0,0.0,0.0,0.0,0.0,0.0,0.0,0.0,0.0,0.0,0.0,0.0,0.0,0.0,0.0,0.0,0.0,0.0,0.0,0.0,0.0,0.0,0.0,0.0,0.0,0.0,0.0,0.0,0.0,0.0,0.0,0.0,0.0,0.0,0.0,0.0,0.0,0.0,0.0,0.0,0.0,0.0,0.0,0.0,0.0,0.0,1.3393,1.3878,1.3931,1.3621,1.3375,1.3375,1.28,1.2242,1.1881,1.0893,0.0,0.0,0.0,0.0,0.0,0.0,0.0,0.0,0.0,0.0,0.0,0.0,0.0,0.0,0.0,0.0,0.0,0.0,0.0,0.0,0.0,0.0,0.0,0.0,0.0,0.0,0.0,0.0,0.0,0.0,0.0,0.0,0.0,0.0,0.0,0.0,0.0,0.0,0.0,0.0,0.0,0.0,0.0,0.0,0.0,0.0,0.0,0.0,0.0,0.0,0.0,0.0,0.0,0.0,0.0,0.0,0.0,0.0,0.0,0.0,0.0,0.0,0.0,0.0,0.0,0.0,0.0,0.0,0.0,0.0,0.0,0.0,0.0,0.0,0.0,0.0,0.0,0.0,0.0,0.0,0.0,0.0,0.0,0.0,0.0,0.0,0.0,0.0,0.0,0.0,0.0,0.0,0.0,0.0,0.0,0.0,0.0,0.0,0.0,0.0,0.0,0.0,1.2533,1.2923,1.3235,1.3366,1.3183,1.2736,1.2544,1.218,1.1603,1.079,0.0,0.0,0.0,0.0,0.0,0.0,0.0,0.0,0.0,0.0,0.0,0.0,0.0,0.0,0.0,0.0,0.0,0.0,0.0,0.0,0.0,0.0,0.0,0.0,0.0,0.0,0.0,0.0,0.0,0.0,0.0,0.0,0.0,0.0,0.0,0.0,0.0,0.0,0.0,0.0,0.0,0.0,0.0,0.0,0.0,0.0,0.0,0.0,0.0,0.0,0.0,0.0,0.0,0.0,0.0,0.0,0.0,0.0,0.0,0.0,0.0,0.0,0.0,0.0,0.0,0.0,0.0,0.0,0.0,0.0,0.0,0.0,0.0,0.0,0.0,0.0,0.0,0.0,0.0,0.0,0.0,0.0,0.0,0.0,0.0,0.0,0.0,0.0,0.0,0.0,0.0,0.0,0.0,0.0,0.0,0.0,0.0,0.0,0.0,0.0,0.0,0.0,1.1777,1.2419,1.3138,1.3239,1.3111,1.2928,1.2608,1.2171,1.1495,1.0608,0.0,0.0,0.0,0.0,0.0,0.0,0.0,0.0,0.0,0.0,0.0,0.0,0.0,0.0,0.0,0.0,0.0,0.0,0.0,0.0,0.0,0.0,0.0,0.0,0.0,0.0,0.0,0.0,0.0,0.0,0.0,0.0,0.0,0.0,0.0,0.0,0.0,0.0,0.0,0.0,0.0,0.0,0.0,0.0,0.0,0.0,0.0,0.0,0.0,0.0,0.0,0.0,0.0,0.0,0.0,0.0,0.0,0.0,0.0,0.0,0.0,0.0,0.0,0.0,0.0,0.0,0.0,0.0,0.0,0.0,0.0,0.0,0.0,0.0,0.0,0.0,0.0,0.0,0.0,0.0,0.0,0.0,0.0,0.0,0.0,0.0,0.0,0.0,0.0,0.0,0.0,0.0,0.0,0.0,0.0,0.0,0.0,0.0,0.0,0.0,0.0,0.0,0.0,1.2079,1.3158,1.3172,1.3103,1.3247,1.2751,1.2097,1.1438,0.0,0.0,0.0,0.0,0.0,0.0,0.0,0.0,0.0,0.0,0.0,0.0,0.0,0.0,0.0,0.0,0.0,0.0,0.0,0.0,0.0,0.0,0.0,0.0,0.0,0.0,0.0,0.0,0.0,0.0,0.0,0.0,0.0,0.0,0.0,0.0,0.0,0.0,0.0,0.0,0.0,0.0,0.0,0.0,0.0,0.0,0.0,0.0,0.0,0.0,0.0,0.0,0.0,0.0,0.0,0.0,0.0,0.0,0.0,0.0,0.0,0.0,0.0,0.0,0.0,0.0,0.0,0.0,0.0,0.0,0.0,0.0,0.0,0.0,0.0,0.0,0.0,0.0,0.0,0.0,0.0,0.0,0.0,0.0,0.0,0.0,0.0,0.0,0.0,0.0,0.0,0.0,0.0,0.0,0.0,0.0,0.0,0.0,0.0,0.0,0.0,0.0,0.0,0.0,1.131,1.2469,1.3065,1.3119,1.2608,1.2329,1.1766,1.1012,0.0,0.0,0.0,0.0,0.0,0.0,0.0,0.0,0.0,0.0,0.0,0.0,0.0,0.0]}],[{"header":{"parameterUnit":"kt","parameterCategory":2,"dx":1,"dy":1,"la1":29.285339999999998,"la2":30.599998999999997,"lo1":-89.70041500000002,"lo2":-87.6738589999976,"nx":112,"ny":82,"refTime":"2022-10-29T12:00:00:Z","depth":0,"parameterNumber":2,"parameterNumberName":"V-component_of_WINDS"},"data":[8.9718,8.8461,8.6609,8.1248,7.9501,7.7736,7.2354,7.0256,6.8339,6.4495,6.2235,6.0474,5.8895,5.5793,5.3696,0.0,0.0,0.0,0.0,5.0294,0.0,0.0,0.0,0.0,0.0,0.0,0.0,0.0,0.0,0.0,0.0,9.8239,9.9267,10.0818,10.2558,10.424,10.5923,10.7493,10.9961,11.3326,11.3326,11.5045,11.8186,11.8186,11.8186,11.8186,11.8186,11.8186,11.8186,11.8186,11.8186,11.8186,11.8186,11.8209,11.8276,11.8486,11.9423,12.0872,12.3071,12.5947,12.8692,12.8692,12.8692,12.8692,12.8692,12.8806,12.8825,12.8309,12.8858,12.9447,12.8886,12.9407,13.0032,13.0032,13.0032,13.0032,13.0032,13.0032,13.0032,13.0032,13.0032,13.0032,13.0032,13.0032,13.0032,13.0032,13.0032,13.0032,13.0032,13.0032,13.0032,13.0032,13.0032,13.0032,13.0032,13.0032,13.0032,13.0032,13.0032,13.0032,13.0032,13.0032,13.0032,13.0032,13.0032,13.0032,13.0032,13.0032,13.0032,13.0032,13.0032,13.0032,8.439,8.2684,8.0686,7.4735,7.329,7.2072,6.7197,6.5255,6.3483,6.0173,5.7971,5.6173,5.4569,5.2891,5.1542,0.0,0.0,0.0,0.0,0.0,0.0,0.0,0.0,0.0,0.0,0.0,0.0,0.0,9.3004,9.6164,9.8426,9.9043,10.0053,10.1678,10.3418,10.5063,10.6708,10.8315,11.0559,11.3326,11.3886,11.5532,11.8186,11.8186,11.8186,11.8186,11.8186,11.8186,11.8186,11.8186,11.8186,11.8186,11.8186,11.8231,11.8342,11.8511,11.8634,11.9143,12.1999,12.512,12.7977,12.8504,12.8692,12.8692,12.8692,12.8857,12.907,12.9169,12.9413,12.9659,12.9764,12.9911,13.0032,13.0032,13.0032,13.0032,13.0032,13.0032,13.0032,13.0032,13.0032,13.0032,13.0032,13.0032,13.0032,13.0032,13.0032,13.0032,13.0032,13.0032,13.0032,13.0032,13.0032,13.0032,13.0032,13.0032,13.0032,13.0032,13.0032,13.0032,13.0032,13.0032,13.0032,13.0032,13.0032,13.0032,13.0032,13.0032,13.0032,13.0032,13.003,13.0029,7.8219,7.5264,7.2869,6.8016,6.6823,6.6378,6.4611,6.1781,5.9451,5.9252,5.5363,5.2456,5.4047,5.2957,5.126,4.9605,5.2157,0.0,0.0,0.0,0.0,0.0,0.0,0.0,0.0,8.2214,8.6167,0.0,9.2797,9.5117,9.8464,10.009,10.1678,10.3455,10.51,10.6708,10.8241,10.9944,11.1643,11.3363,11.4933,11.6541,11.8186,11.8186,11.8186,11.8186,11.8186,11.8186,11.8186,11.8186,11.8186,11.8209,11.8209,11.8342,11.8569,11.8577,11.8578,11.8861,12.0684,12.3466,12.6549,12.8165,12.8692,12.8692,12.8692,12.8857,12.9128,12.9388,12.9551,12.9714,12.9992,13.0032,13.0032,13.0032,13.0032,13.0032,13.0032,13.0032,13.0032,13.0032,13.0032,13.0032,13.0032,13.0032,13.0032,13.0032,13.0032,13.0032,13.0032,13.0032,13.0032,13.0032,13.0032,13.0032,13.0032,13.0032,13.0032,13.0032,13.0032,13.0032,13.0032,13.0032,13.0032,13.0032,13.0032,13.0032,13.0032,13.0032,13.0032,13.0027,13.0055,13.0061,7.1212,6.9043,6.7445,6.2508,6.1329,6.0703,5.7851,5.6603,5.5604,5.4256,5.3848,0.0,0.0,0.0,5.3391,5.2943,0.0,5.7018,5.4849,5.9497,6.4496,0.0,0.0,7.9197,8.537,9.0029,9.3246,9.4575,9.6257,9.8071,10.0127,10.0631,10.2201,10.5175,10.5698,10.6708,10.8241,10.9944,11.1643,11.3363,11.4933,11.6541,11.8186,11.8186,11.8186,11.8186,11.8186,11.8186,11.8186,11.8186,11.8231,11.832,11.832,11.8411,11.8577,11.8578,11.8636,11.8955,12.0703,12.2714,12.4989,12.7752,12.8692,12.8692,12.8692,12.9002,12.9366,12.943,12.9693,12.9953,13.0032,13.0032,13.0032,13.0032,13.0032,13.0032,13.0032,13.0032,13.0032,13.0032,13.0032,13.0032,13.0032,13.0032,13.0032,13.0032,13.0032,13.0032,13.0032,13.0032,13.0032,13.0032,13.0032,13.0032,13.0032,13.0032,13.0032,13.0032,13.0032,13.0032,13.0032,13.0032,13.0032,13.0032,13.0032,13.0032,13.0032,13.0031,13.003,13.0032,12.9937,12.9922,6.5448,6.3124,6.1704,5.8115,5.7281,5.6825,5.494,5.4565,5.4314,5.326,0.0,0.0,0.0,0.0,0.0,0.0,6.0184,6.2166,5.9112,6.4982,7.1039,7.5025,8.0498,8.5172,8.8329,9.2463,9.5566,9.6987,9.7323,9.8482,10.0781,10.1566,10.3193,10.5848,10.6558,10.7343,10.8278,11.0671,11.2353,11.3363,11.5644,11.7214,11.8186,11.8186,11.8186,11.8186,11.8186,11.8186,11.8186,11.8186,11.8254,11.8363,11.8432,11.8538,11.8636,11.8636,11.8711,11.8917,11.9894,12.1812,12.4124,12.6022,12.7564,12.8692,12.8692,12.9063,12.944,12.944,12.972,13.0032,13.0032,13.0032,13.0032,13.0032,13.0032,13.0032,13.0032,13.0032,13.0032,13.0032,13.0032,13.0032,13.0032,13.0032,13.0032,13.0032,13.0032,13.0032,13.0032,13.0032,13.0032,13.0032,13.0032,13.0032,13.0032,13.0032,13.0032,13.0032,13.0032,13.0032,13.0032,13.0032,13.0032,13.0032,13.0032,13.0032,13.0032,13.0027,13.0025,13.0028,12.9922,12.987,6.0619,5.7731,5.619,5.466,5.4277,5.4358,5.4528,0.0,5.5214,5.5435,0.0,5.6741,5.959,0.0,0.0,6.0483,6.5904,6.8521,6.3935,7.0665,7.7657,8.1866,8.7884,9.1117,8.9638,9.2276,9.5342,9.8314,9.7323,9.7921,10.1005,10.2782,10.4464,10.6147,10.753,10.8278,10.8278,11.1643,11.3326,11.3363,11.6616,11.8186,11.8186,11.8186,11.8186,11.8186,11.8186,11.8186,11.8186,11.8209,11.8276,11.8406,11.8538,11.8636,11.8766,11.8766,11.8766,11.8766,11.8766,12.0984,12.3823,12.3823,12.6022,12.8692,12.8692,12.9063,12.945,12.947,12.9768,13.0032,13.0032,13.0032,13.0032,13.0032,13.0032,13.0032,13.0032,13.0032,13.0032,13.0032,13.0032,13.0032,13.0032,13.0032,13.0032,13.0032,13.0032,13.0032,13.0032,13.0032,13.0032,13.0032,13.0032,13.0032,13.0032,13.0032,13.0032,13.0032,13.0032,13.0032,13.0032,13.0032,13.0032,13.0027,13.0026,13.0029,13.0032,13.0021,13.001,13.0007,12.99,12.9904,5.6668,5.4026,5.2676,5.2367,5.2292,5.2674,0.0,0.0,0.0,6.0289,6.2647,6.4622,6.5137,6.7298,6.8969,6.8969,7.3432,7.6101,7.3857,8.2891,8.9621,8.9305,9.2687,9.4968,9.4631,9.6388,9.7865,9.8501,9.9417,10.0818,10.2819,10.4539,10.6184,10.7755,10.8091,10.8278,10.8278,11.1643,11.3326,11.3363,11.6616,11.8186,11.8186,11.8186,11.8186,11.8186,11.8186,11.8186,11.8209,11.8298,11.8422,11.8549,11.8577,11.8636,11.8766,11.8766,11.8766,11.8766,11.8766,12.0984,12.3823,12.3823,12.6022,12.8692,12.8692,12.9063,12.9479,12.9586,12.9812,13.0032,13.0032,13.0032,13.0032,13.0032,13.0032,13.0032,13.0032,13.0032,13.0032,13.0032,13.0032,13.0032,13.0032,13.0032,13.0032,13.0032,13.0032,13.0032,13.0032,13.0032,13.0032,13.0032,13.0032,13.0032,13.0032,13.0031,13.003,13.0032,13.0031,13.0028,13.0028,13.0028,13.0028,13.0027,13.0057,13.0059,13.0028,12.9931,12.9877,12.9877,12.9853,12.9853,5.3877,5.1746,5.0652,5.1484,5.1709,0.0,0.0,5.7561,6.0783,6.1638,6.569,6.9348,7.012,7.2269,7.4142,7.4927,7.919,8.3003,8.4723,9.0631,9.4482,9.3696,9.579,9.7286,9.7286,9.8052,9.8576,9.8576,10.0015,10.1977,10.4539,10.5474,10.667,10.8203,10.8278,10.8689,10.9533,11.2054,11.3737,11.4522,11.699,11.8186,11.8186,11.8186,11.8186,11.8186,11.8186,11.8186,11.8209,11.832,11.8465,11.8569,11.8673,11.873,11.8766,11.8766,11.8766,11.8766,11.8766,12.0458,12.2676,12.356,12.5515,12.7678,12.8596,12.9041,12.9306,12.9561,12.9861,13.0032,13.0032,13.0032,13.0032,13.0032,13.0032,13.0032,13.0032,13.0032,13.0032,13.0032,13.0032,13.0032,13.0032,13.0032,13.0032,13.0032,13.0032,13.0032,13.0032,13.0032,13.0032,13.0032,13.0032,13.0032,13.0032,13.003,13.0028,13.0031,13.0026,13.0061,13.0027,12.9979,12.9979,13.0027,12.9974,12.9969,13.0059,12.9915,12.9858,12.9858,12.9849,12.9849,5.1671,5.0204,4.9605,5.1288,5.197,0.0,5.5596,5.9762,6.3481,6.48,6.9486,7.3814,7.5499,7.7439,7.9205,8.0476,8.4536,8.906,9.3397,9.5454,9.6501,9.6501,9.7716,9.8576,9.8576,9.8838,9.9006,9.9006,10.0501,10.2707,10.5773,10.6222,10.6969,10.8241,10.8278,10.9063,11.0767,11.2466,11.4111,11.5681,11.7364,11.8186,11.8186,11.8186,11.8186,11.8186,11.8186,11.8186,11.8209,11.8379,11.8486,11.8573,11.8692,11.8766,11.8766,11.8766,11.8766,11.8766,11.8766,11.9894,12.1586,12.3278,12.4989,12.67,12.8533,12.9099,12.921,12.9548,12.9861,13.0032,13.0032,13.0032,13.0032,13.0032,13.0032,13.0032,13.0032,13.0032,13.0032,13.0032,13.0032,13.0032,13.0032,13.0032,13.0032,13.0032,13.0032,13.0032,13.0032,13.0032,13.0032,13.0032,13.0032,13.0032,13.0032,13.0027,13.0023,13.0025,13.0015,13.0012,13.0021,12.9925,12.9922,13.0019,12.9922,12.9915,13.0007,12.99,12.9839,12.9839,12.9839,12.9844,4.9904,4.9306,4.9605,5.1288,5.283,0.0,6.1787,6.5868,7.0067,7.6111,7.8933,8.0857,8.2534,8.5286,8.7357,8.7507,9.0406,9.3397,9.5454,9.7211,9.8277,9.8277,9.8426,9.8576,9.8576,9.9828,10.0631,10.0631,10.2184,10.3978,10.5848,10.7269,10.8091,10.8278,10.8278,10.9063,11.0767,11.2466,11.4111,11.5681,11.7364,11.8186,11.8186,11.8186,11.8186,11.8186,11.8186,11.8186,11.8209,11.8465,11.8573,11.8578,11.873,11.8766,11.8766,11.8766,11.8766,11.8766,11.8766,11.9894,12.1586,12.3278,12.4989,12.67,12.8533,12.9235,12.9422,12.9617,12.9861,13.0032,13.0032,13.0032,13.0032,13.0032,13.0032,13.0032,13.0032,13.0032,13.0032,13.0032,13.0032,13.0032,13.0032,13.0032,13.0032,13.0032,13.0032,13.0032,13.0032,13.0032,13.0032,13.0032,13.0031,13.0028,13.0028,12.9934,12.9922,13.005,12.9922,12.9877,12.9877,12.9836,12.9866,12.9853,12.9866,12.9836,12.9874,12.9853,12.9839,12.9839,12.9839,12.9853,4.9381,4.9904,5.1063,5.2756,0.0,0.0,6.3453,6.9063,7.4234,7.7126,8.1144,8.4702,8.6373,8.8546,9.0406,9.1304,9.4257,9.6688,9.7398,9.8127,9.8576,9.8576,9.8576,9.8893,9.9828,10.0482,10.1304,10.2276,10.3941,10.5212,10.5885,10.7418,10.8278,10.8278,10.8278,10.9549,11.2241,11.2989,11.4597,11.7139,11.785,11.8186,11.8186,11.8186,11.8186,11.8186,11.8186,11.8231,11.832,11.8494,11.8577,11.8598,11.873,11.8766,11.8766,11.8766,11.8766,11.8766,11.8766,11.9255,12.027,12.2958,12.4345,12.5522,12.8428,12.9422,12.9599,12.9815,12.9953,13.0032,13.0032,13.0032,13.0032,13.0032,13.0032,13.0032,13.0032,13.0032,13.0032,13.0032,13.0032,13.0032,13.0032,13.0032,13.0032,13.0032,13.0032,13.0032,13.0032,13.0032,13.0032,13.0031,13.0028,13.0025,13.0057,12.9925,12.9874,12.9922,12.9904,12.9862,12.9832,12.9862,12.9858,12.9858,12.9858,12.9853,12.9853,12.9844,12.9839,12.9839,12.9839,12.9844,4.9755,0.0,0.0,0.0,0.0,0.0,6.675,7.2171,7.7057,7.9438,8.3607,8.7452,8.9584,9.1378,9.3023,9.4631,9.6949,9.8576,9.8576,9.8576,9.8576,9.8576,9.8931,9.9641,10.0781,10.1715,10.2782,10.4016,10.5661,10.6558,10.6558,10.7642,10.8278,10.8278,10.8278,10.9886,11.3288,11.3326,11.4971,11.8186,11.8186,11.8186,11.8186,11.8186,11.8186,11.8186,11.8231,11.832,11.8432,11.852,11.8598,11.8636,11.873,11.8766,11.8766,11.8766,11.8766,11.8766,11.8766,11.8766,11.9273,12.2277,12.3589,12.4608,12.7832,12.92,12.971,12.9954,13.0032,13.0032,13.0032,13.0032,13.0032,13.0032,13.0032,13.0032,13.0032,13.0032,13.0032,13.0032,13.0032,13.0032,13.0032,13.0032,13.0032,13.0032,13.0032,13.0032,13.0032,13.0032,13.0032,13.0027,13.0025,13.0019,12.9969,12.9912,12.9862,12.9862,12.9849,12.9849,12.9862,12.9849,12.9849,12.9862,12.9849,12.9839,12.9839,12.9839,12.9839,12.9839,12.9839,12.9839,0.0,0.0,0.0,5.9785,6.1505,6.4159,7.382,7.6213,7.8644,8.6647,8.8404,8.9563,9.2762,9.4743,9.6426,9.8127,9.8501,9.8576,9.8576,9.8576,9.8576,9.8576,9.9903,10.0818,10.0893,10.3866,10.581,10.5848,10.7306,10.8203,10.8203,10.8241,10.8278,10.8278,10.8278,10.9886,11.3288,11.3326,11.4971,11.8186,11.8186,11.8186,11.8186,11.8186,11.8186,11.8209,11.8298,11.8453,11.8578,11.8578,11.8636,11.8766,11.8766,11.8766,11.8766,11.8766,11.8766,11.8766,11.8766,11.8766,11.9083,12.1086,12.2788,12.442,12.6539,12.8359,12.971,12.9954,13.0032,13.0032,13.0032,13.0032,13.0032,13.0032,13.0032,13.0032,13.0032,13.0032,13.0032,13.0032,13.0032,13.0032,13.0032,13.0032,13.0032,13.0032,13.0032,13.0032,13.0032,13.0032,13.0032,13.0027,13.0057,12.9969,12.9874,12.9853,12.9844,12.9844,12.9844,12.9844,12.9844,12.9844,12.9844,12.9844,12.9844,12.9839,12.9839,12.9839,12.9839,12.9839,12.9839,12.9839,5.2606,5.4139,5.6233,6.1804,6.6477,7.0943,7.5485,8.0648,8.5311,8.8173,9.0446,9.2537,9.4781,9.6575,9.7903,9.8464,9.8576,9.8576,9.8576,9.8576,9.8931,9.9978,10.0557,10.1753,10.4016,10.5287,10.6371,10.7418,10.7979,10.8278,10.8278,10.8278,10.8278,10.8278,10.8278,10.9886,11.3288,11.3326,11.4971,11.8186,11.8186,11.8186,11.8186,11.8276,11.8298,11.832,11.8465,11.8515,11.8578,11.8692,11.873,11.8766,11.8766,11.8766,11.8766,11.8766,11.8766,11.8802,11.898,11.9019,11.9328,12.1193,12.304,12.4842,12.6594,12.8439,12.9912,13.0032,13.0032,13.0032,13.0032,13.0032,13.0032,13.0032,13.0032,13.0032,13.0032,13.0032,13.0032,13.0032,13.0032,13.0032,13.0032,13.0032,13.0032,13.0032,13.0032,13.0032,13.003,13.003,12.9988,12.9931,12.9922,12.9874,12.9853,12.9844,12.9839,12.9839,12.9839,12.9839,12.9839,12.9839,12.9839,12.9839,12.9839,12.9346,12.8284,12.8284,12.8853,12.9839,12.9839,12.9839,5.4139,5.6692,5.9707,6.5351,7.0795,7.5574,7.8552,8.4131,8.8978,9.0243,9.2601,9.493,9.6613,9.7828,9.8576,9.8576,9.8576,9.8576,9.8576,9.9043,9.9753,10.0781,10.194,10.3567,10.5736,10.6446,10.7194,10.8203,10.8278,10.8278,10.8278,10.8278,10.8278,10.8278,10.8278,10.9325,11.1494,11.2727,11.4971,11.8186,11.8186,11.8209,11.8254,11.832,11.8385,11.8465,11.8573,11.8634,11.8636,11.873,11.8766,11.8766,11.8766,11.8818,11.892,11.882,11.8866,11.9012,11.9098,11.9205,11.9428,12.07,12.238,12.4199,12.5854,12.7669,12.9273,12.988,13.0032,13.0032,13.0032,13.0032,13.0032,13.0032,13.0032,13.0032,13.0032,13.0032,13.0032,13.0032,13.0032,13.0032,13.0032,13.0032,13.0032,13.0032,13.0032,13.0031,13.0027,13.0025,12.9977,12.9874,12.9339,12.9031,12.9009,12.8435,12.8099,12.8099,12.8099,12.8099,12.8099,12.8099,12.8099,12.8099,12.8099,12.7601,12.6614,12.6614,12.7107,12.8099,12.8099,12.8435,5.587,5.9299,6.3521,7.0385,7.4409,7.7969,8.3058,8.665,8.9788,9.2986,9.4968,9.665,9.8277,9.8576,9.8576,9.8576,9.8576,9.8576,9.8576,9.9903,10.093,10.1005,10.3941,10.596,10.6035,10.7381,10.8278,10.8278,10.8278,10.8278,10.8278,10.8278,10.8278,10.8278,10.8278,10.8278,10.8278,11.1643,11.4971,11.8186,11.8209,11.8254,11.8401,11.8363,11.8465,11.859,11.8711,11.8766,11.8766,11.8784,11.8802,11.8802,11.8783,11.8964,11.9125,11.8883,11.9046,11.9348,11.9217,11.9261,11.942,11.9646,12.0898,12.2621,12.4449,12.616,12.7868,12.9539,13.0032,13.0032,13.0032,13.0032,13.0032,13.0032,13.0032,13.0032,13.0032,13.0032,13.0032,13.0032,13.0032,13.0032,13.0032,13.0032,12.9994,12.9918,12.9916,12.9875,12.9798,12.9751,12.9739,12.9608,12.828,12.7399,12.7373,12.5931,12.4987,12.4987,12.4987,12.4987,12.4987,12.4987,12.4987,12.4987,12.4798,12.476,12.4873,12.4873,12.4911,12.4987,12.4987,12.5855,5.8446,6.2738,6.7101,7.5002,7.8501,8.1336,8.6332,8.9951,9.2874,9.4968,9.6725,9.8052,9.8464,9.8576,9.8576,9.8576,9.8576,9.8576,9.8576,9.9903,10.1342,10.2632,10.4651,10.6409,10.7568,10.8016,10.8278,10.8278,10.8278,10.8278,10.8278,10.8278,10.8278,10.8278,10.8278,10.8278,10.8278,11.1643,11.4971,11.8186,11.8276,11.8342,11.8363,11.8457,11.8597,11.873,11.8748,11.8766,11.8784,11.8996,11.9049,11.9079,11.9167,11.9246,11.9288,11.9235,11.9288,11.9385,11.952,11.9606,11.9651,11.9841,12.103,12.2739,12.4451,12.616,12.7868,12.9539,13.0032,13.0032,13.0032,13.0032,13.0032,13.0032,13.0032,13.0032,13.0032,13.0032,13.0032,13.0032,13.0032,13.0032,13.0032,13.0032,12.9615,12.836,12.8169,12.7709,12.6436,12.6278,12.6268,12.6248,12.5869,12.5637,12.5632,12.5253,12.4987,12.4987,12.4987,12.4987,12.4987,12.4987,12.4987,12.4987,12.2516,12.1833,12.3085,12.3085,12.373,12.4987,12.4987,12.5215,5.7992,6.3898,7.0109,7.6399,8.0195,8.3493,8.7887,9.1282,9.3996,9.5678,9.7361,9.8576,9.8576,9.8576,9.8576,9.8576,9.8576,9.8576,9.8576,10.0539,10.2351,10.3305,10.5511,10.7306,10.8203,10.8278,10.8278,10.8278,10.8278,10.8278,10.8278,10.8278,10.8278,10.8278,10.8278,10.8319,10.836,11.1653,11.4235,11.6046,11.7646,11.8406,11.8474,11.852,11.8636,11.8766,11.8766,11.8818,11.8948,11.9107,11.9205,11.925,11.9329,11.9428,11.952,11.9403,11.9475,11.9618,11.9709,11.9775,11.9839,11.9932,12.0579,12.168,12.335,12.5059,12.6767,12.8438,12.9463,13.0032,13.0032,13.0032,13.0032,13.0032,13.0032,12.9653,12.8134,12.783,12.783,12.783,12.783,12.783,12.783,12.783,12.7487,12.6536,12.6416,12.6062,12.5095,12.4971,12.5,12.4987,12.4338,12.3882,12.3882,12.3199,12.2782,12.2782,12.2782,12.2782,12.2782,12.2782,12.2782,12.2782,12.0923,12.0387,12.134,12.134,12.1833,12.2782,12.2782,12.3161,5.6725,6.3847,7.1845,7.6667,8.0857,8.4866,8.8943,9.1767,9.4104,9.6031,9.7602,9.8613,9.8613,9.8576,9.8576,9.8576,9.8576,9.8576,9.8576,10.1361,10.3418,10.3418,10.6296,10.8278,10.8278,10.8278,10.8278,10.8278,10.8278,10.8278,10.8278,10.8278,10.8278,10.8278,10.8278,10.834,10.846,11.1681,11.3329,11.3383,11.6775,11.8453,11.8578,11.8598,11.8673,11.8838,11.8838,11.898,11.9192,11.923,11.9294,11.942,11.9436,11.9568,11.976,11.9504,11.9633,11.9933,11.9788,11.9841,11.9933,11.9933,11.9933,12.0237,12.1946,12.3502,12.5021,12.6691,12.8248,12.9349,12.9349,12.9349,12.9349,12.9349,12.9349,12.8552,12.5628,12.4983,12.4983,12.4983,12.4983,12.4983,12.4983,12.4982,12.4902,12.4673,12.4655,12.456,12.4367,12.4313,12.43,12.43,12.301,12.2137,12.2137,12.0771,11.9932,11.9932,11.9932,11.9932,11.9932,11.9932,11.9932,11.9932,11.9932,11.9932,11.9932,11.9932,11.9932,11.9932,11.9932,12.0733,5.9402,6.4051,6.9807,8.0049,8.3265,8.5542,9.1691,9.345,9.4713,9.7786,9.865,9.8876,9.8876,9.8681,9.8576,9.8576,9.8576,9.8576,9.8576,10.1361,10.3418,10.3418,10.6296,10.8278,10.8278,10.8278,10.8278,10.8278,10.8278,10.8278,10.8278,10.8278,10.8278,10.8278,10.8278,10.834,10.846,11.1681,11.3407,11.3505,11.6916,11.8573,11.8578,11.8711,11.8849,11.9093,11.9093,11.918,11.9339,11.9528,11.9668,11.9694,11.9796,11.9852,11.9893,11.985,11.9893,11.9933,11.9932,11.9933,11.9933,11.9933,11.9933,12.0237,12.1946,12.2667,12.3274,12.4945,12.5628,12.5856,12.5856,12.5856,12.5856,12.5856,12.5856,12.5704,12.5097,12.4983,12.4983,12.4983,12.4983,12.4983,12.4983,12.4982,12.452,12.3096,12.2897,12.2394,12.097,12.0809,12.0809,12.0809,12.0539,12.0349,12.0349,12.0121,11.9932,11.9932,11.9932,11.9932,11.9932,11.9932,11.9932,11.9932,11.9932,11.9932,11.9932,11.9932,11.9932,11.9932,11.9932,12.0083,5.8266,6.3357,6.9319,7.5712,8.0673,8.5746,9.2536,9.4094,9.5036,9.8365,9.9043,9.9043,9.9043,9.8878,9.875,9.875,9.8667,9.8576,9.8576,10.1361,10.3418,10.3418,10.6296,10.8278,10.8278,10.8278,10.8278,10.8278,10.8278,10.8278,10.8278,10.8278,10.8319,10.8381,10.8381,10.8441,10.867,11.1914,11.3546,11.364,11.7057,11.8616,11.8578,11.8711,11.8899,11.9139,11.9241,11.9386,11.9555,11.9689,11.9775,11.9844,11.9932,11.9933,11.9933,11.9933,11.9933,11.9933,11.9933,11.9933,11.9933,11.9933,11.9933,12.0085,12.0921,12.1756,12.2629,12.3426,12.4299,12.4983,12.4983,12.4983,12.4983,12.4983,12.3654,12.2363,12.2363,12.2363,12.2363,12.2363,12.2363,12.2363,12.2363,12.2362,12.2089,12.1265,12.1138,12.086,12.005,11.9932,11.9932,11.9932,11.9932,11.9932,11.9932,11.9932,11.9932,11.9932,11.9932,11.9932,11.9932,11.9932,11.9932,11.9932,11.9932,11.9932,11.9932,11.9932,11.9932,11.9932,11.9932,11.9932,5.756,6.3223,6.9455,7.1399,7.7669,8.5268,9.2534,9.4292,9.5195,9.8145,9.8953,9.9163,9.9207,9.9056,9.8946,9.8981,9.8806,9.8681,9.863,10.1493,10.3535,10.3437,10.634,10.8343,10.8261,10.8278,10.8278,10.8278,10.8278,10.8278,10.8278,10.8278,10.834,10.8441,10.846,10.8575,10.8836,11.2083,11.3753,11.3791,11.7151,11.873,11.8617,11.873,11.8887,11.9093,11.9267,11.9497,11.9775,11.9775,11.9841,11.9933,11.9933,11.9933,11.9933,11.9933,11.9933,11.9933,11.9933,11.9933,11.9933,11.9933,11.9933,11.9933,11.9933,12.0883,12.1908,12.1908,12.2857,12.3882,12.3882,12.3882,12.3882,12.3882,12.187,11.9933,11.9933,11.9933,11.9933,11.9933,11.9933,11.9933,11.9933,11.9931,11.9921,11.9937,11.9949,11.9932,11.9932,11.9932,11.9932,11.9932,11.9932,11.9932,11.9932,11.9932,11.9932,11.9932,11.9932,11.9932,11.9932,11.9932,11.9932,11.9932,11.9932,11.9932,11.9932,11.9932,11.9932,11.9932,11.9932,11.9932,6.0539,6.51,6.9754,7.2871,7.7597,8.3667,9.2035,9.4313,9.5203,9.7128,9.8385,9.9207,9.9437,9.9181,9.8981,9.9119,9.9093,9.9032,9.8931,10.1918,10.3947,10.3459,10.6513,10.8537,10.8282,10.8278,10.8278,10.8278,10.8278,10.8278,10.8278,10.8278,10.834,10.8441,10.846,10.8575,10.8836,11.2083,11.379,11.3916,11.7225,11.8766,11.8748,11.8766,11.8784,11.8818,11.9189,11.9548,11.9933,11.9933,11.9933,11.9933,11.9933,11.9933,11.9933,11.9933,11.9933,11.9933,11.9933,11.9933,11.9933,11.9933,11.9933,11.9933,11.9933,12.0047,12.0161,12.0161,12.0275,12.0389,12.0389,12.0389,12.0389,12.0389,12.0161,11.9933,11.9933,11.9933,11.9933,11.9933,11.9933,11.9933,11.9931,11.9923,11.9951,11.9934,11.9949,11.9932,11.9932,11.9932,11.9932,11.9932,11.9932,11.9932,11.9932,11.9932,11.9932,11.9932,11.9932,11.9932,11.9932,11.9932,11.9932,11.9932,11.9932,11.9932,11.9932,11.9932,11.9932,11.9932,11.9932,11.9932,5.7022,6.23,6.7786,6.9095,7.4591,8.0941,8.5454,8.8831,9.2171,9.6215,9.7599,9.811,9.824,9.8802,9.8985,9.8004,9.8559,9.9105,9.9044,10.1119,10.2928,10.3563,10.5696,10.7429,10.817,10.8278,10.8278,10.8278,10.834,10.8381,10.8381,10.8478,10.8556,10.8689,10.8707,10.8762,10.8848,11.2172,11.3844,11.3971,11.7225,11.8766,11.8766,11.8766,11.8853,11.9004,11.9167,11.9458,11.9834,11.9894,11.9933,11.9933,11.9933,11.9933,11.9933,11.9933,11.9933,11.9933,11.9933,11.9933,11.9933,11.9933,11.9933,11.9933,11.9933,11.9933,11.9933,11.9933,11.9933,11.9933,11.9933,11.9933,11.9933,11.9933,11.9933,11.9933,11.9933,11.9933,11.9933,11.9933,11.9933,11.9932,11.993,11.9917,11.994,11.9934,11.9949,11.9932,11.9932,11.9932,11.9932,11.9932,11.9932,11.9932,11.9932,11.9932,11.9932,11.9932,11.9932,11.9932,11.9932,11.9932,11.9932,11.9932,11.9932,11.9932,11.9932,11.9932,11.9932,11.9932,11.9932,11.9932,5.5062,6.002,6.5454,6.6926,7.2328,7.803,8.0864,8.3822,8.7765,9.4107,9.6061,9.6753,9.7277,9.8147,9.8409,9.7276,9.8363,9.9318,9.9259,10.0774,10.238,10.3647,10.5349,10.6913,10.8153,10.8346,10.8385,10.834,10.8441,10.8537,10.8537,10.8595,10.8725,10.8933,10.8868,10.8903,10.8986,11.2238,11.3934,11.3971,11.7225,11.8835,11.8936,11.8899,11.9004,11.9217,11.9299,11.9496,11.9755,11.989,11.9933,11.9933,11.9933,11.9933,11.9933,11.9933,11.9933,11.9933,11.9933,11.9933,11.9933,11.9933,11.9933,11.9933,11.9933,11.9933,11.9933,11.9933,11.9933,11.9933,11.9933,11.9933,11.9933,11.9933,11.9933,11.9933,11.9933,11.9933,11.9933,11.9933,11.9931,11.9925,11.9923,11.9946,11.993,11.9923,11.9945,11.9932,11.9932,11.9932,11.9932,11.9932,11.9932,11.9932,11.9932,11.9932,11.9932,11.9932,11.9932,11.9932,11.9932,11.9932,11.9932,11.9932,11.9932,11.9932,11.9932,11.9932,11.9932,11.9932,11.9932,11.9932,5.6492,5.9339,6.3027,6.7958,7.1584,7.5189,8.0124,8.049,8.2141,9.0479,9.3502,9.5248,9.7037,9.7199,9.708,9.734,9.8798,9.983,9.9546,10.1203,10.2764,10.367,10.5743,10.7405,10.8176,10.8628,10.8749,10.848,10.8575,10.8651,10.8651,10.8651,10.8773,10.9039,10.8928,10.8982,10.9233,11.2368,11.3934,11.3971,11.7225,11.8944,11.9329,11.9217,11.9241,11.9385,11.9624,11.9747,11.9755,11.989,11.9933,11.9933,11.9933,11.9933,11.9933,11.9933,11.9933,11.9933,11.9933,11.9933,11.9933,11.9933,11.9933,11.9933,11.9933,11.9933,11.9933,11.9933,11.9933,11.9933,11.9933,11.9933,11.9933,11.9933,11.9933,11.9933,11.9933,11.9932,11.993,11.993,11.9923,11.9948,11.9934,11.993,11.9923,11.9936,11.9932,11.9932,11.9932,11.9932,11.9932,11.9932,11.9932,11.9932,11.9932,11.9932,11.9932,11.9932,11.9932,11.9932,11.9932,11.9932,11.9932,11.9932,11.9932,11.9932,11.9932,11.9932,11.9932,11.9932,11.9932,11.9932,5.5348,5.8651,6.2578,6.533,6.8413,7.2394,7.8552,8.0555,8.2275,8.6134,8.8276,9.0064,9.1996,9.5971,9.8655,9.7542,9.8802,9.9895,9.9788,10.0304,10.1593,10.4037,10.4951,10.626,10.8471,10.895,10.9004,10.8772,10.895,10.9057,10.9057,10.9143,10.9212,10.9334,10.9271,10.932,10.9363,11.248,11.4139,11.4326,11.6432,11.81,11.9338,11.9309,11.9319,11.9338,11.9436,11.9599,11.9751,11.9778,11.9845,11.9933,11.9933,11.9933,11.9933,11.9933,11.9933,11.9933,11.9933,11.9933,11.9933,11.9933,11.9933,11.9933,11.9933,11.9933,11.9933,11.9933,11.9933,11.9933,11.9933,11.9933,11.9933,11.9933,11.9933,11.9933,11.9933,11.9933,11.9933,11.993,11.9923,11.9948,11.9934,11.9919,11.9941,11.9936,11.9932,11.9932,11.9932,11.9932,11.9932,11.9932,11.9932,11.9932,11.9932,11.9932,11.9932,11.9932,11.9932,11.9932,11.9932,11.9932,11.9932,11.9932,11.9932,11.9932,11.9932,11.9932,11.9932,11.9932,11.9932,11.9932,5.4724,5.7956,6.1845,6.4831,6.6641,6.9283,7.5343,7.7039,7.858,8.2876,8.4067,8.5301,8.8471,9.3452,9.6981,9.6522,9.7854,9.9182,9.9827,9.9903,10.1087,10.4197,10.4661,10.5841,10.8742,10.9227,10.9288,10.9019,10.92,10.9334,10.9334,10.9407,10.9486,10.9582,10.9494,10.9486,10.9582,11.204,11.3792,11.4737,11.614,11.7815,11.9554,11.9542,11.951,11.9554,11.9554,11.9671,11.9832,11.9832,11.9847,11.9933,11.9933,11.9933,11.9933,11.9933,11.9933,11.9933,11.9933,11.9933,11.9933,11.9933,11.9933,11.9933,11.9933,11.9933,11.9933,11.9933,11.9933,11.9933,11.9933,11.9933,11.9933,11.9933,11.9933,11.9933,11.9933,11.9933,11.993,11.9926,11.9951,11.9934,11.9919,11.9945,11.9932,11.9932,11.9932,11.9932,11.9932,11.9932,11.9932,11.9932,11.9932,11.9932,11.9932,11.9932,11.9932,11.9932,11.9932,11.9932,11.9932,11.9932,11.9932,11.9932,11.9932,11.9932,11.9932,11.9932,11.9932,11.9932,11.9932,11.9932,5.4599,5.7291,6.0838,6.5715,6.5932,6.6245,7.1332,7.1294,7.2354,8.0097,8.0552,8.1048,8.6016,8.9693,9.2694,9.4894,9.6336,9.7812,9.9485,9.9637,10.0703,10.3841,10.4577,10.5937,10.8801,10.944,10.9539,10.9314,10.9386,10.9494,10.9494,10.9494,10.9595,10.981,10.9602,10.9595,10.9852,11.125,11.3024,11.5112,11.6167,11.7852,11.9933,11.9829,11.9834,11.9933,11.9933,11.9933,11.9933,11.9933,11.9933,11.9933,11.9933,11.9933,11.9933,11.9933,11.9933,11.9933,11.9933,11.9933,11.9933,11.9933,11.9933,11.9933,11.9933,11.9933,11.9933,11.9933,11.9933,11.9933,11.9933,11.9933,11.9933,11.9933,11.9933,11.9933,11.9933,11.9928,11.9953,11.9951,11.9927,11.9936,11.9932,11.9932,11.9932,11.9932,11.9932,11.9932,11.9932,11.9932,11.9932,11.9932,11.9932,11.9932,11.9932,11.9932,11.9932,11.9932,11.9932,11.9932,11.9932,11.9932,11.9932,11.9932,11.9932,11.9932,11.9932,11.9932,11.9932,11.9932,11.9932,11.9932,5.4903,5.736,6.0422,6.2925,6.4226,6.6245,7.1332,7.2205,7.247,7.4443,7.5546,7.7292,8.0972,8.4422,8.9355,9.7436,9.6867,9.6032,9.7736,9.6867,9.7285,10.062,10.2197,10.427,10.7441,10.9055,10.9876,10.973,10.9794,10.9896,10.9896,10.9896,10.9899,10.9982,10.9939,10.9901,10.9982,11.1407,11.3126,11.5074,11.5331,11.7041,11.9933,11.9894,11.9932,11.9933,11.9933,11.9933,11.9933,11.9933,11.9933,11.9933,11.9933,11.9933,11.9933,11.9933,11.9933,11.9933,11.9933,11.9933,11.9933,11.9933,11.9933,11.9933,11.9933,11.9933,11.9933,11.9933,11.9933,11.9933,11.9933,11.9933,11.9933,11.9933,11.9933,11.9933,11.9932,11.9929,11.9923,11.9943,11.993,11.9919,11.9936,11.9932,11.9932,11.9932,11.9932,11.9932,11.9932,11.9932,11.9932,11.9932,11.9932,11.9932,11.9932,11.9932,11.9932,11.9932,11.9932,11.9932,11.9932,11.9932,11.9932,11.9932,11.9932,11.9932,11.9932,11.9932,11.9932,11.9932,11.9932,11.9932,5.5017,5.7976,6.1049,6.1201,6.2529,6.4692,6.8221,6.9017,6.97,7.2015,7.2015,7.3004,7.7858,8.021,8.3739,9.0721,9.2966,9.4642,9.7067,9.7261,9.8137,10.0764,10.2589,10.4591,10.715,10.8981,10.9977,10.992,10.9982,11.0024,11.0024,11.0024,11.0024,11.0024,11.0024,11.0024,11.0024,11.0812,11.2103,11.3935,11.4694,11.6365,11.8794,11.9592,11.9933,11.9933,11.9933,11.9933,11.9933,11.9933,11.9933,11.9933,11.9933,11.9933,11.9933,11.9933,11.9933,11.9933,11.9933,11.9933,11.9933,11.9933,11.9933,11.9933,11.9933,11.9933,11.9933,11.9933,11.9933,11.9933,11.9933,11.9933,11.9933,11.9933,11.9933,11.9932,11.993,11.9925,11.9951,11.9934,11.9923,11.9949,11.9936,11.9932,11.9932,11.9932,11.9932,11.9932,11.9932,11.9932,11.9932,11.9932,11.9932,11.9932,11.9932,11.9932,11.9932,11.9932,11.9932,11.9932,11.9932,11.9932,11.9932,11.9932,11.9932,11.9932,11.9932,11.9932,11.9932,11.9932,11.9932,11.9932,5.5017,5.8431,6.1581,5.9911,6.0746,6.238,6.386,6.435,6.5678,6.9779,6.8906,6.9093,7.4481,7.6492,7.8237,8.0855,8.7394,9.3288,9.6514,9.8224,9.9783,10.145,10.3386,10.5248,10.6959,10.8874,11.002,11.0021,11.0024,11.0024,11.0024,11.0024,11.0024,11.0024,11.0024,11.0024,11.0024,11.0024,11.086,11.2568,11.4277,11.5909,11.7466,11.9174,11.9933,11.9933,11.9933,11.9933,11.9933,11.9933,11.9933,11.9933,11.9933,11.9933,11.9933,11.9933,11.9933,11.9933,11.9933,11.9933,11.9933,11.9933,11.9933,11.9933,11.9933,11.9933,11.9933,11.9933,11.9933,11.9933,11.9933,11.9933,11.9933,11.9933,11.9932,11.9928,11.9926,11.9951,11.993,11.9927,11.9949,11.9932,11.9932,11.9932,11.9932,11.9932,11.9932,11.9932,11.9932,11.9932,11.9932,11.9932,11.9932,11.9932,11.9932,11.9932,11.9932,11.9932,11.9932,11.9932,11.9932,11.9932,11.9932,11.9932,11.9932,11.9932,11.9932,11.9932,11.9932,11.9932,11.9932,11.9932,5.5017,5.7559,5.9873,5.829,5.9083,6.0371,6.0728,6.1821,6.2645,6.2083,6.4886,6.731,6.689,7.2622,7.7099,7.6305,8.416,9.1527,9.4765,9.5575,9.6378,9.797,10.0933,10.348,10.5196,10.8159,11.0022,11.0024,11.0024,11.0024,11.0024,11.0024,11.0024,11.0024,11.0024,11.0024,11.0024,11.0024,11.086,11.2568,11.4277,11.5909,11.7466,11.9174,11.9933,11.9933,11.9933,11.9933,11.9933,11.9933,11.9933,11.9933,11.9933,11.9933,11.9933,11.9933,11.9933,11.9933,11.9933,11.9933,11.9933,11.9933,11.9933,11.9933,11.9933,11.9933,11.9933,11.9933,11.9933,11.9933,11.9933,11.9933,11.9931,11.9931,11.9925,11.9953,11.9943,11.9934,11.9927,11.9945,11.9936,11.9932,11.9932,11.9932,11.9932,11.9932,11.9932,11.9932,11.9932,11.9932,11.9932,11.9932,11.9932,11.9932,11.9932,11.9932,11.9932,11.9932,11.9932,11.9932,11.9932,11.9932,11.9932,11.9932,11.9932,11.9932,11.9932,11.9932,11.9932,11.9932,11.9932,11.9932,5.6155,5.9418,6.2228,6.0571,6.0074,5.9996,6.0041,5.9927,5.9813,6.0044,6.1864,6.376,6.4747,6.8808,7.2641,7.4693,8.1143,8.7066,9.0372,9.3985,9.6913,9.855,10.1736,10.4128,10.489,10.8045,11.0021,11.0023,11.0024,11.0024,11.0024,11.0024,11.0024,11.0024,11.0024,11.0024,11.0024,11.0024,11.0404,11.1201,11.291,11.458,11.6213,11.7845,11.906,11.9933,11.9933,11.9933,11.9933,11.9933,11.9933,11.9933,11.9933,11.9933,11.9933,11.9933,11.9933,11.9933,11.9933,11.9933,11.9933,11.9933,11.9933,11.9933,11.9933,11.9933,11.9933,11.9933,11.9933,11.9933,11.9933,11.9932,11.993,11.993,11.9919,11.994,11.9934,11.9923,11.9949,11.9936,11.9932,11.9932,11.9932,11.9932,11.9932,11.9932,11.9932,11.9932,11.9932,11.9932,11.9932,11.9932,11.9932,11.9932,11.9932,11.9932,11.9932,11.9932,11.9932,11.9932,11.9932,11.9932,11.9932,11.9932,11.9932,11.9932,11.9932,11.9932,11.9932,11.9932,11.9932,11.9932,5.9195,0.0,6.5799,6.4483,6.2701,6.0992,0.0,5.8757,5.7659,5.8192,5.9216,6.081,6.3317,6.5784,6.8859,7.3149,7.8044,8.2601,8.6362,9.194,9.6573,9.9087,10.2311,10.451,10.4928,10.8046,11.0022,11.0022,11.0024,11.0024,11.0024,11.0024,11.0024,11.0024,11.0024,11.0024,11.0024,11.0024,11.0024,11.0024,11.1733,11.3441,11.515,11.6706,11.8339,11.9933,11.9933,11.9933,11.9933,11.9933,11.9933,11.9933,11.9933,11.9933,11.9933,11.9933,11.9933,11.9933,11.9933,11.9933,11.9933,11.9933,11.9933,11.9933,11.9933,11.9933,11.9933,11.9933,11.9933,11.9933,11.9933,11.993,11.9926,11.9925,11.9946,11.9923,11.9923,11.9949,11.9932,11.9932,11.9932,11.9932,11.9932,11.9932,11.9932,11.9932,11.9932,11.9932,11.9932,11.9932,11.9932,11.9932,11.9932,11.9932,11.9932,11.9932,11.9932,11.9932,11.9932,11.9932,11.9932,11.9932,11.9932,11.9932,11.9932,11.9932,11.9932,11.9932,11.9932,11.9932,11.9932,11.9932,0.0,6.8163,6.9609,6.9465,6.7,6.3775,6.0739,5.8764,0.0,5.3641,5.6789,6.0127,6.0357,6.4267,6.81,6.9999,7.4591,7.9605,8.4432,8.8263,9.2322,9.7188,10.0646,10.3228,10.4823,10.805,11.0024,11.0024,11.0024,11.0024,11.0024,11.0024,11.0024,11.0024,11.0024,11.0024,11.0024,11.0024,11.0024,11.0024,11.1733,11.3441,11.515,11.6706,11.8339,11.9933,11.9933,11.9933,11.9933,11.9933,11.9933,11.9933,11.9933,11.9933,11.9933,11.9933,11.9933,11.9933,11.9933,11.9933,11.9933,11.9933,11.9933,11.9933,11.9933,11.9933,11.9933,11.9931,11.9932,11.9933,11.9921,11.9917,11.9951,11.9937,11.9919,11.9936,11.9936,11.9936,11.9932,11.9932,11.9932,11.9932,11.9932,11.9932,11.9932,11.9932,11.9932,11.9932,11.9932,11.9932,11.9932,11.9932,11.9932,11.9932,11.9932,11.9932,11.9932,11.9932,11.9932,11.9932,11.9932,11.9932,11.9932,11.9932,11.9932,11.9932,11.9932,11.9932,11.9932,11.9932,11.9932,11.9932,7.1091,7.2647,7.2875,7.1824,6.9017,6.5639,6.2298,5.8655,5.558,5.4328,5.558,5.7896,6.1047,6.3971,6.7463,7.2323,7.5626,7.9271,8.4243,8.8761,9.2672,9.5671,9.9811,10.3115,10.4823,10.7101,10.8885,10.9948,11.0024,11.0024,11.0024,11.0024,11.0024,11.0024,11.0024,11.0024,11.0024,11.0024,11.0024,11.0024,11.067,11.1885,11.3555,11.5226,11.6858,11.8415,11.9478,11.9933,0.0,11.9933,11.9933,11.9933,11.9933,11.9933,11.9933,11.9933,11.9933,11.9933,11.9933,11.9933,11.9933,11.9933,11.9933,11.9933,11.9933,11.9933,11.9933,11.9931,11.9931,11.9931,11.9919,11.9946,11.994,11.9934,11.9953,11.9932,11.9932,11.9932,11.9932,11.9932,11.9932,11.9932,11.9932,11.9932,11.9932,11.9932,11.9932,11.9932,11.9932,11.9932,11.9932,11.9932,11.9932,11.9932,11.9932,11.9932,11.9932,11.9932,11.9932,11.9932,11.9932,11.9932,11.9932,11.9932,11.9932,11.9932,11.9932,11.9932,11.9932,11.9932,11.9932,11.9932,7.4401,7.5426,7.5425,7.3725,7.1146,6.8185,6.4766,6.0972,5.786,5.6835,5.7024,5.8619,6.2605,6.4617,6.7769,7.4033,7.6007,7.8855,8.489,8.8725,9.1952,9.4723,9.852,10.1558,10.3191,10.5848,10.8202,10.9873,11.0024,11.0024,11.0024,11.0024,11.0024,11.0024,11.0024,11.0024,11.0024,11.0024,11.0024,11.0024,11.0024,11.0898,11.2606,11.3745,11.5415,11.7466,11.8643,11.944,11.9933,11.9933,11.9933,11.9933,11.9933,11.9933,11.9933,11.9933,11.9933,11.9933,11.9933,11.9933,11.9933,11.9933,11.9933,11.9933,11.9933,11.9933,11.9933,11.9932,11.9931,11.9926,11.9946,11.9934,11.993,11.9923,11.9945,11.9932,11.9932,11.9932,11.9932,11.9932,11.9932,11.9932,11.9932,11.9932,11.9932,11.9932,11.9932,11.9932,11.9932,11.9932,11.9932,11.9932,11.9932,11.9932,11.9932,11.9932,11.9932,11.9932,11.9932,11.9932,11.9932,11.9932,11.9932,11.9932,11.9932,11.9932,11.9932,11.9932,11.9932,11.9932,11.9932,11.9932,7.5054,7.627,7.7142,7.5472,7.3766,7.1641,6.8259,6.6135,6.401,6.0783,6.1428,6.3061,6.4655,6.6326,6.9135,7.4185,7.5058,7.8019,8.6296,8.7509,8.9407,9.4458,9.6584,9.8216,9.9774,10.4519,10.8164,10.9873,11.0024,11.0024,11.0024,11.0024,11.0024,11.0024,11.0024,11.0024,11.0024,11.0024,11.0024,11.0024,11.0024,11.0898,11.253,11.253,11.4314,11.7352,11.7352,11.8339,11.9933,11.9933,11.9933,11.9933,11.9933,11.9933,11.9933,11.9933,11.9933,11.9933,11.9933,11.9933,11.9933,11.9933,11.9933,11.9933,11.9933,11.9933,11.9933,11.9933,11.9932,11.9925,11.9953,11.9953,11.9927,11.9941,11.9932,11.9932,11.9932,11.9932,11.9932,11.9932,11.9932,11.9932,11.9932,11.9932,11.9932,11.9932,11.9932,11.9932,11.9932,11.9932,11.9932,11.9932,11.9932,11.9932,11.9932,11.9932,11.9932,11.9932,11.9932,11.9932,11.9932,11.9932,11.9932,11.9932,11.9932,11.9932,11.9932,11.9932,11.9932,11.9932,11.9932,11.9932,7.6495,7.6307,7.5663,7.5133,7.3767,7.1907,6.9742,6.7009,6.4655,6.3668,6.2985,6.3441,6.6174,6.811,7.0123,7.2818,7.7184,8.1512,8.5195,8.9789,9.3813,9.6509,9.8255,9.9394,9.9888,10.3418,10.6911,10.9797,11.0024,11.0024,11.0024,11.0024,11.0024,11.0024,11.0024,11.0024,11.0024,11.0024,11.0024,11.0024,11.0024,11.029,11.0822,11.1999,11.3062,11.4049,11.5264,11.6668,11.8149,11.8149,11.887,11.9933,11.9933,11.9933,11.9933,11.9933,11.9933,11.9933,11.9933,11.9933,11.9933,11.9933,11.9933,11.9933,11.9933,11.9933,11.9932,11.9932,11.9923,11.9943,11.9927,11.9953,11.9945,11.9936,11.9932,11.9932,11.9932,11.9932,11.9932,11.9932,11.9932,11.9932,11.9932,11.9932,11.9932,11.9932,11.9932,11.9932,11.9932,11.9932,11.9932,11.9932,11.9932,11.9932,11.9932,11.9932,11.9932,11.9932,11.9932,11.9932,11.9932,11.9932,11.9932,11.9932,11.9932,11.9932,11.9932,11.9932,11.9932,11.9932,11.9932,11.9932,7.6461,7.6309,7.5854,7.521,7.4792,7.3729,7.0692,6.8946,6.7389,6.5339,6.4693,6.5339,6.7958,6.9857,7.1983,7.502,7.9424,8.3714,8.7435,9.2067,9.5901,9.8255,9.9356,9.9926,9.9926,10.2355,10.5089,10.7822,10.9265,11.0024,11.0024,11.0024,11.0024,11.0024,11.0024,11.0024,11.0024,11.0024,11.0024,11.0024,11.0024,11.0024,11.0062,11.1087,11.1923,11.2606,11.3631,11.496,11.6479,11.6479,11.7086,11.8073,11.8681,11.8908,11.8984,11.9668,11.9933,11.9933,11.9933,11.9933,11.9933,11.9933,11.9933,11.9933,11.9933,11.9932,11.9929,11.9926,11.9951,11.993,11.993,11.9953,11.9932,11.9932,11.9932,11.9932,11.9932,11.9932,11.9932,11.9932,11.9932,11.9932,11.9932,11.9932,11.9932,11.9932,11.9932,11.9932,11.9932,11.9932,11.9932,11.9932,11.9932,11.9932,11.9932,11.9932,11.9932,11.9932,11.9932,11.9932,11.9932,11.9932,11.9932,11.9932,11.9932,11.9932,11.9932,11.9932,11.9932,11.9932,11.9932,11.9932,7.5514,7.6159,7.6956,7.5438,7.6311,7.6311,7.1527,7.1755,7.1603,6.682,6.7085,6.8604,7.016,7.1831,7.4527,7.931,8.1778,8.5309,9.1649,9.4231,9.6585,9.9546,9.9926,9.9926,9.9926,10.1444,10.3077,10.4633,10.7898,10.9797,10.9797,10.9948,11.0024,11.0024,11.0024,11.0024,11.0024,11.0024,11.0024,11.0024,11.0024,11.0024,11.0024,11.0024,11.086,11.2302,11.2302,11.3289,11.4846,11.4846,11.4922,11.5226,11.663,11.72,11.739,11.8908,11.9478,11.9516,11.963,11.9706,11.9706,11.9895,11.9744,11.9478,11.9474,11.9473,11.9509,11.9649,11.9712,11.9737,11.9889,11.9949,11.9932,11.9932,11.9932,11.9932,11.9932,11.9932,11.9932,11.9932,11.9932,11.9932,11.9932,11.9932,11.9932,11.9932,11.9932,11.9932,11.9932,11.9932,11.9932,11.9932,11.9932,11.9932,11.9932,11.9932,11.9932,11.9932,11.9932,11.9932,11.9932,11.9932,11.9932,11.9932,11.9932,11.9932,11.9932,11.9932,11.9932,11.9932,11.9932,11.9932,7.5514,7.5286,7.5476,7.5134,7.6311,7.6918,7.4489,7.5248,7.5779,7.335,7.316,7.3501,7.3881,7.5362,7.726,7.969,8.4739,8.9333,9.2143,9.6167,9.9128,9.985,9.9926,9.9926,9.9926,10.1444,10.2583,10.2963,10.6114,10.805,10.805,10.9303,11.0024,11.0024,11.0024,11.0024,11.0024,11.0024,11.0024,11.0024,11.0024,11.0024,11.0024,11.0024,11.0214,11.0556,11.0556,11.1505,11.31,11.31,11.3859,11.5112,11.5453,11.5567,11.5605,11.5985,11.6137,11.6289,11.7542,11.7959,11.8149,11.9516,11.8186,11.6095,11.5975,11.5965,11.6261,11.7584,11.795,11.8275,11.9599,11.9936,11.9932,11.9932,11.9932,11.9932,11.9932,11.9932,11.9932,11.9932,11.9932,11.9932,11.9932,11.9932,11.9932,11.9932,11.9932,11.9932,11.9932,11.9932,11.9932,11.9932,11.9932,11.9932,11.9932,11.9932,11.9932,11.9932,11.9932,11.9932,11.9932,11.9932,11.9932,11.9932,11.9932,11.9932,11.9932,11.9932,11.9932,11.9932,11.9932,11.9932,7.5703,7.6235,7.745,7.745,7.8703,7.9234,7.6804,7.7564,7.783,7.4489,7.4451,7.502,7.502,7.6425,7.8893,8.2955,8.7207,9.1155,9.4496,9.7799,9.9926,9.9926,9.9926,9.9926,9.9926,10.0723,10.1558,10.2393,10.4064,10.5051,10.5051,10.7443,10.9189,10.9986,11.0024,11.0024,11.0024,11.0024,11.0024,11.0024,11.0024,11.0024,11.0024,11.0024,11.0024,11.0024,11.0024,11.0518,11.1353,11.1353,11.1847,11.272,11.3555,11.3859,11.3973,11.477,11.5074,11.5188,11.6023,11.6289,11.6403,11.7235,11.6359,11.4988,11.49,11.4892,11.5072,11.5935,11.6188,11.6408,11.7276,11.7503,11.7503,11.7503,11.7503,11.7503,11.7503,11.7503,11.7769,11.857,11.8722,11.8988,11.978,11.9932,11.9932,11.9932,11.9932,11.9932,11.9932,11.8528,11.7503,11.7503,11.7503,11.7503,11.7503,11.7503,11.7503,11.7503,11.7503,11.7503,11.7503,11.7503,11.7503,11.7503,11.7503,11.7503,11.7503,11.7503,11.7503,11.7503,11.7503,11.7503,7.5703,7.7298,7.9652,7.9652,8.1057,8.1702,7.9006,7.9728,7.9728,7.5552,7.5324,7.5893,7.5893,7.726,8.0297,8.6106,8.8953,9.2105,9.6888,9.8673,9.9584,9.9888,9.9926,9.9926,9.9926,9.9926,10.0495,10.19,10.1976,10.2128,10.2431,10.5089,10.7519,10.9531,10.9569,10.9721,11.0024,11.0024,11.0024,11.0024,11.0024,11.0024,11.0024,11.0024,11.0024,11.0024,11.0024,11.0024,11.0024,11.0024,11.0024,11.0176,11.1543,11.2112,11.2264,11.3669,11.4201,11.4239,11.4542,11.4618,11.458,11.4149,11.4029,11.4027,11.4051,11.4044,11.4117,11.4363,11.4435,11.451,11.481,11.4885,11.4885,11.4885,11.4885,11.4885,11.4885,11.4885,11.5307,11.6673,11.6977,11.7394,11.8793,11.9059,11.9059,11.9059,11.9059,11.9059,11.9059,11.6593,11.4885,11.4885,11.4885,11.4885,11.4885,11.4885,11.4885,11.4885,11.4885,11.4885,11.4885,11.4885,11.4885,11.4885,11.4885,11.4885,11.4885,11.4885,11.4885,11.4885,11.4885,11.4885,7.4754,7.6425,7.7905,7.7905,8.0183,8.2309,8.1892,8.3069,8.4094,8.3448,8.1246,7.9424,7.9424,8.0715,8.2537,8.4891,8.9181,9.3471,9.7078,9.7761,9.8407,9.9774,9.9926,9.9926,9.9926,9.9926,10.0001,10.0229,10.0229,10.0875,10.2355,10.2887,10.4557,10.7746,10.7822,10.8544,10.9986,11.0024,11.0024,11.0024,11.0024,11.0024,11.0024,11.0024,11.0024,11.0024,11.0024,11.0024,11.0024,11.0024,11.0024,11.0024,11.029,11.0366,11.0404,11.0594,11.0708,11.0898,11.2377,11.2869,11.2639,11.1139,11.0673,11.067,11.0652,11.0644,11.0948,11.231,11.2689,11.3031,11.451,11.4885,11.4885,11.4885,11.4885,11.4885,11.4885,11.4885,11.4923,11.5193,11.5231,11.5307,11.553,11.5568,11.5568,11.5568,11.5568,11.5568,11.5568,11.5151,11.4885,11.4885,11.4885,11.4885,11.4885,11.4885,11.4885,11.4885,11.4885,11.4885,11.4885,11.4885,11.4885,11.4885,11.4885,11.4885,11.4885,11.4885,11.4885,11.4885,11.4885,11.4885,7.483,7.6273,7.7564,7.7564,7.8627,7.9956,8.0905,8.3107,8.4929,8.4929,8.3069,8.1398,8.1398,8.1246,8.2575,8.7055,9.0434,9.4041,9.8293,9.89,9.9128,9.985,9.9926,9.9926,9.9926,9.9926,9.9926,9.9926,9.9926,10.0229,10.0989,10.19,10.3115,10.4633,10.5582,10.6873,10.8582,10.9569,11.0024,11.0024,11.0024,11.0024,11.0024,11.0024,11.0024,11.0023,11.0023,11.0022,11.0019,11.0019,11.0019,11.0019,11.0019,11.0021,11.0023,11.002,11.0021,11.0137,11.089,11.1112,11.1028,11.0246,11.0007,11.0007,11.0033,11.0033,11.0147,11.0868,11.1058,11.1209,11.1968,11.2158,11.2158,11.2158,11.2158,11.2158,11.2158,11.2158,11.2158,11.2158,11.2879,11.379,11.4734,11.4885,11.4885,11.4885,11.4885,11.4202,11.2386,11.2158,11.2158,11.2158,11.2158,11.2158,11.2158,11.2158,11.2158,11.2158,11.2158,11.2158,11.2158,11.2158,11.2158,11.2158,11.2158,11.2158,11.2158,11.2158,11.2158,11.2158,11.2158,11.2158,7.4564,7.5628,7.6463,7.7336,7.7905,7.8513,7.9804,8.2272,8.4436,8.4853,8.36,8.2537,8.2993,8.212,8.3069,8.8498,9.1155,9.4117,9.8673,9.9318,9.947,9.9888,9.9926,9.9926,9.9926,9.9926,9.9926,9.9926,9.9926,9.9926,9.9926,10.1102,10.1976,10.2431,10.3646,10.5127,10.6835,10.8088,10.8961,10.9379,10.9797,11.0024,11.0024,11.0024,11.0023,11.0018,11.0018,11.0015,11.0008,11.0008,11.0008,11.0008,11.0008,11.0012,11.0016,11.001,11.0012,11.0016,11.0003,11.0028,11.0015,11.0037,11.0033,11.0033,11.0033,11.0033,11.0033,11.0033,11.0033,11.0033,11.0033,11.0033,11.0033,11.0033,11.0033,11.0033,11.0033,11.0033,11.0033,11.0033,11.0944,11.2158,11.341,11.3633,11.3633,11.3633,11.3633,11.2765,11.0337,11.0033,11.0033,11.0033,11.0033,11.0033,11.0033,11.0033,11.0033,11.0033,11.0033,11.0033,11.0033,11.0033,11.0033,11.0033,11.0033,11.0033,11.0033,11.0033,11.0033,11.0033,11.0033,11.0033,7.3274,7.3919,7.3539,7.6766,7.8779,7.9994,8.007,8.136,8.2993,8.4625,8.36,8.2917,8.4511,8.4739,8.5347,8.7283,9.0358,9.3737,9.723,9.7686,9.8255,9.9736,9.9926,9.9926,9.9926,9.9926,9.9926,9.9926,9.9926,9.9926,9.9926,10.0001,10.0799,10.2393,10.2507,10.338,10.5089,10.5165,10.6038,10.7633,10.9227,11.0024,11.002,11.002,11.0016,11.0008,11.0008,11.0008,11.0008,11.0008,11.0008,11.0008,11.0008,11.0008,11.0008,11.0008,11.0008,11.0005,11.0011,11.0033,11.0033,11.0033,11.0033,11.0033,11.0033,11.0033,11.0033,11.0033,11.0033,11.0033,11.0033,11.0033,11.0033,11.0033,11.0033,11.0033,11.0033,11.0033,11.0033,11.0033,11.0071,11.0185,11.0261,11.0261,11.0261,11.0261,11.0261,11.0223,11.0033,11.0033,11.0033,11.0033,11.0033,11.0033,11.0033,11.0033,11.0033,11.0033,11.0033,11.0033,11.0033,11.0033,11.0033,11.0033,11.0033,11.0033,11.0033,11.0033,11.0033,11.0033,11.0033,11.0033,6.8946,7.054,7.1451,7.3729,7.4754,7.5779,7.7981,7.9728,8.1095,8.1702,8.2158,8.2613,8.3221,8.4208,8.5499,8.7207,9.1231,9.4572,9.5787,9.7761,9.928,9.985,9.9926,9.9926,9.9926,9.9926,9.9926,9.9926,9.9926,9.9926,9.9926,9.9926,10.0191,10.0799,10.0799,10.1634,10.3342,10.3342,10.4178,10.5886,10.7594,10.8388,10.8421,10.952,11.0008,11.0033,11.0033,11.0028,11.0015,11.0015,11.0015,11.0015,11.0015,11.0025,11.0031,11.0021,11.0025,11.0031,11.0003,11.0033,11.0033,11.0033,11.0033,11.0033,11.0033,11.0033,11.0033,11.0033,11.0033,11.0033,11.0033,11.0033,11.0033,11.0033,11.0033,11.0033,11.0033,11.0033,11.0033,11.0033,11.0033,11.0033,11.0033,11.0033,11.0033,11.0033,11.0033,11.0033,11.0033,11.0033,11.0033,11.0033,11.0033,11.0033,11.0033,11.0033,11.0033,11.0033,11.0033,11.0033,11.0033,11.0033,11.0033,11.0033,11.0033,11.0033,11.0033,11.0033,11.0033,11.0033,10.994,10.9892,6.6554,6.8262,6.9667,7.1945,7.2514,7.3084,7.5362,7.7184,7.8551,7.912,8.0525,8.1968,8.3069,8.3714,8.5005,8.7852,9.0662,9.332,9.5597,9.7268,9.8673,9.9774,9.9926,9.9926,9.9926,9.9926,9.9926,9.9926,9.9926,9.9926,9.9926,9.9926,9.9926,9.9926,9.9926,10.0457,10.1596,10.1596,10.2431,10.4138,10.5274,10.6105,10.6669,10.7802,10.8626,10.918,10.918,10.9514,11.0033,11.0033,11.0033,11.0033,11.0033,11.0003,11.0015,11.0037,11.0003,11.0011,11.0037,11.0033,11.0033,11.0033,11.0033,11.0033,11.0033,11.0033,11.0033,11.0033,11.0033,11.0033,11.0033,11.0033,11.0033,11.0033,11.0033,11.0033,11.0033,11.0033,11.0033,11.0033,11.0033,11.0033,11.0033,11.0033,11.0033,11.0033,11.0033,11.0033,11.0033,10.9892,10.9772,10.9727,10.9682,10.9682,10.9682,10.9766,10.9772,10.9689,10.9766,10.9772,10.9689,10.963,10.9622,10.9622,10.9622,10.9622,10.9645,10.9622,10.9622,10.9645,10.9537,10.9483,6.6326,6.7199,6.8034,7.1375,7.2287,7.2362,7.24,7.3691,7.5362,7.707,7.8817,8.0981,8.4132,8.3524,8.4094,8.9029,8.8574,8.9827,9.6357,9.6053,9.6281,9.9394,9.985,9.9888,9.985,9.9888,9.9888,9.9925,9.9925,9.9925,9.9926,9.9926,9.9926,9.9926,9.9926,9.9925,9.9923,9.9923,10.0717,10.2378,10.2378,10.3251,10.4883,10.4909,10.584,10.7415,10.7415,10.8364,10.9881,10.9881,10.9881,10.9881,10.9919,10.9957,10.9957,10.9881,10.9881,10.9881,10.9881,10.9881,10.9881,10.9919,10.9957,10.9957,10.9995,11.0033,11.0033,11.0033,11.0033,11.0033,11.0033,11.0033,11.0033,11.0033,11.0033,11.0033,11.0033,11.0033,11.0033,11.0033,11.0033,11.0033,11.0033,11.0033,11.0033,11.0033,10.9991,10.9987,10.9987,10.9658,10.9335,10.9069,10.9044,10.9044,10.9044,10.9296,10.9335,10.9057,10.9268,10.9288,10.9057,10.8891,10.8851,10.8851,10.8775,10.8786,10.879,10.871,10.871,10.8714,10.8714,10.8737,6.1201,6.2112,6.2643,6.4769,6.7085,6.9173,7.0388,7.1034,7.1831,7.3539,7.6235,7.8513,7.9424,8.2158,8.4701,8.6106,8.8004,8.9523,9.0168,9.4079,9.6774,9.6433,9.8483,9.9392,9.8075,9.8971,9.9692,9.9739,9.9692,9.9707,9.9885,9.9924,9.9923,9.9918,9.9917,9.9917,9.9914,9.9914,10.0142,10.0632,10.0625,10.1493,10.3123,10.3146,10.4046,10.567,10.567,10.5935,10.6353,10.6353,10.6353,10.6467,10.7719,10.8212,10.8022,10.6808,10.6353,10.6353,10.6353,10.6353,10.658,10.7795,10.8212,10.844,10.9654,11.0033,11.0033,11.0033,11.0033,11.0033,11.0033,11.0033,11.0033,11.0033,11.0033,11.0033,11.0033,11.0033,11.0033,11.0033,11.0033,11.0033,11.0033,11.0033,11.0033,11.0033,10.9607,10.9324,10.9324,10.9233,10.9128,10.9057,10.9044,10.9044,10.9044,10.9105,10.9117,10.9044,10.9031,10.9006,10.8929,10.8861,10.8856,10.8856,10.7664,10.7023,10.7033,10.5793,10.5203,10.5214,10.5196,10.5868,5.7214,5.8467,5.9416,6.1125,6.2453,6.4124,6.7161,6.7845,6.8528,7.0876,7.2968,7.502,7.7103,7.9308,8.1284,8.2689,8.5688,8.7777,8.7511,9.1459,9.4572,9.499,9.6004,9.6798,9.7064,9.7275,9.8021,9.9462,9.9529,9.9574,9.9737,9.9872,9.9917,9.991,9.991,9.9908,9.9904,9.9904,9.9902,9.9894,9.9923,10.0451,10.1397,10.139,10.1914,10.29,10.3621,10.4304,10.4987,10.4987,10.4987,10.5063,10.6049,10.6429,10.6315,10.5328,10.4987,10.4987,10.4987,10.4987,10.5139,10.6125,10.6429,10.6618,10.7605,10.7844,10.778,10.7896,10.7844,10.7931,10.8773,10.8971,10.9161,10.9844,11.0033,11.0033,11.0033,11.0033,11.0033,11.0033,10.9887,10.9778,10.9778,10.9689,10.9607,10.9607,10.9216,10.895,10.9032,10.8865,10.876,10.888,10.8791,10.8681,10.8648,10.8738,10.8753,10.8561,10.7966,10.759,10.7479,10.6753,10.6324,10.6324,10.5349,10.4824,10.477,10.3848,10.3378,10.3325,10.3309,10.3497,5.4025,5.5809,5.7594,5.8885,5.8239,5.8429,0.0,6.382,6.4768,6.8007,6.8938,7.0615,7.5374,7.5429,7.5893,7.95,8.2347,8.4738,8.6598,8.8497,9.0813,9.3811,9.2637,9.2841,9.6098,9.5021,9.5412,9.8533,9.8834,9.8988,9.9228,9.9637,9.9861,9.9861,9.9861,9.9894,9.9879,9.9834,9.9819,9.9835,9.9835,9.9835,9.9835,9.9835,9.9835,9.9911,10.139,10.2908,10.4311,10.4358,10.4363,10.4367,10.4603,10.4557,10.4311,10.4358,10.4358,10.4311,10.4363,10.4358,10.4349,10.4539,10.4614,10.4652,10.4842,10.4743,10.4606,10.4832,10.4749,10.4985,10.6734,10.7128,10.7502,10.9014,10.9356,10.9432,10.9621,10.9616,10.9692,10.9882,10.963,10.9372,10.9381,10.9185,10.8855,10.845,10.8164,10.8105,10.8333,10.8142,10.8064,10.829,10.8255,10.814,10.7846,10.7824,10.7693,10.7355,10.6225,10.5479,10.5267,10.368,10.2793,10.2793,10.2644,10.2501,10.2384,10.2278,10.2204,10.2087,10.2087,10.1158,0.0,0.0,0.0,0.0,0.0,0.0,0.0,5.6948,5.7898,6.1237,6.3061,6.5111,6.8716,7.1287,7.4383,7.9167,7.9321,7.9837,8.269,8.5812,8.8027,8.8571,8.8301,8.93,9.2479,9.2361,9.2931,9.4957,9.5021,9.5667,9.7238,9.8771,9.9587,9.9594,9.9594,9.9594,9.9588,9.9373,9.9289,9.9279,9.9279,9.9279,9.9279,9.9279,9.9279,9.9317,9.9658,9.996,10.0282,10.0508,10.0559,10.0724,10.2343,10.1843,10.0282,10.0515,10.0438,10.0292,10.0515,10.0438,10.0499,10.187,10.2286,10.2551,10.3912,10.4453,10.4583,10.4651,10.4599,10.4659,10.503,10.4981,10.4906,10.5246,10.5322,10.569,10.7051,10.7273,10.7579,10.8852,10.9032,10.898,10.8956,10.8918,10.7841,10.4658,10.4159,10.4138,10.4203,10.5292,10.6101,10.6172,10.7242,10.7437,10.6147,10.4817,10.4071,10.3978,10.3627,10.3397,10.3345,10.291,10.2654,10.2654,10.1428,10.0773,10.075,9.9399,9.873,9.8745,9.8745,9.7148,0.0,0.0,0.0,0.0,0.0,0.0,0.0,0.0,0.0,0.0,0.0,6.1048,6.4304,0.0,6.9386,7.2018,7.5817,7.8425,7.8345,8.2063,8.4342,8.3246,8.385,8.5919,8.9882,8.9465,9.0287,9.3549,9.3854,9.3978,9.4167,9.6699,9.7775,9.6916,9.8486,9.9309,9.9309,9.9207,9.914,9.914,9.914,9.914,9.914,9.914,9.914,9.914,9.914,9.914,9.9152,9.9269,9.9309,9.9441,10.0408,10.0103,9.9163,9.9269,9.9249,9.9163,9.9279,9.9239,9.9253,10.0133,10.0409,10.056,10.1429,10.1693,10.1765,10.1833,10.1819,10.1954,10.2901,10.298,10.3066,10.3897,10.4024,10.4225,10.5093,10.5218,10.5405,10.616,10.623,10.6129,10.6138,10.5959,10.5221,10.3319,10.3009,10.3009,10.3009,10.3754,10.4,10.3217,10.3814,10.4,10.3217,10.2295,10.2101,10.2846,10.2064,10.1549,10.1549,10.0685,10.0193,10.0193,9.867,9.7853,9.7853,9.6182,9.5365,9.5306,9.3657,9.2469,0.0,0.0,0.0,0.0,0.0,0.0,0.0,0.0,0.0,0.0,0.0,0.0,0.0,0.0,0.0,6.5105,7.1927,7.6472,7.4814,7.7242,7.9163,7.9078,7.9727,8.2201,8.7353,8.6048,8.6749,9.1266,9.1811,9.164,9.1039,9.4332,9.5607,9.4248,9.6754,9.8289,9.8628,9.8529,9.8692,9.9032,9.9032,0.0,9.9032,9.9032,9.9032,9.9032,9.9032,9.9032,9.9032,9.9032,9.907,9.9107,9.9057,9.8805,9.8479,9.8227,9.8102,9.8064,9.8114,9.829,9.8541,9.8541,9.873,9.9032,9.9032,9.8948,0.0,9.9044,9.899,9.9276,10.0742,10.1018,10.1226,10.2596,10.2803,10.2797,10.3136,10.3196,10.3257,10.3558,10.345,10.3292,10.3311,10.2487,10.1774,10.1602,10.1826,10.19,10.1602,10.2124,10.2012,10.0767,10.0879,10.0953,10.0655,10.0211,10.0501,10.1766,10.0276,9.9376,9.9376,9.7742,9.6851,9.6851,9.5254,9.4496,9.4496,9.31,9.2261,9.1874,8.6675,8.5636,0.0,0.0,0.0,0.0,0.0,0.0,0.0,0.0,0.0,0.0,0.0,0.0,0.0,0.0,0.0,0.0,6.7584,6.9722,7.3722,7.0922,7.1054,7.8098,7.656,7.742,8.3742,8.157,8.1166,8.4611,8.4921,8.6097,8.8808,9.2324,0.0,0.0,0.0,9.5227,9.6695,9.65,9.7132,9.863,9.863,9.863,9.863,9.863,9.863,9.863,9.863,9.863,9.863,9.863,9.8746,9.8946,9.8716,9.7694,9.6231,9.4976,9.4322,9.4171,9.4375,0.0,0.0,9.6366,9.7394,9.863,9.863,9.8695,9.8785,9.8908,9.8863,9.8838,9.9148,9.8992,9.8762,9.8949,9.8891,9.9223,10.0699,10.0953,10.1279,10.2658,10.2824,10.2756,10.2868,10.0353,9.7876,9.6487,9.749,9.7861,9.6449,9.8827,10.0513,10.0365,10.1577,0.0,10.0439,9.8953,9.8173,9.8359,9.6873,9.5959,9.5959,9.4363,9.345,9.345,9.18,9.0946,9.0946,9.076,8.998,8.8309,7.624,7.3901,0.0,0.0,0.0,0.0,0.0,0.0,0.0,0.0,0.0,0.0,0.0,0.0,0.0,0.0,0.0,0.0,6.2858,6.5662,6.6758,6.7548,6.9286,7.277,7.3683,7.5479,7.9152,7.9063,7.9759,8.2143,8.3228,8.3938,8.4312,8.7541,8.938,8.938,9.1276,9.3076,9.4688,9.4608,9.493,9.5603,9.5603,9.5603,9.5641,9.6613,9.7061,9.7136,9.8127,9.8576,9.8576,9.8576,9.8594,9.8494,0.0,0.0,0.0,0.0,9.3612,9.3527,9.3626,9.4062,9.4556,9.4556,9.5042,9.5641,9.5622,9.5659,9.5712,9.5674,9.5638,9.5827,9.6779,9.6835,9.6893,9.7899,9.8037,9.8121,9.8828,9.8969,9.9133,9.9764,9.9868,0.0,9.8687,9.7378,9.6516,9.6776,9.7333,9.7556,9.6888,9.8002,9.8485,9.7593,9.8039,9.8188,9.7556,9.6814,0.0,0.0,0.0,9.5462,9.5462,9.3805,0.0,0.0,0.0,8.5264,8.3351,8.1402,0.0,0.0,6.7847,6.703,0.0,0.0,0.0,0.0,0.0,0.0,0.0,0.0,0.0,0.0,0.0,0.0,0.0,0.0,0.0,0.0,5.8585,6.2173,6.0451,6.2971,6.5592,6.7426,6.9785,7.2229,7.4755,7.5638,7.6946,7.9077,8.0349,8.0909,8.0573,8.3228,8.4985,8.5434,8.7864,8.9883,9.1453,9.1939,9.2388,9.2874,9.3285,9.3509,9.3547,9.4781,9.5342,9.5416,9.6613,9.7174,9.7174,9.7174,9.7174,9.68,9.3472,9.1902,9.149,9.1455,9.1156,9.0782,9.0782,9.1081,9.1492,9.1492,9.1492,9.1549,9.1981,9.2093,9.2129,9.2482,9.2909,9.3523,9.4681,9.4898,9.5129,9.6357,9.6531,9.6442,9.6442,9.6442,9.6442,9.6442,9.6442,9.6071,9.492,9.4734,9.4957,9.5625,9.6145,9.6442,9.6442,9.6851,9.6851,9.6145,9.6071,9.6071,9.6071,9.5722,9.5944,9.7036,9.5625,9.4734,9.4734,9.2691,9.0797,8.9089,8.3853,7.9582,0.0,0.0,0.0,0.0,0.0,0.0,0.0,0.0,0.0,0.0,0.0,0.0,0.0,0.0,0.0,0.0,0.0,0.0,0.0,0.0,0.0,0.0,0.0,0.0,5.6954,5.557,5.7029,6.3374,6.4197,6.6178,7.1025,7.0165,7.0651,7.3843,7.4142,7.5525,7.8644,8.0461,8.2181,8.3788,8.3938,8.476,8.6331,8.7993,8.9621,9.1249,9.2799,9.3509,9.3509,9.3547,9.3584,9.3584,9.3659,9.3659,9.3659,9.3659,9.3659,9.3323,9.0032,8.7806,8.6368,8.6341,8.5279,8.3914,8.3914,8.498,8.6344,8.6344,8.6324,8.6623,8.8138,8.8511,8.8732,9.0375,9.1919,9.3161,9.3337,9.3297,9.3178,9.3252,9.3185,9.3078,9.3078,9.3078,9.3078,9.3078,9.3078,9.3041,9.3004,9.3004,9.2447,9.0872,9.2002,0.0,9.3078,9.4511,9.6071,9.7556,9.7705,9.7705,9.7705,9.6294,9.5462,9.5536,9.3917,9.3004,9.3004,8.9906,8.7418,8.5727,7.9304,7.4421,7.1173,0.0,0.0,0.0,0.0,0.0,0.0,0.0,0.0,0.0,0.0,0.0,0.0,0.0,0.0,0.0,0.0,0.0,0.0,0.0,0.0,0.0,0.0,0.0,0.0,5.4988,5.7841,5.8936,6.1019,6.2626,6.3175,6.467,6.6103,6.7225,7.0328,7.2684,7.3768,7.5451,7.7133,7.8816,7.9915,8.1209,8.2891,8.4574,8.5695,8.6293,8.6817,8.7079,8.7116,8.8125,8.8612,8.8649,8.9771,9.0257,9.0257,9.0257,8.9023,8.6966,8.5845,8.4317,8.2773,8.2777,8.1699,8.0082,7.9054,7.9054,7.9725,8.0753,8.1089,8.1594,8.419,8.4936,8.501,8.5586,8.6143,8.6792,8.789,8.813,8.837,8.9485,9.0521,9.1243,9.1243,9.2113,9.2893,9.2893,8.8532,8.5153,8.6304,8.8272,8.9498,8.8941,9.1169,9.2893,9.2893,9.3434,9.3954,9.4511,9.4526,9.4526,9.4526,9.4065,9.3768,9.3768,9.1206,8.9683,8.9683,8.6564,8.3036,7.9174,7.8005,7.3698,6.605,0.0,0.0,0.0,0.0,0.0,0.0,0.0,0.0,0.0,0.0,0.0,0.0,0.0,0.0,0.0,0.0,0.0,0.0,0.0,0.0,0.0,0.0,0.0,0.0,0.0,0.0,5.5795,5.814,0.0,5.9138,6.042,6.1542,6.2178,6.5156,6.7474,6.8646,6.973,7.1637,7.4516,7.5563,7.6909,7.8629,8.0311,8.1134,8.1134,8.233,8.2891,8.2928,8.4536,8.5284,8.5321,8.6443,8.6908,8.6705,8.4365,8.1769,7.9346,7.9324,7.8247,7.6766,7.7332,7.6837,7.5841,7.5308,7.5196,7.5303,7.575,7.51,7.4675,7.7887,7.8409,7.8075,7.8672,7.9248,8.0177,8.2386,8.2943,8.3537,8.5784,8.7084,8.7827,8.7827,8.8235,8.8235,8.7027,8.3036,8.0177,8.1291,8.3667,8.5433,8.5433,8.7715,8.9869,9.102,9.1689,9.2261,9.2856,9.2893,9.2893,9.2893,9.2893,9.241,9.128,8.9201,8.701,8.4707,8.259,7.884,7.3306,7.3715,6.9964,0.0,0.0,0.0,0.0,0.0,0.0,0.0,0.0,0.0,0.0,0.0,0.0,0.0,0.0,0.0,0.0,0.0,0.0,0.0,0.0,0.0,0.0,0.0,0.0,0.0,0.0,0.0,5.3551,5.5122,0.0,0.0,0.0,0.0,5.8577,5.8876,6.0297,6.3411,6.3673,6.5917,7.0689,7.0913,7.1787,7.3469,7.5152,7.6063,7.6176,7.9264,8.0782,8.0931,8.2555,8.3265,8.3265,8.3265,8.3265,8.2779,7.6198,7.2544,7.1081,7.1011,6.99,6.8612,7.0094,7.0586,7.0705,7.2073,7.2614,7.2472,7.091,6.8306,6.6393,6.9423,6.9317,0.0,0.0,7.1672,7.3566,7.6965,7.7819,7.8673,8.1922,8.2776,8.2813,8.2702,8.1513,7.9397,7.598,7.6686,7.7782,7.7596,0.0,8.0177,8.0177,8.1773,8.4076,8.729,8.9052,9.0686,9.2373,9.2558,9.2558,9.2558,9.2558,9.1206,8.8012,8.7567,8.4707,7.8599,7.793,7.47,6.833,6.6548,0.0,0.0,0.0,0.0,0.0,0.0,0.0,0.0,0.0,0.0,0.0,0.0,0.0,0.0,0.0,0.0,0.0,0.0,0.0,0.0,0.0,0.0,0.0,0.0,0.0,0.0,4.4156,4.6371,4.682,4.8316,4.8989,0.0,0.0,0.0,0.0,0.0,0.0,5.8413,5.9673,6.1493,6.4047,6.5244,6.6664,6.836,7.0067,7.1487,7.2647,7.3455,7.4502,7.5787,7.6198,7.6385,7.6385,7.6385,7.6385,7.5974,7.0573,6.8117,6.7581,6.6223,6.4677,6.3231,6.3613,6.2962,6.1939,6.2306,6.244,6.2209,6.056,6.108,6.2269,6.1943,0.0,0.0,0.0,0.0,6.6792,7.0096,7.095,7.1784,7.5052,7.6797,7.7354,7.6092,7.6463,7.5386,6.9667,6.9853,7.0171,6.7757,7.0728,0.0,7.3438,7.6928,8.0288,8.2293,8.4002,8.5636,8.7249,8.7398,8.7398,8.7398,8.7398,8.6544,8.4559,8.0994,7.8765,7.8339,7.2452,6.7847,6.4861,0.0,0.0,0.0,0.0,0.0,0.0,0.0,0.0,0.0,0.0,0.0,0.0,0.0,0.0,0.0,0.0,0.0,0.0,0.0,0.0,0.0,0.0,0.0,0.0,0.0,0.0,0.0,3.8092,4.1352,4.21,4.3641,4.4539,0.0,0.0,0.0,0.0,0.0,0.0,0.0,0.0,0.0,5.8289,5.9897,6.1505,6.3225,6.4944,6.6203,6.71,6.8534,6.9679,7.0549,7.1334,7.1633,7.1633,7.1633,7.0423,6.8192,6.5428,6.3373,6.1954,0.0,0.0,0.0,0.0,5.8508,5.7675,5.7611,5.7598,5.7227,5.48,0.0,0.0,0.0,0.0,0.0,0.0,0.0,6.1112,6.4431,6.579,6.7126,7.0373,7.1895,7.2304,7.1375,6.9073,6.6124,6.2463,6.3057,6.3577,6.1757,6.4936,0.0,0.0,0.0,7.6723,7.832,8.1254,8.3519,8.4428,8.4502,8.4502,8.4502,8.4502,8.3519,8.1216,7.8468,7.5406,7.199,6.8145,6.328,0.0,0.0,0.0,0.0,0.0,0.0,0.0,0.0,0.0,0.0,0.0,0.0,0.0,0.0,0.0,0.0,0.0,0.0,0.0,0.0,0.0,0.0,0.0,0.0,0.0,0.0,0.0,0.0,0.0,3.6253,3.7942,0.0,0.0,0.0,0.0,0.0,0.0,0.0,0.0,0.0,0.0,0.0,0.0,0.0,5.5971,5.7456,5.9373,6.0533,6.0981,6.3835,6.5218,6.5378,6.6885,6.7632,6.7767,6.6895,0.0,6.04,5.9753,0.0,0.0,0.0,0.0,0.0,0.0,0.0,0.0,0.0,0.0,0.0,0.0,0.0,0.0,0.0,0.0,0.0,0.0,0.0,0.0,0.0,0.0,6.3339,6.6436,6.7328,6.729,6.6659,6.0889,5.5765,5.532,5.6781,5.7946,0.0,0.0,0.0,0.0,0.0,0.0,7.4309,7.9025,8.2293,8.2553,8.2739,8.285,8.285,8.2665,8.1254,7.819,7.7002,7.2621,6.423,6.4245,0.0,0.0,0.0,0.0,0.0,0.0,0.0,0.0,0.0,0.0,0.0,0.0,0.0,0.0,0.0,0.0,0.0,0.0,0.0,0.0,0.0,0.0,0.0,0.0,0.0,0.0,0.0,0.0,0.0,0.0,0.0,0.0,0.0,0.0,0.0,0.0,0.0,0.0,0.0,0.0,0.0,0.0,0.0,0.0,0.0,0.0,0.0,0.0,0.0,0.0,5.8039,5.9,6.036,6.0659,6.1494,6.2428,5.6908,5.4847,5.4991,5.0914,0.0,0.0,0.0,0.0,0.0,0.0,0.0,0.0,0.0,0.0,0.0,0.0,0.0,0.0,0.0,0.0,0.0,0.0,0.0,0.0,0.0,0.0,5.7983,5.9937,6.146,6.1386,5.7264,0.0,0.0,0.0,0.0,0.0,0.0,0.0,0.0,0.0,0.0,0.0,6.755,7.3232,7.7651,7.9044,8.0325,8.1105,8.1105,7.9917,7.8339,7.6389,6.9874,6.5975,0.0,0.0,0.0,0.0,0.0,0.0,0.0,0.0,0.0,0.0,0.0,0.0,0.0,0.0,0.0,0.0,0.0,0.0,0.0,0.0,0.0,0.0,0.0,0.0,0.0,0.0,0.0,0.0,0.0,0.0,0.0,0.0,0.0,0.0,0.0,0.0,0.0,0.0,0.0,0.0,0.0,0.0,0.0,0.0,0.0,0.0,0.0,0.0,0.0,0.0,0.0,0.0,0.0,0.0,0.0,0.0,0.0,0.0,5.1695,4.8088,0.0,0.0,0.0,0.0,0.0,0.0,0.0,0.0,0.0,0.0,0.0,0.0,0.0,0.0,0.0,0.0,0.0,0.0,0.0,0.0,0.0,0.0,0.0,0.0,0.0,0.0,0.0,0.0,0.0,0.0,0.0,0.0,0.0,0.0,0.0,0.0,0.0,0.0,0.0,0.0,6.4691,7.0484,7.4829,7.5609,7.6389,7.6834,7.6834,7.6129,7.4309,7.0967,6.7068,0.0,0.0,0.0,0.0,0.0,0.0,0.0,0.0,0.0,0.0,0.0,0.0,0.0,0.0,0.0,0.0,0.0,0.0,0.0,0.0,0.0,0.0,0.0,0.0,0.0,0.0,0.0,0.0,0.0,0.0,0.0,0.0,0.0,0.0,0.0,0.0,0.0,0.0,0.0,0.0,0.0,0.0,0.0,0.0,0.0,0.0,0.0,0.0,0.0,0.0,0.0,0.0,0.0,0.0,0.0,0.0,0.0,0.0,0.0,4.6609,4.1937,0.0,0.0,0.0,0.0,0.0,0.0,0.0,0.0,0.0,0.0,0.0,0.0,0.0,0.0,0.0,0.0,0.0,0.0,0.0,0.0,0.0,0.0,0.0,0.0,0.0,0.0,0.0,0.0,0.0,0.0,0.0,0.0,0.0,0.0,0.0,0.0,0.0,0.0,0.0,0.0,6.2485,6.8219,7.2378,7.2749,7.3084,7.3269,7.3269,7.2638,7.0484,6.634,6.4765,0.0,0.0,0.0,0.0,0.0,0.0,0.0,0.0,0.0,0.0,0.0,0.0,0.0,0.0,0.0,0.0,0.0,0.0,0.0,0.0,0.0,0.0,0.0,0.0,0.0,0.0,0.0,0.0,0.0,0.0,0.0,0.0,0.0,0.0,0.0,0.0,0.0,0.0,0.0,0.0,0.0,0.0,0.0,0.0,0.0,0.0,0.0,0.0,0.0,0.0,0.0,0.0,0.0,0.0,0.0,0.0,0.0,0.0,0.0,0.0,0.0,0.0,0.0,0.0,0.0,0.0,0.0,0.0,0.0,0.0,0.0,0.0,0.0,0.0,0.0,0.0,0.0,0.0,0.0,0.0,0.0,0.0,0.0,0.0,0.0,0.0,0.0,0.0,0.0,0.0,0.0,0.0,0.0,0.0,0.0,0.0,0.0,0.0,0.0,0.0,0.0,5.8972,6.4839,6.9428,7.0987,7.2415,7.3269,7.3269,7.0596,6.807,6.6229,0.0,0.0,0.0,0.0,0.0,0.0,0.0,0.0,0.0,0.0,0.0,0.0,0.0,0.0,0.0,0.0,0.0,0.0,0.0,0.0,0.0,0.0,0.0,0.0,0.0,0.0,0.0,0.0,0.0,0.0,0.0,0.0,0.0,0.0,0.0,0.0,0.0,0.0,0.0,0.0,0.0,0.0,0.0,0.0,0.0,0.0,0.0,0.0,0.0,0.0,0.0,0.0,0.0,0.0,0.0,0.0,0.0,0.0,0.0,0.0,0.0,0.0,0.0,0.0,0.0,0.0,0.0,0.0,0.0,0.0,0.0,0.0,0.0,0.0,0.0,0.0,0.0,0.0,0.0,0.0,0.0,0.0,0.0,0.0,0.0,0.0,0.0,0.0,0.0,0.0,0.0,0.0,0.0,0.0,0.0,0.0,0.0,0.0,0.0,0.0,0.0,0.0,5.6987,6.2872,6.7137,6.7842,6.9375,6.9964,6.9052,6.7773,6.5025,6.0406,0.0,0.0,0.0,0.0,0.0,0.0,0.0,0.0,0.0,0.0,0.0,0.0,0.0,0.0,0.0,0.0,0.0,0.0,0.0,0.0,0.0,0.0,0.0,0.0,0.0,0.0,0.0,0.0,0.0,0.0,0.0,0.0,0.0,0.0,0.0,0.0,0.0,0.0,0.0,0.0,0.0,0.0,0.0,0.0,0.0,0.0,0.0,0.0,0.0,0.0,0.0,0.0,0.0,0.0,0.0,0.0,0.0,0.0,0.0,0.0,0.0,0.0,0.0,0.0,0.0,0.0,0.0,0.0,0.0,0.0,0.0,0.0,0.0,0.0,0.0,0.0,0.0,0.0,0.0,0.0,0.0,0.0,0.0,0.0,0.0,0.0,0.0,0.0,0.0,0.0,0.0,0.0,0.0,0.0,0.0,0.0,0.0,0.0,0.0,0.0,0.0,0.0,5.5895,6.1025,6.4621,6.5103,6.6226,6.648,6.5434,6.4914,6.224,5.6532,0.0,0.0,0.0,0.0,0.0,0.0,0.0,0.0,0.0,0.0,0.0,0.0,0.0,0.0,0.0,0.0,0.0,0.0,0.0,0.0,0.0,0.0,0.0,0.0,0.0,0.0,0.0,0.0,0.0,0.0,0.0,0.0,0.0,0.0,0.0,0.0,0.0,0.0,0.0,0.0,0.0,0.0,0.0,0.0,0.0,0.0,0.0,0.0,0.0,0.0,0.0,0.0,0.0,0.0,0.0,0.0,0.0,0.0,0.0,0.0,0.0,0.0,0.0,0.0,0.0,0.0,0.0,0.0,0.0,0.0,0.0,0.0,0.0,0.0,0.0,0.0,0.0,0.0,0.0,0.0,0.0,0.0,0.0,0.0,0.0,0.0,0.0,0.0,0.0,0.0,0.0,0.0,0.0,0.0,0.0,0.0,0.0,0.0,0.0,0.0,0.0,0.0,5.576,5.906,6.1655,6.3249,6.3398,6.345,6.3584,6.2188,5.9812,0.0,0.0,0.0,0.0,0.0,0.0,0.0,0.0,0.0,0.0,0.0,0.0,0.0,0.0,0.0,0.0,0.0,0.0,0.0,0.0,0.0,0.0,0.0,0.0,0.0,0.0,0.0,0.0,0.0,0.0,0.0,0.0,0.0,0.0,0.0,0.0,0.0,0.0,0.0,0.0,0.0,0.0,0.0,0.0,0.0,0.0,0.0,0.0,0.0,0.0,0.0,0.0,0.0,0.0,0.0,0.0,0.0,0.0,0.0,0.0,0.0,0.0,0.0,0.0,0.0,0.0,0.0,0.0,0.0,0.0,0.0,0.0,0.0,0.0,0.0,0.0,0.0,0.0,0.0,0.0,0.0,0.0,0.0,0.0,0.0,0.0,0.0,0.0,0.0,0.0,0.0,0.0,0.0,0.0,0.0,0.0,0.0,0.0,0.0,0.0,0.0,0.0,0.0,5.3902,5.7307,5.9914,6.1491,6.2663,6.2983,6.204,6.1534,5.9343,5.4874,0.0,0.0,0.0,0.0,0.0,0.0,0.0,0.0,0.0,0.0,0.0,0.0,0.0,0.0,0.0,0.0,0.0,0.0,0.0,0.0,0.0,0.0,0.0,0.0,0.0,0.0,0.0,0.0,0.0,0.0,0.0,0.0,0.0,0.0,0.0,0.0,0.0,0.0,0.0,0.0,0.0,0.0,0.0,0.0,0.0,0.0,0.0,0.0,0.0,0.0,0.0,0.0,0.0,0.0,0.0,0.0,0.0,0.0,0.0,0.0,0.0,0.0,0.0,0.0,0.0,0.0,0.0,0.0,0.0,0.0,0.0,0.0,0.0,0.0,0.0,0.0,0.0,0.0,0.0,0.0,0.0,0.0,0.0,0.0,0.0,0.0,0.0,0.0,0.0,0.0,0.0,0.0,0.0,0.0,0.0,0.0,0.0,0.0,0.0,0.0,0.0,0.0,0.0,5.6408,5.8788,5.9787,6.0898,6.1181,6.0261,6.0244,5.8401,5.4032,0.0,0.0,0.0,0.0,0.0,0.0,0.0,0.0,0.0,0.0,0.0,0.0,0.0,0.0,0.0,0.0,0.0,0.0,0.0,0.0,0.0,0.0,0.0,0.0,0.0,0.0,0.0,0.0,0.0,0.0,0.0,0.0,0.0,0.0,0.0,0.0,0.0,0.0,0.0,0.0,0.0,0.0,0.0,0.0,0.0,0.0,0.0,0.0,0.0,0.0,0.0,0.0,0.0,0.0,0.0,0.0,0.0,0.0,0.0,0.0,0.0,0.0,0.0,0.0,0.0,0.0,0.0,0.0,0.0,0.0,0.0,0.0,0.0,0.0,0.0,0.0,0.0,0.0,0.0,0.0,0.0,0.0,0.0,0.0,0.0,0.0,0.0,0.0,0.0,0.0,0.0,0.0,0.0,0.0,0.0,0.0,0.0,0.0,0.0,0.0,0.0,0.0,0.0,5.6054,5.8085,5.8307,5.8419,5.8515,5.8515,5.8643,5.7288,5.3869,5.0704,0.0,0.0,0.0,0.0,0.0,0.0,0.0,0.0,0.0,0.0,0.0,0.0,0.0,0.0,0.0,0.0,0.0,0.0,0.0,0.0,0.0,0.0,0.0,0.0,0.0,0.0,0.0,0.0,0.0,0.0,0.0,0.0,0.0,0.0,0.0,0.0,0.0,0.0,0.0,0.0,0.0,0.0,0.0,0.0,0.0,0.0,0.0,0.0,0.0,0.0,0.0,0.0,0.0,0.0,0.0,0.0,0.0,0.0,0.0,0.0,0.0,0.0,0.0,0.0,0.0,0.0,0.0,0.0,0.0,0.0,0.0,0.0,0.0,0.0,0.0,0.0,0.0,0.0,0.0,0.0,0.0,0.0,0.0,0.0,0.0,0.0,0.0,0.0,0.0,0.0,0.0,0.0,0.0,0.0,0.0,0.0,0.0,0.0,0.0,0.0,0.0,0.0,5.3488,5.5697,5.8196,5.8478,5.8558,5.8657,5.8698,5.7301,5.4008,5.0765,0.0,0.0,0.0,0.0,0.0,0.0,0.0,0.0,0.0,0.0,0.0,0.0,0.0,0.0,0.0,0.0,0.0,0.0,0.0,0.0,0.0,0.0,0.0,0.0,0.0,0.0,0.0,0.0,0.0,0.0,0.0,0.0,0.0,0.0,0.0,0.0,0.0,0.0,0.0,0.0,0.0,0.0,0.0,0.0,0.0,0.0,0.0,0.0,0.0,0.0,0.0,0.0,0.0,0.0,0.0,0.0,0.0,0.0,0.0,0.0,0.0,0.0,0.0,0.0,0.0,0.0,0.0,0.0,0.0,0.0,0.0,0.0,0.0,0.0,0.0,0.0,0.0,0.0,0.0,0.0,0.0,0.0,0.0,0.0,0.0,0.0,0.0,0.0,0.0,0.0,0.0,0.0,0.0,0.0,0.0,0.0,0.0,0.0,0.0,0.0,0.0,0.0,5.1013,5.406,5.8062,5.8507,5.8535,5.8615,5.8685,5.6953,5.2943,4.9639,0.0,0.0,0.0,0.0,0.0,0.0,0.0,0.0,0.0,0.0,0.0,0.0,0.0,0.0,0.0,0.0,0.0,0.0,0.0,0.0,0.0,0.0,0.0,0.0,0.0,0.0,0.0,0.0,0.0,0.0,0.0,0.0,0.0,0.0,0.0,0.0,0.0,0.0,0.0,0.0,0.0,0.0,0.0,0.0,0.0,0.0,0.0,0.0,0.0,0.0,0.0,0.0,0.0,0.0,0.0,0.0,0.0,0.0,0.0,0.0,0.0,0.0,0.0,0.0,0.0,0.0,0.0,0.0,0.0,0.0,0.0,0.0,0.0,0.0,0.0,0.0,0.0,0.0,0.0,0.0,0.0,0.0,0.0,0.0,0.0,0.0,0.0,0.0,0.0,0.0,0.0,0.0,0.0,0.0,0.0,0.0,0.0,0.0,0.0,0.0,0.0,0.0,0.0,5.258,5.7279,5.821,5.8498,5.8544,5.8421,5.6309,5.1595,0.0,0.0,0.0,0.0,0.0,0.0,0.0,0.0,0.0,0.0,0.0,0.0,0.0,0.0,0.0,0.0,0.0,0.0,0.0,0.0,0.0,0.0,0.0,0.0,0.0,0.0,0.0,0.0,0.0,0.0,0.0,0.0,0.0,0.0,0.0,0.0,0.0,0.0,0.0,0.0,0.0,0.0,0.0,0.0,0.0,0.0,0.0,0.0,0.0,0.0,0.0,0.0,0.0,0.0,0.0,0.0,0.0,0.0,0.0,0.0,0.0,0.0,0.0,0.0,0.0,0.0,0.0,0.0,0.0,0.0,0.0,0.0,0.0,0.0,0.0,0.0,0.0,0.0,0.0,0.0,0.0,0.0,0.0,0.0,0.0,0.0,0.0,0.0,0.0,0.0,0.0,0.0,0.0,0.0,0.0,0.0,0.0,0.0,0.0,0.0,0.0,0.0,0.0,0.0,5.0496,5.4009,5.6872,5.8572,5.8685,5.7385,5.506,5.1533,0.0,0.0,0.0,0.0,0.0,0.0,0.0,0.0,0.0,0.0,0.0,0.0,0.0,0.0]}]]]